     2.10           OBSERVATION DATA    G (GPS)             RINEX VERSION / TYPE
teqc 2005Sep1 20060522 13:29:39UTC                          PGM / RUN BY / DATE
MSXP|IAx86-PII|bcc32 5.0|MSWin95->XP|486/DX+                COMMENT
JPS2RIN 1.40 RUN BY 22-MAY-06 15:08                         COMMENT
build Feb 6 2004 (c) Javad Navigation Systems               COMMENT
Use -p (profile) switch to override ANTENNA TYPE and DELTA  COMMENT
and other fields                                            COMMENT
log0430b.jps                                                COMMENT
SE TPS 00000000                                             COMMENT
log0430b_WNI8                                               MARKER NAME
OBSERVER AGENCY                                             OBSERVER / AGENCY
8RWYUJLWNI8 TPS EGGDT 2.5 Jun,22,2005 p1                    REC # / TYPE / VERS
log0430b -Unknown-                                          ANT # / TYPE
  1255927.7775   348185.8016  6222676.2511                  APPROX POSITION XYZ
        0.0000        0.0000        0.0000                  ANTENNA: DELTA H/E/N
     1     1                                                WAVELENGTH FACT L1/2
     7    C1    P1    P2    L1    L2    D1    D2            # / TYPES OF OBSERV
    30.0000                                                 INTERVAL
Forced Modulo Decimation to 30 seconds                      COMMENT
teqc windowed: start @ 2006 Apr 30 04:55:00.000             COMMENT
  2006     4    30     4    55    0.0000000     GPS         TIME OF FIRST OBS
                                                            END OF HEADER
 06  4 30  4 55  0.0000000  0  9G 3G 8G10G13G15G16G21G27G29
  22216829.021    22216828.8004   22216832.8524  116750224.003 7  90974221.43144
      2807.474        2187.642
  24294562.341    24294561.6194   24294567.3534  127668795.584 6  99482201.83242
      3350.317        2610.635
  22592699.148    22592697.8614   22592702.6444  118725430.475 6  92513342.82144
     -2414.788       -1881.645
  24976612.810                                   131252979.995 5
     -3753.683
  21813062.379    21813061.6774   21813066.0734  114628417.726 7  89320864.73545
      2744.948        2138.919
  21700857.232    21700856.8854   21700859.7114  114038775.908 7  88861400.94345
     -2019.692       -1573.785
  21168087.696    21168087.3214   21168089.6474  111239051.690 8  86679799.26046
       943.872         735.483
  23168173.063    23168172.9564   23168177.7144  121749573.796 6  94869817.17644
      1458.848        1136.763
  23722010.911    23722012.1494   23722016.9864  124660020.169 5  97137697.08441
      2914.747        2271.229
 06  4 30  4 55 30.0000000  0  9G 3G 8G10G13G15G16G21G27G29
  22200855.190    22200855.1574   22200858.8574  116666280.544 7  90908810.90444
      2788.997        2173.241
  24275478.166    24275478.1854   24275484.8814  127568516.573 5  99404062.46442
      3335.142        2598.808
  22606547.500    22606546.9404   22606551.7664  118798208.987 6  92570053.31244
     -2436.827       -1898.831
  24998074.599                                   131365768.437 4
     -3765.466
  21797447.191    21797446.5344   21797450.9744  114546360.136 7  89256923.76645
      2725.785        2123.991
  21712450.975    21712450.4964   21712453.5424  114099702.245 7  88908875.99645
     -2041.834       -1591.038
  21162768.148    21162767.6854   21162770.3244  111211097.265 8  86658016.58746
       919.969         716.857
  23159906.102    23159905.8264   23159909.9674  121706127.398 6  94835962.81844
      1437.727        1120.305
  23705421.099    23705421.2344   23705425.3964  124572832.633 5  97069758.74841
      2898.050        2258.224
 06  4 30  4 56  0.0000000  0  9G 3G 8G10G13G15G16G21G27G29
  22184982.400    22184982.2824   22184986.5094  116582870.438 7  90843816.02544
      2771.727        2159.788
  24256478.418    24256478.8064   24256485.9284  127468672.368 5  99326261.82042
      3321.149        2587.899
  22620518.460    22620517.7404   22620523.0804  118871626.122 6  92627261.46544
     -2457.545       -1914.974
  25019599.840                                   131478883.255 4
     -3775.530
  21781937.935    21781937.3734   21781941.5134  114464857.780 7  89193415.45245
      2707.785        2109.961
  21724167.660    21724167.0144   21724169.8564  114161271.789 8  88956852.26645
     -2062.720       -1607.314
  21157581.143    21157580.6874   21157583.2104  111183840.447 8  86636777.51046
       897.236         699.143
  23151755.397    23151754.7714   23151759.4164  121663294.486 7  94802586.51244
      1417.851        1104.815
  23688922.562    23688922.0744   23688926.2004  124486130.881 5  97002199.00841
      2882.198        2245.858
 06  4 30  4 56 30.0000000  0  9G 3G 8G10G13G15G16G21G27G29
  22169208.181    22169207.7884   22169212.3294  116499974.914 7  90779222.10044
      2754.609        2146.452
  24237559.036    24237558.3244   24237565.3694  127369245.036 5  99248786.11942
      3307.231        2577.041
  22634606.549    22634605.6414   22634610.6474  118945658.089 6  92684948.69044
     -2477.939       -1930.867
  25041182.869    25041183.0944   25041185.0574  131592300.187 4 102539481.33141
     -3785.585       -2949.850
  21766530.477    21766529.9554   21766534.2154  114383891.911 7  89130325.18045
      2689.896        2096.025
  21736002.006    21736001.3504   21736004.5284  114223461.685 7  89005311.91845
     -2083.306       -1623.358
  21152523.318    21152522.8254   21152525.4114  111157260.874 8  86616066.14646
       874.674         681.561
  23143717.139    23143716.6284   23143721.4534  121621055.261 6  94769672.81644
      1398.051        1089.390
  23672513.268    23672512.4804   23672515.6744  124399896.394 4  96935003.38241
      2866.472        2233.570
 06  4 30  4 57  0.0000000  0 10G 3G 8G10G13G15G16G21G26G27G29
  22153530.198    22153529.6884   22153533.7104  116417585.398 7  90715022.48244
      2738.457        2133.866
  24218717.207    24218717.7884   24218722.7224  127270226.713 5  99171629.06642
      3294.368        2567.029
  22648808.540    22648807.8674   22648812.8344  119020291.662 6  92743104.68244
     -2497.176       -1945.851
  25062821.105    25062818.8584   25062821.8554  131706005.015 4 102628082.36341
     -3794.230       -2956.531
  21751223.402    21751222.9614   21751227.6784  114303454.129 7  89067646.40745
      2673.044        2082.892
  21747951.707    21747951.3414   21747954.4964  114286259.500 7  89054245.25545
     -2102.770       -1638.522
  21147592.493    21147592.1304   21147594.5534  111131348.745 8  86595874.86346
       853.223         664.852
  24220050.136    24220050.0064   24220054.6264  127277229.043 5  99177074.8524
      3692.917        2877.710
  23135790.877    23135790.2604   23135794.8504  121579400.718 6  94737214.73944
      1379.374        1074.840
  23656190.870    23656190.1244   23656194.1834  124314121.432 4  96868165.78541
      2852.092        2222.402
 06  4 30  4 57 30.0000000  0  8G 3G 8G10G15G21G26G27G29
  22137943.595    22137942.5324   22137947.3424  116335675.948 5  90651196.80941
      2722.085        2121.136
  24199947.991    24199946.7294   24199952.5194  127171591.507 6  99094770.47442
      3281.284        2556.844
  22663119.665    22663118.5224   22663123.6594  119095495.676 7  92801705.14643
     -2516.396       -1960.766
  21736013.182    21736012.1674   21736015.4594  114223517.940 5  89005358.43143
      2656.063        2069.694
  21142782.826    21142782.5594   21142784.9804  111106075.472 7  86576181.37944
       831.622         648.052
  24199004.178    24199001.3474   24199008.0424  127166622.082 4  99090887.83441
      3680.961        2868.276
  23127970.328    23127969.7694   23127974.0854  121538303.810 6  94705191.17043
      1360.198        1059.913
  23639949.215    23639949.9684   23639954.5054  124228779.378 5  96801665.51842
      2837.311        2210.911
 06  4 30  4 58  0.0000000  0  9G 3G 8G10G15G16G21G26G27G29
  22122448.399                                   116254251.181 6
      2706.219
  24181252.538    24181251.5984   24181256.6244  127073345.401 6  99018215.10641
      3268.597        2546.981
  22677539.348    22677538.1074   22677543.2354  119171270.653 6  92860750.61843
     -2535.121       -1975.410
  21720897.571    21720897.4624   21720904.0364  114144089.378 7  88943463.36345
      2639.379        2056.857
  21772181.402                                   114413586.554 7
     -2141.174
  21138096.117    21138095.6254   21138098.2514  111081445.429 8  86556989.16146
       810.488         631.551
  24178022.934    24178021.6304   24178029.0734  127056374.363 5  99004980.71341
      3669.168        2859.061
  23120256.415    23120256.2294   23120260.6284  121497768.093 6  94673604.93143
      1341.989        1045.708
  23623793.157    23623793.0934   23623798.0464  124143874.957 5  96735506.03842
      2822.953        2199.706
 06  4 30  4 58 30.0000000  0  9G 3G 8G10G15G16G21G26G27G29
  22107044.691    22107044.4634   22107048.0064  116173305.300 7  90524673.77645
      2690.256        2096.308
  24162628.339    24162628.1554   24162634.6174  126975482.896 5  98941958.67041
      3255.743        2536.958
  22692065.320    22692064.1264   22692069.2594  119247605.745 6  92920232.47042
     -2553.742       -1989.923
  21705877.577    21705877.0464   21705881.2664  114065160.618 7  88881960.45045
      2622.619        2043.605
  21784459.550    21784459.1084   21784462.0494  114478106.696 7  89203739.07745
     -2160.138       -1683.234
  21133530.195    21133529.7194   21133532.3164  111057451.139 8  86538292.32046
       789.237         614.992
  24157110.013    24157109.6864   24157115.7344  126946478.701 4  98919347.65241
      3657.219        2849.777
  23112648.402    23112648.0114   23112652.2934  121457787.429 6  94642451.21142
      1323.455        1031.266
  23607719.293    23607718.7794   23607724.0094  124059404.392 5  96669684.76541
      2808.514        2188.445
 06  4 30  4 59  0.0000000  0  9G 3G 8G10G15G16G21G26G27G29
  22091731.967    22091731.5284   22091735.2494  116092835.776 7  90461970.27044
      2674.345        2083.901
  24144079.048    24144077.9434   24144084.7264  126878003.374 5  98866000.73442
      3242.876        2526.904
  22706696.916    22706695.9494   22706701.1174  119324494.355 6  92980145.65343
     -2572.117       -2004.253
  21690953.227    21690952.5224   21690957.0354  113986731.175 7  88820846.62045
      2606.008        2030.644
  21796844.488    21796844.2304   21796847.0884  114543190.338 7  89254453.60445
     -2178.742       -1697.723
  21129084.633    21129084.1604   21129086.6684  111034090.020 8  86520088.85046
       768.163         598.566
  24136264.155    24136264.7474   24136272.0024  126836937.855 4  98833991.34741
      3645.607        2840.724
  23105145.364    23105144.8604   23105149.2914  121418359.189 6  94611727.96444
      1305.044        1016.916
  23591726.104    23591726.7764   23591731.9934  123975366.870 5  96604201.11841
      2794.109        2177.219
 06  4 30  4 59 30.0000000  0  9G 3G 8G10G15G16G21G26G27G29
  22076509.767    22076509.5654   22076513.6754  116012844.380 7  90399639.32244
      2658.492        2071.546
  24125602.955    24125602.3064   24125608.5964  126780908.113 6  98790342.08742
      3230.129        2516.974
  22721432.901    22721431.8244   22721437.0234  119401932.982 6  93040487.43043
     -2590.348       -2018.454
  21676123.749    21676123.0014   21676127.5384  113908802.027 8  88760122.60545
      2589.346        2017.672
  21809335.927    21809335.5464   21809338.7394  114608833.157 8  89305603.84145
     -2197.317       -1712.195
  21124759.511    21124759.0304   21124761.5734  111011361.402 8  86502378.23846
       747.144         582.187
  24115484.927    24115484.9314   24115493.7774  126727751.913 4  98748911.56141
      3633.594        2831.326
  23097747.508    23097747.0094   23097751.7154  121379483.489 6  94581435.25744
      1286.696        1002.628
  23575816.703    23575817.8884   23575822.2684  123891762.550 5  96539054.96841
      2779.608        2165.915
 06  4 30  5  0  0.0000000  0  9G 3G 8G10G15G16G21G26G27G29
  22061378.001    22061377.7114   22061381.4824  115933325.214 7  90337676.35344
      2642.864        2059.365
  24107199.126    24107197.7984   24107204.6654  126684192.152 5  98714978.98042
      3217.613        2507.244
  22736271.425    22736270.6854   22736275.8424  119479910.552 6  93101249.15243
     -2608.082       -2032.275
  21661388.018    21661387.4764   21661392.2124  113831367.292 7  88699783.87045
      2573.017        2004.944
  21821931.906    21821931.4754   21821934.5064  114675025.091 7  89357181.95445
     -2215.415       -1726.295
  21120553.445    21120552.9334   21120555.3654  110989257.756 8  86485154.60746
       726.501         566.102
  24094774.927    24094774.5164   24094782.1044  126618916.655 4  98664105.04541
      3622.034        2822.373
  23090453.060    23090453.2364   23090457.5604  121341153.306 6  94551567.61944
      1268.687         988.586
  23559988.800    23559989.0984   23559995.3734  123808586.077 5  96474242.19141
      2765.424        2154.863
 06  4 30  5  0 30.0000000  0  9G 3G 8G10G15G16G21G26G27G29
  22046336.002    22046335.6644   22046339.2504  115854278.416 7  90276081.45944
      2626.971        2046.989
  24088867.179    24088865.3644   24088871.2504  126587856.396 5  98639912.19242
      3204.804        2497.225
  22751212.129    22751211.5174   22751216.3774  119558422.421 6  93162427.07143
     -2625.932       -2046.180
  21646747.094    21646746.4094   21646750.7974  113754427.531 7  88639830.81745
      2556.344        1991.949
  21834631.487    21834631.0534   21834634.0574  114741762.478 8  89409185.09445
     -2233.638       -1740.492
  21116465.871    21116465.3874   21116467.9994  110967778.042 8  86468417.16846
       705.562         549.791
  24074133.127    24074133.4874   24074138.2594  126510433.647 4  98579572.92341
      3610.085        2813.062
  23083263.151    23083262.8514   23083266.9474  121303368.371 6  94522124.84444
      1250.346         974.287
  23544243.002    23544243.1334   23544247.8984  123725838.476 5  96409763.57842
      2751.009        2143.631
 06  4 30  5  1  0.0000000  0  9G 3G 8G10G15G16G21G26G27G29
  22031383.655    22031383.6334   22031387.3264  115775705.347 7  90214855.66944
      2611.173        2034.678
  24070606.378    24070606.3804   24070611.7274  126491903.050 5  98565143.43442
      3192.013        2487.277
  22766253.525    22766252.4834   22766257.4134  119637465.738 6  93224019.18143
     -2643.633       -2059.982
  21632200.199    21632199.5474   21632204.1914  113677984.029 7  88580264.47245
      2539.802        1979.070
  21847434.592    21847433.9954   21847437.0164  114809042.498 7  89461611.07245
     -2251.719       -1754.587
  21112497.174    21112496.8104   21112499.3544  110946922.372 8  86452165.99746
       684.766         533.585
  24053556.362    24053557.9024   24053563.9084  126402305.300 4  98495317.16541
      3598.355        2803.898
  23076176.476    23076176.3564   23076181.0584  121266129.223 6  94493107.34044
      1232.182         960.133
  23528579.025    23528578.6654   23528582.7754  123643521.295 5  96345620.38242
      2736.720        2132.500
 06  4 30  5  1 30.0000000  0 10G 3G 8G10G15G16G18G21G26G27G29
  22016521.387    22016521.0574   22016525.1164  115697602.132 7  90153996.03544
      2595.738        2022.655
  24052419.086    24052419.3404   24052424.1584  126396328.562 6  98490669.87342
      3179.664        2477.642
  22781393.815    22781393.0944   22781398.3484  119717031.768 6  93286018.75843
     -2660.719       -2073.294
  21617747.302    21617746.6194   21617751.1054  113602032.493 7  88521081.48245
      2523.688        1966.505
  21860339.086    21860338.7544   21860341.7304  114876856.184 7  89514452.89945
     -2269.185       -1768.197
  24468612.256                                   128583425.412 5
      3548.422
  21108646.040    21108645.6444   21108648.1504  110926684.854 8  86436396.50646
       664.430         517.735
  24033046.456    24033045.2774   24033053.0444  126294528.458 5  98411335.35241
      3586.888        2794.960
  23069193.182    23069192.8374   23069197.4714  121229430.210 6  94464510.71144
      1214.448         946.323
  23512994.919    23512995.0694   23512999.4164  123561630.954 5  96281809.76641
      2722.686        2121.576
 06  4 30  5  2  0.0000000  0 11G 3G 8G10G15G16G18G19G21G26G27G29
  22001747.051    22001746.7014   22001750.4554  115619962.182 7  90093497.37544
      2580.232        2010.569
  24034302.106    24034302.6764   24034308.5744  126301127.048 6  98416486.86042
      3167.055        2467.816
  22796632.109    22796631.3984   22796636.4444  119797108.858 6  93348416.49643
     -2677.763       -2086.577
  21603386.567    21603385.9454   21603390.5554  113526566.594 7  88462276.89945
      2507.384        1953.802
  21873343.343    21873342.9634   21873345.7794  114945193.867 7  89567703.04145
     -2286.684       -1781.834
  24448374.283    24448373.5884   24448378.3634  128477072.624 5 100112025.36541
      3541.767        2759.842
  25020699.967                                   131484666.677 5
      3734.719
  21104911.094    21104910.7734   21104913.2864  110907057.533 8  86421102.49546
       644.008         501.822
  24012604.467    24012603.8434   24012610.9884  126187098.290 5  98327623.66041
      3575.081        2785.758
  23062310.457    23062310.6304   23062315.4624  121193264.268 6  94436329.49444
      1196.556         932.386
  23497493.003    23497492.0604   23497496.2574  123480161.205 5  96218326.88242
      2708.582        2110.580
 06  4 30  5  2 30.0000000  0 11G 3G 8G10G15G16G18G19G21G26G27G29
  21987061.023    21987060.8924   21987064.5064  115542788.048 7  90033361.66144
      2564.799        1998.548
  24016258.377    24016258.2534   24016263.7924  126206301.763 5  98342597.02242
      3154.602        2458.135
  22811967.701    22811966.7234   22811971.5054  119877694.579 6  93411210.48343
     -2694.503       -2099.611
  21589118.820    21589118.1084   21589122.5294  113451588.836 7  88403852.67645
      2491.212        1941.199
  21886446.955    21886446.3404   21886449.3614  115014053.658 7  89621360.01645
     -2303.858       -1795.212
  24428173.087    24428173.6184   24428177.2454  128370919.061 5 100029308.33541
      3535.247        2754.726
  24999389.278                                   131372680.628 4
      3731.019
  21101292.577    21101292.1364   21101294.7524  110888041.694 8  86406284.96046
       623.801         486.080
  23992228.220    23992228.6194   23992233.4424  126080018.568 5  98244184.97241
      3563.586        2776.822
  23055531.043    23055530.6304   23055534.6654  121157633.189 6  94408565.03044
      1178.910         918.633
  23482070.641    23482070.0814   23482074.1584  123399115.244 5  96155174.23242
      2694.602        2099.675
 06  4 30  5  3  0.0000000  0 11G 3G 8G10G15G16G18G19G21G26G27G29
  21972463.896    21972463.4144   21972467.3514  115466077.630 7  89973587.28744
      2549.312        1986.470
  23998285.035    23998285.0894   23998290.5744  126111851.754 6  98268999.81042
      3142.117        2448.398
  22827397.601    22827397.2934   22827402.2884  119958782.065 6  93474395.49343
     -2711.191       -2112.617
  21574943.287    21574942.6644   21574947.1964  113377097.146 7  88345807.21345
      2474.988        1928.561
  21899648.252    21899647.9114   21899651.0154  115083428.558 7  89675418.38645
     -2321.011       -1808.580
  24408010.252    24408009.9384   24408014.6344  128264962.850 5  99946745.07241
      3528.508        2749.489
  24978099.911    24978099.7084   24978104.3684  131260807.378 5 102281162.64341
      3727.360        2904.444
  21097789.630    21097789.2164   21097791.7724  110869633.455 8  86391940.86646
       603.512         470.269
  23971917.508    23971917.0684   23971923.4014  125973287.714 5  98161018.16741
      3551.933        2767.715
  23048851.901    23048851.3624   23048855.2414  121122533.695 6  94381214.83344
      1161.225         904.850
  23466728.225    23466727.7604   23466731.9474  123318490.994 5  96092350.16742
      2680.491        2088.680
 06  4 30  5  3 30.0000000  0 11G 3G 8G10G15G16G18G19G21G26G27G29
  21957954.511    21957954.1124   21957958.1974  115389831.574 7  89914174.80545
      2533.815        1974.404
  23980383.770    23980383.1574   23980388.4144  126017777.901 6  98195695.55842
      3129.554        2438.619
  22842922.910    22842922.5234   22842927.1624  120040367.399 6  93537968.42543
     -2727.765       -2125.527
  21560860.830    21560860.0724   21560864.6864  113303092.263 7  88288141.07545
      2458.707        1915.877
  21912947.505    21912947.1214   21912950.1244  115153315.533 7  89729875.75845
     -2338.047       -1821.857
  24387885.257    24387884.4524   24387890.5074  128159205.156 6  99864336.50841
      3521.949        2744.394
  24956833.836    24956832.9494   24956833.5464  131149047.916 4 102194077.37441
      3723.448        2901.425
  21094402.275    21094401.8154   21094404.1464  110851831.902 8  86378069.51846
       583.294         454.520
  23951673.067    23951673.5044   23951678.8164  125866908.296 5  98078125.19541
      3540.067        2758.482
  23042272.936    23042272.5384   23042277.3844  121087965.562 7  94354278.65344
      1143.421         890.987
  23451466.051    23451465.5114   23451470.0694  123238289.891 5  96029855.84442
      2666.338        2077.648
 06  4 30  5  4  0.0000000  0 11G 3G 8G10G15G16G18G19G21G26G27G29
  21943534.102    21943533.8034   21943537.3084  115314051.458 7  89855125.37245
      2518.168        1962.214
  23962554.589    23962554.0134   23962558.7524  125924082.739 6  98122686.46942
      3116.758        2428.641
  22858542.287    22858541.3834   22858546.4554  120122446.969 6  93601926.51843
     -2744.257       -2138.382
  21546871.210    21546870.6404   21546874.9064  113229575.753 8  88230855.48845
      2442.347        1903.131
  21926343.569    21926343.3274   21926345.9624  115223711.783 7  89784729.95845
     -2355.054       -1835.102
  24367798.437    24367798.3394   24367802.8144  128053647.672 5  99782083.96442
      3515.192        2739.131
  24935587.863    24935586.5124   24935590.7514  131037403.724 5 102107081.92541
      3719.460        2898.276
  21091130.053    21091129.5734   21091131.9844  110834637.115 8  86364670.97646
       562.988         438.697
  23931497.684    23931496.9714   23931503.0384  125760882.779 5  97995507.99741
      3528.205        2749.265
  23035796.105    23035795.9894   23035800.5894  121053929.404 6  94327757.00944
      1125.594         877.086
  23436284.140    23436284.5254   23436288.1384  123158513.891 5  95967692.73842
      2652.103        2066.563
 06  4 30  5  4 30.0000000  0 11G 3G 8G10G15G16G18G19G21G26G27G29
  21929203.914    21929203.2114   21929207.0394  115238744.519 7  89796444.63545
      2502.189        1949.760
  23944797.922    23944797.2914   23944802.8164  125830773.840 6  98049978.26642
      3103.659        2418.433
  22874255.942    22874255.1364   22874260.4164  120205023.421 6  93666271.77743
     -2760.926       -2151.373
  21532975.690    21532975.0204   21532979.5244  113156555.061 8  88173956.24545
      2425.625        1890.101
  21939837.043    21939836.7774   21939839.8634  115294620.705 7  89839983.64945
     -2372.275       -1848.525
  24347751.066    24347750.8784   24347755.2784  127948298.254 6  99699993.53442
      3508.119        2733.587
  24914366.913    24914366.4964   24914367.2554  130925881.471 5 102020181.44241
      3715.281        2895.034
  21087974.583    21087974.0944   21087976.6524  110818054.777 8  86351749.67846
       542.391         422.641
  23911391.158    23911391.3484   23911397.4694  125655219.927 5  97913173.38141
      3516.037        2739.748
  23029422.104    23029422.1454   23029425.8284  121020431.783 6  94301654.98844
      1107.491         862.984
  23421186.960    23421186.3304   23421190.5224  123079170.777 5  95905866.97742
      2637.481        2055.174
 06  4 30  5  5  0.0000000  0 11G 3G 8G10G15G16G18G19G21G26G27G29
  21914963.303    21914962.8514   21914967.0174  115163911.242 7  89738132.98745
      2486.554        1937.583
  23927115.029    23927115.1164   23927120.4864  125737852.852 6  97977572.36442
      3090.874        2408.484
  22890063.036    22890062.5914   22890067.6744  120288092.163 6  93731000.60243
     -2777.091       -2163.954
  21519174.600    21519173.8834   21519178.4664  113084030.561 7  88117443.66045
      2409.229        1877.322
  21953427.457    21953426.8734   21953429.9824  115366038.043 7  89895633.49045
     -2388.968       -1861.526
  24327743.139    24327742.9344   24327747.8754  127843157.933 6  99618066.01042
      3501.192        2728.218
  24893167.165    24893167.1784   24893169.6214  130814481.386 5 101933376.17241
      3711.283        2891.923
  21084935.629    21084935.1074   21084937.7044  110802084.055 8  86339304.96446
       522.183         406.897
  23891354.068    23891354.8104   23891358.6004  125549921.181 5  97831122.44941
      3503.824        2730.241
  23023149.597    23023149.1414   23023153.6894  120987471.393 6  94275971.55444
      1089.737         849.146
  23406170.332    23406170.3374   23406174.3374  123000261.005 5  95844378.87142
      2623.095        2043.977
 06  4 30  5  5 30.0000000  0 13G 3G 6G 7G 8G10G15G16G18G19G21G26G27
                                G29
  21900813.241    21900812.7114   21900816.8204  115089551.308 7  89680190.18945
      2470.614        1925.150
  24348274.281    24348274.5984   24348280.0064  127951048.946 5  99702134.76941
     -3767.964       -2936.104
  21037018.280    21037017.7094   21037022.3754  110550277.662 8  86143092.60546
      -893.107        -695.927
  23909506.128    23909506.1784   23909511.2214  125645319.776 6  97905468.73442
      3077.786        2398.281
  22905964.087    22905963.3674   22905968.1154  120371648.536 6  93796109.45743
     -2793.460       -2176.729
  21505468.055    21505467.4214   21505471.8484  113012002.145 7  88061317.62245
      2392.489        1864.282
  21967113.461    21967113.1994   21967116.2234  115437959.590 7  89951676.20945
     -2405.911       -1874.730
  24307775.475    24307775.4684   24307779.5904  127738226.401 6  99536301.20242
      3494.050        2722.645
  24871992.224    24871990.9904   24871993.6874  130703203.394 5 101846666.02441
      3706.968        2888.546
  21082012.319    21082011.9544   21082014.5244  110786723.246 8  86327335.50246
       501.701         390.938
  23871384.466    23871384.1794   23871390.6214  125444987.614 5  97749356.12241
      3491.535        2720.698
  23016979.865    23016979.4894   23016983.6284  120955047.815 6  94250706.43744
      1071.688         835.078
  23391237.107    23391235.7164   23391241.3274  122921785.084 5  95783228.81942
      2608.423        2032.511
 06  4 30  5  6  0.0000000  0 13G 3G 6G 7G 8G10G15G16G18G19G21G26G27
                                G29
  21886753.254    21886753.1064   21886757.2564  115015667.584 7  89622618.46945
      2454.686        1912.745
  24369798.524    24369798.4774   24369805.2974  128064158.150 5  99790271.74841
     -3773.046       -2940.050
  21042168.621    21042167.9744   21042172.4864  110577342.502 8  86164182.06446
      -911.495        -710.253
  23891971.998    23891972.2764   23891977.2054  125553178.501 6  97833670.38542
      3064.691        2388.063
  22921957.536    22921956.0714   22921961.0314  120455690.335 6  93861596.59643
     -2809.537       -2189.254
  21491856.426    21491855.8144   21491860.4344  112940472.473 8  88005580.22245
      2375.873        1851.324
  21980895.371    21980895.0294   21980898.1554  115510383.953 7  90008110.72745
     -2422.607       -1887.747
  24287848.160    24287848.0734   24287851.8934  127633506.998 6  99454701.70043
      3486.960        2717.103
  24850840.321    24850839.6024   24850841.4484  130592050.173 5 101760053.10141
      3702.951        2885.408
  21079205.554    21079205.0954   21079207.5824  110771973.217 8  86315841.96146
       481.378         375.097
  23851486.665    23851487.0674   23851492.3704  125340423.068 5  97667877.32441
      3479.220        2711.069
  23010912.494    23010912.0004   23010916.2784  120923162.680 6  94225860.87444
      1053.679         821.047
  23376385.784    23376385.7344   23376390.5344  122843746.098 5  95722419.27242
      2593.859        2021.203
 06  4 30  5  6 30.0000000  0 13G 3G 6G 7G 8G10G15G16G18G19G21G26G27
                                G29
  21872784.544    21872784.3184   21872788.4604  114942261.102 7  89565418.59145
      2438.941        1900.473
  24391351.117    24391351.4274   24391357.9984  128177418.346 5  99878526.36341
     -3777.865       -2943.792
  21047423.919    21047423.5354   21047427.9204  110604960.344 8  86185702.42746
      -929.731        -724.466
  23874514.748    23874513.6844   23874518.3894  125461430.820 6  97762178.64342
      3051.688        2377.944
  22938040.695    22938039.9134   22938045.1974  120540213.584 6  93927458.85443
     -2825.368       -2201.588
  21478339.997    21478339.3524   21478344.0104  112869442.534 8  87950232.22145
      2359.379        1838.474
  21994772.439    21994772.0814   21994775.2584  115583308.111 7  90064934.71345
     -2439.043       -1900.553
  24267961.351    24267961.0504   24267965.6304  127529001.266 6  99373268.67143
      3479.988        2711.701
  24829711.769    24829711.4094   24829713.2124  130481022.342 5 101673537.85941
      3698.890        2882.289
  21076514.619    21076514.1954   21076516.8244  110757833.159 8  86304823.71946
       461.208         359.383
  23831659.539    23831659.5534   23831664.0124  125236230.258 5  97586688.17641
      3466.879        2701.481
  23004947.104    23004946.7774   23004951.2264  120891815.975 6  94201434.87444
      1035.948         807.233
  23361619.486    23361619.6894   23361623.7614  122766145.631 5  95661951.40842
      2579.359        2009.884
 06  4 30  5  7  0.0000000  0 13G 3G 6G 7G 8G10G15G16G18G19G21G26G27
                                G29
  21858906.894    21858906.6014   21858910.5244  114869332.539 7  89508591.13045
      2422.925        1887.989
  24412931.998    24412933.7764   24412938.3114  128290825.924 5  99966895.88141
     -3782.649       -2947.536
  21052784.321    21052783.7454   21052788.1854  110633128.947 8  86207651.97246
      -948.224        -738.873
  23857131.360    23857130.4754   23857135.1584  125370077.619 6  97690994.35642
      3038.481        2367.635
  22954214.950    22954214.7104   22954220.0294  120625213.990 6  93993692.94743
     -2841.362       -2214.052
  21464918.616    21464917.8494   21464922.3654  112798912.796 7  87895274.00245
      2342.551        1825.365
  22008743.840    22008743.5934   22008746.2504  115656728.028 7  90122145.02645
     -2455.615       -1913.469
  24248115.806    24248115.3424   24248119.3964  127424710.447 6  99292003.17542
      3472.712        2706.009
  24808608.614    24808607.3274   24808610.0964  130370120.525 5 101587120.76641
      3694.532        2878.858
  21073939.983    21073939.4524   21073942.1724  110744302.285 8  86294280.19246
       440.787         343.472
  23811903.076    23811902.4414   23811908.3824  125132410.712 5  97505789.89041
      3454.240        2691.630
  22999084.351    22999083.9154   22999088.2044  120861007.334 6  94177428.13844
      1017.944         793.206
  23346936.429    23346935.9934   23346940.3324  122688984.599 6  95601826.00842
      2564.583        1998.398
 06  4 30  5  7 30.0000000  0 13G 3G 6G 7G 8G10G15G16G18G19G21G26G27
                                G29
  21845121.043    21845120.4404   21845124.4864  114796886.375 7  89452139.57345
      2406.815        1875.437
  24434540.540    24434540.7474   24434547.7824  128404381.838 5 100055380.93241
     -3787.640       -2951.414
  21058249.712    21058249.2734   21058253.6074  110661849.955 8  86230031.97946
      -966.569        -753.171
  23839823.363    23839822.1834   23839826.9134  125279124.876 6  97620122.10142
      3025.079        2357.208
  22970481.808    22970480.5684   22970485.6794  120710691.286 6  94060298.59843
     -2857.137       -2226.335
  21451593.422    21451592.7574   21451597.1914  112728888.046 7  87840709.29445
      2325.714        1812.241
  22022809.844    22022809.2944   22022812.1574  115730644.376 7  90179742.21345
     -2472.129       -1926.341
  24228311.049    24228311.1494   24228315.5104  127320638.995 6  99210908.57542
      3465.431        2700.318
  24787529.891    24787528.9504   24787531.3774  130259349.361 5 101500805.55841
      3690.150        2875.405
  21071481.798    21071481.2874   21071483.7814  110731384.183 8  86284214.14846
       420.397         327.582
  23792219.109    23792218.3414   23792223.9594  125028970.555 5  97425187.21341
      3441.568        2681.735
  22993324.815    22993324.6274   22993328.6984  120830740.430 6  94153843.57644
       999.879         779.132
  23332337.145    23332337.2964   23332341.3834  122612267.818 5  95542046.74242
      2549.821        1986.852
 06  4 30  5  8  0.0000000  0 13G 3G 6G 7G 8G10G15G16G18G19G21G26G27
                                G29
  21831427.099    21831426.8224   21831430.7404  114724925.723 7  89396066.36645
      2390.504        1862.731
  24456177.914    24456178.2084   24456184.2164  128518084.360 5 100143980.22441
     -3792.576       -2955.280
  21063820.561    21063819.9124   21063824.2354  110691123.690 8  86252842.69246
      -985.031        -767.556
  23822591.138    23822590.7784   23822596.3254  125188576.026 6  97549564.53042
      3011.475        2346.610
  22986838.318    22986837.3834   22986842.0744  120796643.870 6  94127274.58843
     -2873.039       -2238.727
  21438364.583    21438363.8654   21438368.4044  112659371.244 7  87786540.38845
      2308.699        1798.986
  22036969.713    22036969.2664   22036972.5324  115805055.799 7  90237725.15245
     -2488.666       -1939.216
  24208549.449    24208549.0374   24208554.0414  127216790.851 6  99129987.99342
      3457.797        2694.428
  24766476.313    24766475.3064   24766477.6624  130148711.886 5 101414594.56742
      3685.605        2871.932
  21069140.161    21069139.6004   21069142.3734  110719079.700 8  86274626.25446
       399.897         311.604
  23772608.039    23772607.8004   23772613.8614  124925913.688 5  97344883.26041
      3428.725        2671.718
  22987668.640    22987668.1924   22987672.5534  120801016.789 6  94130682.28444
       981.656         764.931
  23317824.059    23317823.3964   23317828.4624  122535998.805 5  95482616.37042
      2534.808        1975.197
 06  4 30  5  8 30.0000000  0 13G 3G 6G 7G 8G10G15G16G18G19G21G26G27
                                G29
  21817826.928    21817826.4984   21817830.4834  114653455.830 7  89340375.56545
      2374.122        1849.965
  24477842.592    24477842.4934   24477849.0114  128631935.394 5 100232695.22941
     -3797.532       -2959.106
  21069496.691    21069496.1744   21069500.6524  110720952.778 8  86276086.13146
     -1003.531        -781.973
  23805437.748    23805437.5174   23805443.0654  125098437.339 6  97479326.54042
      2997.688        2335.868
  23003284.828    23003284.0884   23003288.9574  120883072.460 6  94194621.50743
     -2888.880       -2251.077
  21425233.732    21425233.0724   21425237.5214  112590367.918 8  87732771.58545
      2291.505        1785.586
  22051224.045    22051223.7344   22051226.8794  115879963.449 7  90296094.75045
     -2505.179       -1952.090
  24188831.073    24188830.9014   24188835.5054  127113171.514 6  99049245.68942
      3450.114        2688.412
  24745449.318    24745448.2594   24745450.3684  130038213.329 5 101328491.83842
      3680.922        2868.228
  21066916.100    21066915.6764   21066918.3474  110707392.117 8  86265519.05546
       379.287         295.543
  23753071.168    23753071.8554   23753076.7914  124823246.971 5  97264883.28041
      3415.658        2661.540
  22982116.575    22982116.3444   22982120.6304  120771841.028 6  94107947.91744
       963.352         750.661
  23303396.265    23303395.7864   23303401.0614  122460183.438 6  95423539.51842
      2519.561        1963.297
 06  4 30  5  9  0.0000000  0 13G 3G 6G 7G 8G10G15G16G18G19G21G26G27
                                G29
  21804319.924    21804319.6794   21804323.9284  114582477.884 7  89285068.10845
      2357.778        1837.225
  24499536.044    24499535.1084   24499543.3794  128745931.041 5 100321522.97341
     -3802.222       -2962.802
  21075278.405    21075277.7124   21075282.2424  110751335.427 8  86299760.91746
     -1021.943        -796.315
  23788364.169    23788362.9454   23788368.6764  125008710.521 6  97409409.51342
      2984.043        2325.232
  23019820.035    23019819.9524   23019825.8874  120969973.260 6  94262336.40943
     -2904.512       -2263.260
  21412200.874    21412200.2384   21412204.7034  112521879.158 7  87679403.72845
      2274.373        1772.239
  22065572.383    22065572.0774   22065575.2204  115955364.034 7  90354848.43745
     -2521.540       -1964.836
  24169157.060    24169156.8934   24169161.1304  127009782.667 6  98968682.97242
      3442.461        2682.427
  24724448.139    24724447.4504   24724450.0784  129927854.826 5 101242498.20742
      3676.251        2864.636
  21064809.571    21064808.9794   21064811.6074  110696321.553 8  86256892.64646
       358.747         279.542
  23733608.978    23733608.9444   23733613.6234  124720972.824 5  97185189.17741
      3402.592        2651.389
  22976669.784    22976669.1024   22976672.8134  120743213.363 6  94085640.65944
       945.109         736.450
  23289055.749    23289055.4084   23289061.3384  122384823.215 5  95364817.29542
      2504.463        1951.546
 06  4 30  5  9 30.0000000  0 13G 3G 6G 7G 8G10G15G16G18G19G21G26G27
                                G29
  21790907.263    21790906.8144   21790911.0654  114511992.820 7  89230144.65645
      2341.094        1824.235
  24521255.289    24521255.2994   24521261.6584  128860068.263 5 100410460.99841
     -3806.974       -2966.474
  21081164.735    21081164.2604   21081168.8564  110782270.089 8  86323865.84546
     -1040.505        -810.785
  23771368.683    23771368.8574   23771373.3834  124919397.922 6  97339815.35142
      2969.995        2314.292
  23036446.891    23036446.3794   23036451.4404  121057342.534 6  94330416.33643
     -2920.247       -2275.515
  21399266.142    21399265.5024   21399269.6404  112453906.192 8  87626437.77945
      2256.936        1758.650
  22080013.946    22080013.5794   22080016.6624  116031254.780 7  90413984.06245
     -2538.033       -1977.688
  24149527.410    24149527.0784   24149531.2454  126906625.935 6  98888301.16142
      3434.507        2676.223
  24703474.741    24703474.0284   24703476.6914  129817637.186 5 101156614.32641
      3671.361        2860.807
  21062820.249    21062819.7114   21062822.3044  110685867.657 8  86248746.75346
       337.999         263.376
  23714221.747    23714221.2664   23714225.5304  124619093.774 5  97105802.95741
      3389.253        2640.963
  22971325.949    22971325.3724   22971329.6724  120715134.030 7  94063760.65144
       926.650         722.065
  23274802.379    23274802.4204   23274806.9844  122309919.835 6  95306451.04742
      2488.942        1939.442
 06  4 30  5 10  0.0000000  0 13G 3G 6G 7G 8G10G15G16G18G19G21G26G27
                                G29
  21777589.176    21777588.9464   21777593.0704  114442006.481 7  89175609.83845
      2324.613        1811.385
  24543002.509    24543001.6384   24543008.7564  128974348.994 5 100499510.83141
     -3811.706       -2970.157
  21087156.996    21087156.5904   21087161.0674  110813759.381 8  86348402.94946
     -1058.845        -825.074
  23754452.587    23754452.6304   23754457.5974  124830505.514 6  97270548.60942
      2956.080        2303.417
  23053162.763    23053161.4014   23053166.6184  121145180.953 6  94398861.81643
     -2935.711       -2287.568
  21386430.391    21386429.8094   21386434.0344  112386454.557 8  87573878.05545
      2239.699        1745.223
  22094549.089    22094548.5434   22094551.4754  116107636.958 7  90473502.62145
     -2554.234       -1990.312
  24129942.492    24129941.9234   24129946.3094  126803707.356 6  98808104.88242
      3426.637        2670.121
  24682529.065    24682527.5364   24682531.0934  129707566.400 5 101070844.85842
      3666.635        2857.101
  21060948.869    21060948.4704   21060950.9014  110676034.118 8  86241084.25446
       317.464         247.374
  23694912.125    23694911.6474   23694917.1454  124517616.676 5  97026729.95841
      3375.897        2630.554
  22966087.333    22966086.7684   22966091.6394  120687607.146 6  94042311.09244
       908.380         707.832
  23260636.028    23260636.3884   23260640.5384  122235479.127 5  95248445.34942
      2473.664        1927.531
 06  4 30  5 10 30.0000000  0 13G 3G 6G 7G 8G10G15G16G18G19G21G26G27
                                G29
  21764366.170    21764365.9644   21764369.9474  114372519.110 7  89121463.83645
      2308.039        1798.465
  24564775.782    24564776.1454   24564782.8214  129088769.530 5 100588669.61841
     -3816.158       -2973.627
  21093254.378    21093253.8724   21093258.5194  110845800.731 8  86373370.23246
     -1077.138        -839.328
  23737616.831    23737617.2164   23737621.9114  124742034.396 6  97201610.12442
      2942.095        2292.547
  23069966.692    23069965.3924   23069970.2994  121233484.328 6  94467669.58943
     -2951.033       -2299.500
  21373694.079    21373693.2364   21373697.7594  112319524.595 8  87521724.85045
      2222.406        1731.746
  22109176.953    22109176.5344   22109179.6124  116184506.583 7  90533401.01445
     -2570.315       -2002.842
  24110403.206    24110402.5994   24110407.2774  126701027.542 6  98728094.69842
      3418.810        2663.998
  24661611.294    24661609.5404   24661612.8974  129597642.296 5 100985189.72442
      3661.760        2853.312
  21059195.439    21059194.9304   21059197.4034  110666819.431 8  86233903.98846
       296.945         231.386
  23675678.087    23675677.6194   23675683.5634  124416543.074 5  96947971.35441
      3362.492        2620.118
  22960954.691    22960954.3854   22960958.2644  120660632.262 6  94021291.68644
       890.099         693.582
  23246558.944    23246558.9654   23246563.6074  122161501.802 6  95190800.70642
      2458.258        1915.536
 06  4 30  5 11  0.0000000  0 13G 3G 6G 7G 8G10G15G16G18G19G21G26G27
                                G29
  21751238.114    21751237.6644   21751241.9744  114303530.231 7  89067706.26945
      2291.208        1785.362
  24586576.347    24586575.1334   24586581.7794  129203324.969 5 100677933.52441
     -3820.650       -2977.169
  21099456.086    21099455.6994   21099460.0534  110878390.844 8  86398765.11046
     -1095.546        -853.669
  23720862.173    23720861.9734   23720866.4264  124653985.219 6  97133000.45442
      2927.869        2281.456
  23086856.717    23086856.0204   23086861.4064  121322247.209 6  94536835.42843
     -2966.509       -2311.566
  21361056.902    21361056.1774   21361060.6704  112253115.778 8  87469977.71445
      2204.864        1718.078
  22123896.488    22123896.2784   22123898.9904  116261858.861 7  90593675.48845
     -2586.518       -2015.464
  24090909.269    24090908.8114   24090912.8374  126598586.824 6  98648270.80142
      3410.571        2657.591
  24640720.199    24640719.6354   24640722.5594  129487864.533 5 100899648.59342
      3656.674        2849.353
  21057559.304    21057558.8404   21057561.3264  110658221.493 8  86227204.28646
       276.249         215.261
  23656521.150    23656520.9534   23656527.3874  124315873.767 5  96869527.79241
      3348.772        2609.441
  22955926.292    22955926.0374   22955929.9184  120634207.871 6  94000701.25044
       871.552         679.134
  23232569.834    23232570.2344   23232573.9994  122087987.761 5  95133517.06542
      2442.570        1903.285
 06  4 30  5 11 30.0000000  0 13G 3G 6G 7G 8G10G15G16G18G19G21G26G27
                                G29
  21738204.849    21738204.4254   21738208.8014  114235040.498 7  89014337.64945
      2274.645        1772.448
  24608399.336    24608399.3814   24608404.5854  129318011.949 5 100767299.91441
     -3824.990       -2980.475
  21105761.861    21105761.3774   21105765.7134  110911527.589 8  86424585.91746
     -1113.647        -867.777
  23704187.666    23704186.6754   23704191.9844  124566358.760 6  97064720.09942
      2913.783        2270.485
  23103834.322    23103833.5864   23103838.7614  121411465.335 6  94606356.00543
     -2981.502       -2323.250
  21348518.973    21348518.3264   21348522.7464  112187228.786 8  87418637.19045
      2187.524        1704.564
  22138707.295    22138706.9764   22138709.8954  116339690.335 7  90654323.34745
     -2602.348       -2027.799
  24071461.143    24071461.1854   24071465.2064  126496386.439 6  98568634.18442
      3402.629        2651.407
  24619858.989    24619858.1354   24619860.7584  129378234.096 5 100814222.33342
      3651.861        2845.610
  21056040.369    21056039.8824   21056042.4714  110650239.478 8  86220984.50946
       255.806         199.331
  23637441.902    23637442.1314   23637447.4034  124215610.659 5  96791400.72241
      3335.290        2598.940
  22951001.791    22951001.5454   22951006.3314  120608333.821 6  93980539.68944
       853.303         664.907
  23218669.127    23218669.2204   23218673.6624  122014938.202 6  95076595.31542
      2427.237        1891.353
 06  4 30  5 12  0.0000000  0 13G 3G 6G 7G 8G10G15G16G18G19G21G26G27
                                G29
  21725267.415    21725267.0284   21725271.0214  114167052.730 7  88961360.14545
      2258.015        1759.494
  24630249.856    24630247.9954   24630254.1074  129432829.394 5 100856767.94341
     -3829.413       -2983.944
  21112171.636    21112171.0744   21112175.5644  110945210.957 8  86450832.67146
     -1131.767        -881.891
  23687593.987    23687593.9964   23687598.6294  124479159.041 6  96996772.31342
      2899.706        2259.525
  23120898.622    23120897.6624   23120902.9394  121501136.957 6  94676229.95643
     -2996.402       -2334.863
  21336080.615    21336079.9844   21336084.7404  112121866.414 8  87367705.48545
      2170.141        1691.019
  22153609.078    22153608.5934   22153611.7974  116417999.507 7  90715343.45545
     -2618.091       -2040.070
  24052059.494    24052058.7234   24052062.4684  126394429.521 6  98489187.31742
      3394.632        2645.175
  24599025.143    24599024.0074   24599027.3324  129268753.442 5 100728912.76642
      3647.010        2841.846
  21054638.684    21054638.2454   21054640.9384  110642874.471 8  86215245.52946
       235.368         183.403
  23618440.729    23618440.9644   23618444.9174  124115758.245 5  96713593.72341
      3321.606        2588.255
  22946183.726    22946183.4114   22946187.9204  120583011.657 6  93960808.16944
       835.050         650.689
  23204857.578    23204856.9884   23204861.5484  121942356.325 6  95020038.03042
      2411.734        1879.287
 06  4 30  5 12 30.0000000  0 13G 3G 6G 7G 8G10G15G16G18G19G21G26G27
                                G29
  21712425.180    21712424.7304   21712428.8824  114099566.915 7  88908773.79245
      2241.299        1746.469
  24652122.439    24652121.2454   24652127.9764  129547772.813 5 100946334.17741
     -3833.402       -2987.056
  21118684.714    21118684.2194   21118688.6444  110979438.107 8  86477503.16246
     -1149.778        -895.931
  23671081.934    23671081.1824   23671086.5664  124392387.185 6  96929157.96042
      2885.356        2248.315
  23138048.374    23138047.1134   23138052.0404  121591257.211 6  94746453.47343
     -3011.298       -2346.457
  21323742.517    21323741.7884   21323746.2854  112057028.750 8  87317182.64845
      2152.639        1677.378
  22168601.008    22168600.5594   22168603.5704  116496782.259 7  90776732.59545
     -2633.810       -2052.324
  24032703.791    24032703.8274   24032707.7434  126292716.602 6  98409930.55042
      3386.438        2638.780
  24578220.276    24578219.3824   24578222.8364  129159422.749 5 100643720.03142
      3641.987        2837.900
  21053354.499    21053353.9024   21053356.6274  110636124.527 8  86209985.82146
       214.897         167.449
  23599518.098    23599518.7704   23599522.2454  124016317.584 5  96636107.53441
      3307.971        2577.642
  22941469.902    22941469.6354   22941473.6524  120558240.044 6  93941505.66144
       816.672         636.370
  23191134.443    23191134.7774   23191138.3754  121870242.550 6  94963845.47342
      2396.140        1867.106
 06  4 30  5 13  0.0000000  0 13G 3G 6G 7G 8G10G15G16G18G19G21G26G27
                                G29
  21699678.928    21699678.7244   21699682.9224  114032585.824 7  88856580.75145
      2224.210        1733.149
  24674018.858    24674018.2464   24674024.0764  129662841.014 5 101035997.63441
     -3837.675       -2990.369
  21125301.491    21125300.9604   21125305.3594  111014208.676 8  86504597.10246
     -1168.125        -910.226
  23654651.286    23654650.7384   23654656.2184  124306046.475 6  96861879.55342
      2870.750        2236.951
  23155281.855    23155281.1834   23155286.7084  121681823.763 6  94817024.74043
     -3026.377       -2358.226
  21311504.868    21311504.2684   21311508.6444  111992718.394 8  87267070.70045
      2134.802        1663.484
  22183682.830    22183682.2774   22183685.3184  116576036.841 7  90838489.40244
     -2649.754       -2064.738
  24013395.595    24013395.6034   24013399.4444  126191251.153 6  98330866.60742
      3377.950        2632.170
  24557444.918    24557443.4234   24557446.4454  129050245.010 5 100558646.50142
      3636.614        2833.715
  21052187.243    21052186.9174   21052189.4374  110629990.859 8  86205206.33546
       194.109         151.257
  23580673.907    23580673.4504   23580679.4744  123917292.867 5  96558945.49042
      3293.763        2566.561
  22936860.506    22936860.4444   22936864.9504  120534020.813 6  93922633.49844
       798.043         621.852
  23177501.055    23177500.8694   23177505.7564  121798600.123 6  94908020.26142
      2380.122        1854.634
 06  4 30  5 13 30.0000000  0 13G 3G 6G 7G 8G10G15G16G18G19G21G26G27
                                G29
  21687030.082    21687029.7324   21687033.9054  113966114.938 7  88804785.25445
      2207.128        1719.846
  24695940.054    24695939.6184   24695946.1124  129778035.432 4 101125759.43141
     -3841.990       -2993.751
  21132022.033    21132021.5384   21132026.0984  111049525.407 8  86532116.63246
     -1186.327        -924.410
  23638303.371    23638303.9504   23638309.2314  124220142.983 5  96794941.87442
      2856.173        2225.607
  23172600.565    23172600.1924   23172606.0494  121772837.333 6  94887944.36943
     -3041.234       -2369.790
  21299368.501    21299367.7524   21299372.0994  111928940.945 8  87217374.01446
      2116.984        1649.595
  22198854.157    22198854.0464   22198857.1084  116655764.646 7  90900614.96344
     -2665.468       -2076.987
  23994135.762    23994135.2394   23994140.3824  126090039.255 6  98252000.24042
      3369.417        2625.510
  24536698.667    24536698.2614   24536700.9864  128941225.537 5 100473696.26542
      3631.244        2829.556
  21051137.965    21051137.5884   21051140.0774  110624477.229 8  86200910.00946
       173.447         135.154
  23561909.569    23561910.1074   23561915.7074  123818690.748 5  96482112.74041
      3279.595        2555.525
  22932358.005    22932357.8344   22932362.2744  120510358.508 6  93904195.38644
       779.420         607.333
  23163959.364    23163959.1844   23163963.9224  121727434.629 6  94852566.67042
      2364.200        1842.237
 06  4 30  5 14  0.0000000  0 13G 3G 6G 7G 8G10G15G16G18G19G21G26G27
                                G29
  21674477.666    21674477.3694   21674481.3884  113900151.487 7  88753385.16745
      2190.253        1706.696
  24717882.719    24717884.7264   24717886.3784  129893349.311 4 101215614.30541
     -3845.696       -2996.627
  21138845.492    21138844.9354   21138849.4664  111085382.555 8  86560057.25846
     -1204.281        -938.398
  23622039.730    23622039.6334   23622044.9764  124134674.778 6  96728343.41242
      2841.603        2214.252
  23190004.778    23190002.9914   23190009.2994  121864290.410 6  94959206.45143
     -3055.776       -2381.113
  21287332.937    21287332.2514   21287336.5254  111865693.627 8  87168090.39945
      2099.329        1635.846
  22214114.635    22214114.1064   22214117.7354  116735958.801 7  90963103.89044
     -2680.907       -2089.018
  23974923.241    23974923.0144   23974926.8124  125989078.141 6  98173329.27142
      3361.112        2619.038
  24515982.612    24515981.4874   24515984.2494  128832361.732 5 100388867.35742
      3626.079        2825.513
  21050205.734    21050205.3464   21050207.9924  110619579.082 8  86197093.27846
       152.979         119.205
  23543226.604    23543225.9574   23543231.8734  123720509.815 5  96405608.17142
      3265.592        2544.611
  22927960.625    22927960.3074   22927964.7244  120487249.097 7  93886188.12144
       761.064         593.034
  23150507.377    23150507.0724   23150511.0834  121656743.711 6  94797482.85843
      2348.430        1829.928
 06  4 30  5 14 30.0000000  0 13G 3G 6G 7G 8G10G15G16G18G19G21G26G27
                                G29
  21662022.879    21662022.5154   21662026.5374  113834700.565 7  88702384.46645
      2173.229        1693.427
  24739848.615    24739846.6584   24739854.6704  130008783.507 4 101305562.93041
     -3849.573       -2999.635
  21145772.042    21145771.5504   21145776.0264  111121782.249 8  86588420.64746
     -1222.255        -952.407
  23605859.790    23605859.9984   23605865.0274  124049647.632 6  96662088.54842
      2826.967        2202.817
  23207491.885    23207490.8654   23207496.5844  121956183.282 6  95030811.23043
     -3070.299       -2392.443
  21275398.954    21275398.1664   21275402.5784  111802981.268 8  87119223.64045
      2081.590        1622.013
  22229463.899    22229463.5604   22229466.8524  116816619.741 7  91025956.54244
     -2696.348       -2101.050
  23955759.532    23955759.2224   23955763.9674  125888373.787 5  98094858.39842
      3352.595        2612.405
  24495297.562    24495296.2254   24495298.8774  128723658.676 5 100304163.75142
      3620.849        2821.430
  21049391.543    21049390.9974   21049393.6054  110615299.467 8  86193758.51946
       132.453         103.209
  23524625.383    23524624.8574   23524630.5074  123622756.428 5  96329436.74542
      3251.375        2533.528
  22923668.295    22923668.3914   22923672.7484  120464696.227 6  93868614.47344
       742.620         578.660
  23137146.196    23137146.2814   23137150.3744  121586533.054 5  94742773.27443
      2332.456        1817.505
 06  4 30  5 15  0.0000000  0 13G 3G 6G 7G 8G10G15G16G18G19G21G26G27
                                G29
  21649665.938    21649665.6134   21649669.4694  113769764.321 7  88651784.78645
      2156.070        1680.053
  24761838.905    24761838.4124   24761846.0234  130124336.340 4 101395604.02341
     -3853.689       -3002.852
  21152801.947    21152801.3674   21152805.8894  111158723.910 8  86617206.35046
     -1240.271        -966.445
  23589764.736    23589764.1904   23589769.4364  123965064.850 6  96596179.92242
      2812.174        2191.316
  23225061.585    23225060.4964   23225065.4694  122048513.623 6  95102756.89043
     -3084.813       -2403.762
  21263567.204    21263566.5974   21263570.9904  111740806.218 8  87070775.55845
      2063.657        1608.045
  22244901.685    22244901.4514   22244904.5094  116897745.560 7  91089171.44045
     -2711.792       -2113.083
  23936645.494    23936645.4424   23936649.7464  125787928.613 6  98016589.47442
      3343.986        2605.684
  24474643.277    24474641.4764   24474644.2924  128615118.644 5 100219587.08842
      3615.384        2817.173
  21048694.858    21048694.4194   21048697.0194  110611639.111 8  86190906.30046
       111.825          87.129
  23506105.005    23506105.2274   23506111.3194  123525434.293 5  96253601.34642
      3236.971        2522.319
  22919483.878    22919483.1474   22919487.0574  120442701.261 7  93851475.53844
       724.038         564.188
  23123876.986    23123876.7384   23123880.8234  121516805.032 6  94688439.78742
      2316.345        1804.950
 06  4 30  5 15 30.0000000  0 13G 3G 6G 7G 8G10G15G16G18G19G21G26G27
                                G29
  21637405.604    21637405.2424   21637409.2934  113705336.598 7  88601581.37245
      2139.097        1666.831
  24783848.294    24783847.3614   24783853.5964  130239997.737 4 101485729.69241
     -3857.332       -3005.705
  21159933.046    21159932.5414   21159937.0334  111196198.578 8  86646407.39146
     -1258.053        -980.302
  23573752.318    23573752.0034   23573756.9244  123880921.318 6  96530613.64842
      2797.422        2179.807
  23242711.508    23242711.3534   23242716.9954  122141270.270 6  95175034.71743
     -3099.015       -2414.815
  21251836.845    21251836.1414   21251840.5974  111679162.304 8  87022741.36246
      2045.902        1594.206
  22260426.066    22260425.6974   22260428.6764  116979325.897 7  91152740.52145
     -2726.885       -2124.845
  23917579.855    23917579.7424   23917584.1584  125687737.497 6  97938518.47642
      3335.474        2599.092
  24454018.411    24454016.9284   24454020.2154  128506735.783 5 100135132.93742
      3610.149        2813.095
  21048114.741    21048114.2564   21048116.8274  110608590.035 8  86188530.40346
        91.413          71.227
  23487665.933    23487665.7284   23487672.3784  123428538.483 5  96178098.15642
      3222.685        2511.177
  22915402.709    22915402.0704   22915406.5894  120421257.251 6  93834765.96744
       705.636         549.847
  23110699.455    23110699.2854   23110703.6294  121447553.954 6  94634477.95743
      2300.391        1792.502
 06  4 30  5 16  0.0000000  0 13G 3G 6G 7G 8G10G15G16G18G19G21G26G27
                                G29
  21625242.371    21625241.8134   21625245.9884  113641417.537 7  88551774.31445
      2122.001        1653.507
  24805878.174    24805876.4044   24805885.7054  130355763.720 4 101575936.86341
     -3860.852       -3008.475
  21167165.137    21167164.5654   21167169.1144  111234203.484 8  86676021.60146
     -1275.803        -994.133
  23557823.499    23557823.1514   23557828.7214  123797217.480 6  96465389.99343
      2782.673        2168.307
  23260442.877    23260442.1724   23260447.4064  122234448.606 6  95247641.14343
     -3113.084       -2425.773
  21240207.880    21240207.1804   21240211.3034  111618049.720 7  86975121.17946
      2028.066        1580.304
  22276036.081    22276035.6804   22276038.6324  117061356.637 7  91216660.56645
     -2741.994       -2136.623
  23898562.719    23898562.2934   23898566.6094  125587801.047 6  97860645.98542
      3326.814        2592.320
  24433423.751    24433422.3584   24433425.2804  128398509.967 5 100050801.05842
      3604.744        2808.886
  21047650.610    21047650.1134   21047652.5964  110606150.824 8  86186629.73246
        71.002          55.324
  23469309.457    23469309.1884   23469314.2774  123332070.881 5  96102928.67942
      3208.300        2499.962
  22911426.240    22911426.2454   22911430.7564  120400362.945 6  93818484.71844
       687.162         535.451
  23097611.414    23097611.4804   23097616.3294  121378780.644 6  94580888.40243
      2284.282        1779.953
 06  4 30  5 16 30.0000000  0 13G 3G 6G 7G 8G10G15G16G18G19G21G26G27
                                G29
  21613176.810    21613176.4194   21613180.1174  113578012.302 8  88502367.65245
      2104.958        1640.225
  24827925.917    24827926.9994   24827932.9584  130471635.509 3 101666226.4474
     -3864.075       -3010.986
  21174498.323    21174497.8764   21174502.6564  111272740.762 8  86706050.65346
     -1293.406       -1007.849
  23541979.921    23541979.8804   23541984.5984  123713959.501 6  96400513.71842
      2767.823        2156.747
  23278255.395    23278254.1264   23278260.0454  122328048.896 6  95320576.26143
     -3126.956       -2436.579
  21228680.472    21228679.7384   21228684.0464  111557473.606 8  86927919.03346
      2010.282        1566.454
  22291731.828    22291731.7254   22291734.8084  117143838.887 7  91280932.44544
     -2756.883       -2148.228
  23879594.906    23879594.4034   23879598.0204  125488125.261 6  97782976.59642
      3318.156        2585.573
  24412859.424    24412858.8824   24412861.6914  128290447.167 5  99966596.27942
      3599.410        2804.749
  21047302.911    21047302.4284   21047305.0894  110604324.408 8  86185206.57646
        50.683          39.493
  23451034.733    23451034.9814   23451039.3964  123236037.592 5  96028097.57142
      3193.856        2488.725
  22907556.015    22907555.7984   22907559.8524  120380022.398 7  93802634.99644
       668.815         521.164
  23084616.546    23084616.5504   23084621.3084  121310490.318 6  94527675.18943
      2268.286        1767.488
 06  4 30  5 17  0.0000000  0 13G 3G 6G 7G 8G10G15G16G18G19G21G26G27
                                G29
  21601209.007    21601208.6364   21601212.5374  113515121.566 7  88453361.89245
      2087.663        1626.754
  24849996.937    24849996.5274   24850003.2314  130587609.058 3 101756596.17241
     -3867.598       -3013.635
  21181932.678    21181932.2634   21181936.9744  111311808.285 8  86736492.87546
     -1311.191       -1021.712
  23526222.168    23526221.9204   23526226.1914  123631148.474 6  96335985.64943
      2752.793        2145.035
  23296146.917    23296146.0744   23296150.9974  122422067.745 6  95393837.65343
     -3141.001       -2447.538
  21217255.250    21217254.6394   21217258.9954  111497434.549 7  86881135.36846
      1992.226        1552.386
  22307512.939    22307512.4734   22307515.5454  117226769.049 7  91345553.33444
     -2771.902       -2159.929
  23860677.449    23860676.7794   23860681.1504  125388711.248 6  97705511.18443
      3309.369        2578.736
  24392326.935    24392326.0644   24392328.5864  128182548.030 5  99882519.13342
      3593.741        2800.329
  21047071.846    21047071.4114   21047073.9574  110603110.052 8  86184260.34046
        30.155          23.494
  23432843.231    23432843.0444   23432847.8454  123140440.951 5  95953606.74242
      3179.108        2477.222
  22903790.641    22903790.1454   22903794.2644  120360234.701 6  93787216.02744
       650.280         506.712
  23071713.402    23071713.9024   23071717.9014  121242684.231 5  94474839.31543
      2251.995        1754.798
 06  4 30  5 17 30.0000000  0 13G 3G 6G 7G 8G10G15G16G18G19G21G26G27
                                G29
  21589340.882    21589340.5214   21589344.4894  113452754.816 7  88404764.42845
      2070.258        1613.192
  24872087.427                                   130703691.470 3
     -3871.169
  21189469.300    21189468.6874   21189473.1014  111351412.505 8  86767353.28746
     -1328.970       -1035.563
  23510550.766    23510550.2104   23510555.4904  123548795.222 6  96271814.34543
      2737.526        2133.140
  23314117.956    23314117.0304   23314123.0404  122516509.241 6  95467428.40243
     -3154.975       -2458.419
  21205934.147    21205933.4904   21205937.9354  111437941.807 8  86834777.39646
      1974.044        1538.216
  22323379.910    22323379.6864   22323382.9034  117310152.115 7  91410527.12144
     -2786.864       -2171.584
  23841810.836    23841810.5814   23841814.4894  125289568.704 6  97628257.30643
      3300.304        2571.662
  24371826.620    24371826.3024   24371829.3834  128074821.598 5  99798576.49342
      3588.149        2795.946
  21046958.602    21046958.1134   21046960.7834  110602515.259 8  86183796.86046
         9.597           7.480
  23414736.066    23414736.5014   23414741.6064  123045291.435 5  95879464.32242
      3164.337        2465.727
  22900131.553    22900131.3724   22900135.5694  120341008.468 6  93772234.54744
       631.590         492.148
  23058905.360    23058904.9234   23058908.7594  121175372.021 6  94422388.27843
      2235.612        1742.032
 06  4 30  5 18  0.0000000  0 13G 3G 6G 7G 8G10G15G16G18G19G21G26G27
                                G29
  21577571.165    21577570.9684   21577575.0534  113390905.201 7  88356569.92345
      2052.987        1599.727
  24894197.140                                   130819871.135 3
     -3874.141
  21197106.002    21197105.4514   21197109.9174  111391543.600 8  86798624.25146
     -1346.475       -1049.203
  23494965.464    23494964.8344   23494970.1074  123466893.997 6  96207995.29842
      2722.524        2121.444
  23332167.930    23332166.9624   23332172.7594  122611361.720 6  95541339.31443
     -3168.520       -2468.965
  21194715.868    21194715.1534   21194719.5124  111378988.739 7  86788839.94246
      1956.093        1524.229
  22339331.752    22339331.2444   22339334.5354  117393977.116 7  91475845.27444
     -2801.507       -2182.994
  23822995.111    23822994.9514   23822998.5264  125190691.752 6  97551210.38543
      3291.449        2564.766
  24351359.071    24351357.9394   24351361.8474  127967261.936 5  99714763.91442
      3582.543        2791.589
  21046961.676    21046961.2834   21046964.0004  110602531.765 8  86183809.71246
       -10.722          -8.353
  23396714.248    23396714.4174   23396719.4024  122950583.926 5  95805666.32342
      3149.473        2454.153
  22896578.712    22896578.3334   22896582.5434  120322335.820 6  93757684.42744
       613.167         477.798
  23046188.845    23046188.1724   23046192.5304  121108547.502 6  94370317.27643
      2219.354        1729.366
 06  4 30  5 18 30.0000000  0 13G 3G 6G 7G 8G10G15G16G18G19G21G26G27
                                G29
  21565901.221    21565900.9024   21565904.9624  113329578.438 7  88308782.84245
      2035.448        1586.060
  24916323.407                                   130936150.016 3
     -3877.390
  21204843.625    21204843.0464   21204847.4794  111432204.664 8  86830308.18546
     -1364.198       -1063.015
  23479466.495    23479466.7674   23479471.9114  123385451.109 6  96144533.33143
      2707.085        2109.411
  23350296.321    23350295.7094   23350300.9974  122706626.433 6  95615571.41943
     -3182.388       -2479.786
  21183601.324    21183600.5684   21183604.7664  111320581.132 8  86743327.51946
      1937.784        1509.960
  22355367.267    22355367.0874   22355370.3594  117478245.685 7  91541509.05844
     -2816.321       -2194.537
  23804230.614    23804230.5694   23804234.8864  125092086.730 6  97474375.35143
      3282.184        2557.548
  24330923.738    24330923.2104   24330926.4494  127859874.242 5  99631085.09442
      3576.639        2786.986
  21047081.778    21047081.3204   21047084.1284  110603162.683 8  86184301.33946
       -31.260         -24.360
  23378777.065    23378777.6124   23378782.2094  122856325.334 5  95732218.13542
      3134.502        2442.473
  22893131.641    22893131.1444   22893135.6044  120304221.433 7  93743569.31344
       594.479         463.235
  23033566.362    23033566.0644   23033570.1824  121042216.762 6  94318631.06543
      2202.733        1716.401
 06  4 30  5 19  0.0000000  0 13G 3G 6G 7G 8G10G15G16G18G19G21G26G27
                                G29
  21554330.596    21554330.3104   21554334.4964  113268775.305 7  88261403.77945
      2018.097        1572.546
  24938467.368                                   131052524.729 3
     -3880.734
  21212681.468    21212681.0014   21212685.3654  111473393.401 8  86862403.28746
     -1381.663       -1076.618
  23464056.206    23464055.9684   23464061.4024  123304467.799 6  96081429.36543
      2691.845        2097.557
  23368501.891    23368501.4954   23368507.0534  122802299.498 6  95690121.86543
     -3195.798       -2490.233
  21172590.647    21172589.9804   21172594.2144  111262719.779 8  86698240.74346
      1919.657        1495.842
  22371486.737    22371486.4324   22371489.7094  117562954.240 7  91607515.70044
     -2830.872       -2205.875
  23785519.317    23785519.0404   23785522.6564  124993755.292 6  97397753.47743
      3273.200        2550.569
  24310521.447    24310521.1084   24310523.9064  127752659.939 5  99547541.46142
      3570.967        2782.567
  21047318.843    21047318.2724   21047320.8554  110604407.252 8  86185271.12846
       -51.675         -40.263
  23360925.834    23360925.9244   23360931.7534  122762517.902 5  95659121.48742
      3119.406        2430.704
  22889790.250    22889790.2674   22889794.4974  120286664.526 7  93729888.60244
       576.025         448.855
  23021037.986    23021037.5904   23021041.7374  120976380.827 6  94267330.39843
      2186.289        1703.613
 06  4 30  5 19 30.0000000  0 13G 3G 6G 7G 8G10G15G16G18G19G21G26G27
                                G29
  21542859.193    21542858.9254   21542862.9994  113208492.523 7  88214430.19245
      2000.699        1558.985
  24960630.467                                   131168988.553 3
     -3883.431
  21220618.682    21220618.1324   21220622.7414  111515103.438 8  86894904.59546
     -1399.046       -1090.165
  23448733.109    23448732.5174   23448737.6794  123223942.228 6  96018682.24143
      2676.471        2085.554
  23386784.434    23386783.7974   23386788.8694  122898372.669 6  95764984.06943
     -3209.111       -2500.592
  21161683.280    21161682.5394   21161687.0304  111205401.175 8  86653576.89846
      1901.528        1481.708
  22387688.697    22387688.4034   22387691.5904  117648095.427 7  91673859.44844
     -2845.282       -2217.104
  23766859.353    23766858.6654   23766862.9574  124895694.546 6  97321342.54143
      3264.119        2543.467
  24290152.246    24290151.1674   24290154.0164  127645616.249 5  99464130.89142
      3565.231        2778.107
  21047671.496    21047671.0554   21047673.6184  110606260.873 8  86186715.49846
       -71.976         -56.086
  23343160.701    23343160.8044   23343165.0724  122669159.676 5  95586374.84642
      3104.376        2419.011
  22886554.855    22886554.4804   22886558.7404  120269661.065 6  93716639.16844
       557.493         434.409
  23008603.257    23008603.1674   23008607.7374  120911036.785 6  94216413.03543
      2169.914        1690.837
 06  4 30  5 20  0.0000000  0 12G 3G 7G 8G10G15G16G18G19G21G26G27G29
  21531487.687    21531487.1024   21531491.3524  113148733.345 7  88167864.61445
      1983.407        1545.509
  21228655.040    21228654.4824   21228659.3034  111557335.166 8  86927812.41346
     -1416.211       -1103.542
  23433497.278    23433496.9184   23433501.7054  123143878.134 6  95956294.76443
      2661.281        2073.720
  23405142.091    23405141.7424   23405147.5294  122994844.441 6  95840156.88343
     -3222.151       -2510.783
  21150879.819    21150879.1314   21150883.5484  111148628.518 8  86609338.47146
      1883.455        1467.625
  22403972.738    22403972.4124   22403975.6334  117733667.751 7  91740539.15244
     -2859.366       -2228.078
  23748250.878    23748250.6894   23748254.3524  124797908.230 6  97245145.46043
      3255.134        2536.455
  24269815.508    24269814.9774   24269817.2164  127538746.306 6  99380855.65243
      3559.550        2773.679
  21048140.228    21048139.7144   21048142.4114  110608724.452 8  86188635.15646
       -92.107         -71.773
  23325481.766    23325481.7314   23325487.1594  122576255.129 5  95513981.71142
      3089.337        2407.277
  22883425.111    22883424.5654   22883428.8714  120253212.572 7  93703822.19344
       539.164         420.124
  22996262.410    22996262.9124   22996266.5204  120846188.163 6  94165881.69743
      2153.548        1678.089
 06  4 30  5 20 30.0000000  0 12G 3G 7G 8G10G15G16G18G19G21G26G27G29
  21520214.416    21520214.2234   21520218.1604  113089493.310 7  88121703.55645
      1965.906        1531.877
  21236789.496    21236788.8624   21236793.4994  111600081.206 8  86961120.99246
     -1433.531       -1117.033
  23418348.248    23418348.1474   23418353.2074  123064271.984 6  95894264.00843
      2645.725        2061.619
  23423575.299    23423573.7974   23423579.4324  123091705.752 6  95915633.22443
     -3235.254       -2520.969
  21140179.278    21140178.5654   21140183.0914  111092397.464 8  86565522.06746
      1865.228        1453.428
  22420337.137    22420336.5444   22420340.0264  117819662.824 7  91807548.26644
     -2873.633       -2239.199
  23729694.227    23729694.0114   23729697.8054  124700392.925 6  97169159.56343
      3245.864        2529.248
  24249511.559    24249510.9764   24249513.1564  127432046.064 6  99297712.63943
      3553.662        2769.084
  21048724.076    21048723.4894   21048726.2394  110611791.854 8  86191025.32646
      -112.444         -87.616
  23307887.563    23307888.0684   23307893.4374  122483801.446 5  95441939.94942
      3074.152        2395.434
  22880399.258    22880399.0254   22880403.0994  120237313.994 7  93691433.71344
       520.686         405.726
  22984015.840    22984015.7444   22984020.4424  120781831.029 6  94115733.30643
      2136.934        1665.153
 06  4 30  5 21  0.0000000  0 12G 3G 7G 8G10G15G16G18G19G21G26G27G29
  21509041.739    21509041.3074   21509045.1784  113030779.103 8  88075952.24445
      1948.265        1518.128
  21245022.352    21245021.8914   21245026.4854  111643345.709 8  86994833.57946
     -1450.849       -1130.535
  23403288.514    23403288.0334   23403293.7344  122985131.466 6  95832596.14843
      2630.135        2049.444
  23442082.019    23442080.4604   23442085.8474  123188958.499 6  95991414.54243
     -3248.364       -2531.197
  21129583.268    21129582.4114   21129586.9624  111036714.459 8  86522132.72946
      1846.864        1439.115
  22436782.452    22436781.8154   22436785.0524  117906083.625 7  91874889.12144
     -2887.835       -2250.260
  23711190.732    23711190.2464   23711194.1274  124603155.927 6  97093390.51443
      3236.476        2521.933
  24229240.926    24229239.8194   24229242.2974  127325522.683 6  99214707.44143
      3547.750        2764.488
  21049423.476    21049423.1064   21049425.7584  110615467.933 8  86193889.79846
      -132.756        -103.446
  23290382.032    23290382.6434   23290387.3324  122391806.923 5  95370255.94942
      3058.720        2383.408
  22877479.185    22877478.9894   22877483.4654  120221970.817 7  93679477.97544
       502.104         391.257
  22971864.230    22971864.1154   22971867.8984  120717972.570 6  94065973.51143
      2120.174        1652.070
 06  4 30  5 21 30.0000000  0 12G 3G 7G 8G10G15G16G18G19G21G26G27G29
  21497969.069    21497968.7034   21497972.7294  112972592.560 8  88030612.08745
      1930.794        1504.516
  21253353.680    21253353.2624   21253357.8954  111687127.257 8  87028949.05946
     -1467.916       -1143.828
  23388317.651    23388317.2014   23388322.6074  122906459.187 6  95771293.10143
      2614.628        2037.357
  23460661.528    23460661.1474   23460665.9944  123286599.990 6  96067498.74343
     -3261.055       -2541.078
  21119091.626    21119090.9774   21119095.3384  110981581.528 8  86479172.01846
      1828.645        1424.920
  22453308.074    22453307.7954   22453311.2484  117992927.466 7  91942559.62344
     -2901.738       -2261.095
  23692740.511    23692740.2044   23692744.4904  124506199.994 6  97017840.48843
      3227.239        2514.714
  24209003.997    24209003.1364   24209005.2754  127219177.767 5  99131841.28043
      3541.934        2759.940
  21050239.025    21050238.3124   21050240.9114  110619752.296 8  86197228.26146
      -152.877        -119.127
  23272964.050    23272964.7444   23272969.2284  122300274.674 5  95298932.17942
      3043.405        2371.476
  22874665.908    22874665.1354   22874669.5944  120207183.536 6  93667955.43744
       483.727         376.933
  22959807.906    22959807.5304   22959811.6414  120654615.119 6  94016604.13643
      2103.620        1639.192
 06  4 30  5 22  0.0000000  0 12G 3G 7G 8G10G15G16G18G19G21G26G27G29
  21486997.098    21486996.7574   21487000.5414  112914933.783 8  87985683.16045
      1912.960        1490.620
  21261782.995    21261782.4424   21261787.2084  111731423.154 8  87063465.33146
     -1485.265       -1157.352
  23373436.653    23373436.2094   23373440.4714  122828256.531 6  95710356.00843
      2598.669        2024.940
  23479314.676    23479314.6274   23479320.1944  123384625.821 6  96143882.44543
     -3274.102       -2551.237
  21108704.968    21108704.3504   21108708.5524  110926998.829 8  86436640.06246
      1810.022        1410.407
  22469913.600    22469913.4504   22469916.6914  118080190.178 7  92010556.52244
     -2915.891       -2272.122
  23674344.102    23674343.5474   23674348.4404  124409525.924 6  96942510.08643
      3217.558        2507.181
  24188801.094    24188800.1924   24188803.2704  127113012.125 5  99049114.85143
      3535.670        2755.055
  21051169.619    21051169.1854   21051171.6224  110624643.673 8  86201039.72546
      -173.373        -135.096
  23255634.235    23255634.1414   23255638.8904  122209206.232 5  95227969.81742
      3027.653        2359.208
  22871957.385    22871957.1184   22871961.3254  120192951.244 7  93656865.38844
       464.962         362.303
  22947846.928    22947846.5044   22947850.7364  120591758.893 6  93967625.32443
      2086.636        1625.952
 06  4 30  5 22 30.0000000  0 12G 3G 7G 8G10G15G16G18G19G21G26G27G29
  21476126.167    21476125.7914   21476129.6644  112857807.241 7  87941168.95245
      1895.476        1476.998
  21270310.251    21270309.8654   21270314.4944  111776234.779 8  87098383.48446
     -1502.153       -1170.507
  23358644.721    23358644.5184   23358649.8284  122750528.322 6  95649788.58543
      2583.107        2012.814
  23498041.725    23498041.6174   23498047.3844  123483035.515 6  96220565.18742
     -3286.575       -2560.962
  21098423.736    21098423.1424   21098427.3434  110872970.691 8  86394540.23446
      1791.797        1396.205
  22486599.313    22486598.7784   22486602.0554  118167871.907 7  92078879.93844
     -2929.536       -2282.754
  23656002.085    23656001.7334   23656005.2454  124313138.913 6  96867403.36243
      3208.233        2499.917
  24168633.454    24168632.5474   24168635.0084  127007030.412 6  98966531.68643
      3529.745        2750.457
  21052216.391    21052215.8594   21052218.5384  110630144.714 8  86205326.26946
      -193.375        -150.680
  23238394.352    23238393.8384   23238399.0094  122118607.331 5  95157373.35242
      3012.232        2347.188
  22869355.067    22869354.7394   22869359.1914  120179276.815 6  93646210.01644
       446.655         348.041
  22935981.739    22935981.4854   22935985.9624  120529408.827 6  93919040.89343
      2069.968        1612.962
 06  4 30  5 23  0.0000000  0 12G 3G 7G 8G10G15G16G18G19G21G26G27G29
  21465355.014    21465354.7394   21465358.5004  112801204.148 7  87897062.64245
      1878.052        1463.419
  21278933.710    21278933.1394   21278937.7054  111821550.484 8  87133694.41946
     -1518.880       -1183.542
  23343942.118    23343942.4754   23343947.0614  122673266.707 6  95589584.77743
      2567.597        2000.707
  23516839.691    23516838.6434   23516844.2604  123581815.507 6  96297536.42143
     -3298.754       -2570.439
  21088246.384    21088245.7084   21088249.8564  110819488.094 8  86352865.48846
      1773.675        1382.085
  22503361.821    22503361.4294   22503364.2854  118255959.750 7  92147519.79944
     -2942.960       -2293.217
  23637712.965    23637712.4674   23637716.4054  124217030.590 6  96792513.79343
      3198.977        2492.707
  24148499.502    24148498.3654   24148500.8304  126901224.384 6  98884085.47443
      3523.971        2745.938
  21053377.015    21053376.4414   21053379.2934  110636244.173 8  86210079.09346
      -213.235        -166.156
  23221241.978    23221241.9744   23221246.9134  122028470.629 6  95087137.00242
      2996.875        2335.233
  22866856.950    22866856.7704   22866861.2714  120166150.020 6  93635981.32144
       428.438         333.843
  22924211.410    22924211.2554   22924215.3184  120467556.317 6  93870844.17143
      2053.505        1600.125
 06  4 30  5 23 30.0000000  0 12G 3G 7G 8G10G15G16G18G19G21G26G27G29
  21454684.311    21454684.0194   21454687.7394  112745129.518 7  87853368.15945
      1860.443        1449.693
  21287653.193    21287652.6294   21287657.2974  111867372.011 8  87169399.48646
     -1535.687       -1196.639
  23329330.544    23329329.6284   23329334.7474  122596477.330 6  95529748.97043
      2551.809        1988.418
  23535707.728    23535706.7314   23535712.5494  123680965.971 6  96374796.33742
     -3311.106       -2580.079
  21078173.663    21078172.9474   21078177.3834  110766555.784 8  86311619.52646
      1755.302        1367.768
  22520201.722    22520201.4234   22520204.4414  118344454.313 7  92216476.56944
     -2956.510       -2303.770
  23619478.297    23619477.8984   23619481.9924  124121206.219 6  96717845.49943
      3189.471        2485.302
  24128399.196    24128398.0934   24128400.6814  126795598.920 5  98801779.94343
      3517.921        2741.246
  21054652.189    21054651.7184   21054654.3104  110642944.992 8  86215300.50246
      -233.297        -181.789
  23204177.964    23204178.5504   23204182.9324  121938802.402 6  95017265.71242
      2981.259        2323.056
  22864464.302    22864463.8344   22864468.0524  120153574.841 7  93626182.51944
       410.118         319.565
  22912536.798    22912536.8824   22912540.8484  120406206.778 6  93823039.36843
      2036.707        1587.045
 06  4 30  5 24  0.0000000  0 12G 3G 7G 8G10G15G16G18G19G21G26G27G29
  21444115.219    21444114.7624   21444118.8124  112689588.541 7  87810089.48745
      1842.458        1435.686
  21296469.591    21296468.9934   21296473.5334  111913702.023 8  87205500.77546
     -1552.801       -1209.972
  23314809.084    23314808.1734   23314813.1984  122520166.581 6  95470286.03343
      2535.705        1975.878
  23554646.037    23554645.2554   23554650.9694  123780488.356 6  96452346.22143
     -3323.596       -2589.812
  21068206.745    21068206.0074   21068210.6084  110714179.412 8  86270806.76846
      1736.603        1353.199
  22537119.161    22537118.8634   22537122.0104  118433356.785 7  92285751.20144
     -2970.239       -2314.472
  23601299.006    23601298.8324   23601303.1104  124025672.590 6  96643403.74943
      3179.576        2477.603
  24108334.995    24108333.9614   24108336.5494  126690159.874 6  98719619.61143
      3511.482        2736.232
  21056042.567    21056042.1024   21056044.5954  110650250.931 8  86220993.42546
      -253.652        -197.645
  23187205.221    23187205.3004   23187210.1614  121849609.592 5  94947764.85842
      2965.117        2310.483
  22862177.061    22862176.7014   22862181.1634  120141555.339 6  93616816.66044
       391.403         304.997
  22900958.896    22900959.3294   22900963.4634  120345365.777 6  93775630.83643
      2019.498        1573.636
 06  4 30  5 24 30.0000000  0 12G 3G 7G 8G10G15G16G18G19G21G26G27G29
  21433648.033    21433647.6414   21433651.4504  112634583.343 8  87767228.29945
      1824.750        1421.878
  21305382.453    21305381.9204   21305386.2954  111960539.716 8  87241997.66746
     -1569.534       -1223.007
  23300378.466    23300378.4164   23300383.7774  122444337.841 6  95411198.77443
      2519.771        1963.464
  23573654.231    23573653.3554   23573659.0244  123880379.873 5  96530183.87142
     -3335.624       -2599.182
  21058345.902    21058345.2404   21058349.9164  110662361.094 8  86230428.87046
      1718.114        1338.790
  22554114.143    22554113.7504   22554116.9434  118522665.361 7  92355342.27644
     -2983.495       -2324.802
  23583175.428    23583174.8764   23583178.6824  123930432.643 6  96569190.86943
      3169.892        2470.050
  24088306.372    24088305.6814   24088309.3154  126584909.665 6  98637606.46443
      3505.343        2731.436
  21057547.987    21057547.4134   21057550.2974  110658162.461 8  86227158.25046
      -273.609        -213.202
  23170323.163    23170323.4674   23170329.3524  121760895.632 5  94878637.16042
      2949.336        2298.184
  22859995.512    22859995.0744   22859999.7184  120130092.498 7  93607884.59044
       372.980         290.633
  22889479.182    22889478.8954   22889482.9134  120285036.129 6  93728620.77143
      2002.629        1560.492
 06  4 30  5 25  0.0000000  0 12G 3G 7G 8G10G15G16G18G19G21G26G27G29
  21423282.685    21423282.3324   21423286.1194  112580113.108 8  87724783.96245
      1806.646        1407.777
  21314391.125    21314390.6774   21314394.9764  112007881.213 8  87278887.14846
     -1586.568       -1236.287
  23286040.170    23286040.4354   23286045.5434  122368990.625 6  95352486.70543
      2503.376        1950.678
  23592732.605    23592731.6334   23592736.6854  123980634.569 5  96608304.44142
     -3347.990       -2608.822
  21048591.469    21048590.6984   21048595.0054  110611099.823 8  86190485.04346
      1699.288        1324.118
  22571185.396    22571184.6904   22571188.4454  118612374.804 7  92425245.71344
     -2997.073       -2335.386
  23565107.524    23565107.0464   23565111.0884  123835485.892 6  96495206.43343
      3159.821        2462.204
  24068313.984    24068313.0634   24068315.5694  126479848.029 6  98555740.23843
      3498.726        2726.288
  21059168.190    21059167.7534   21059170.4794  110666676.863 8  86233792.86746
      -293.987        -229.082
  23153533.093    23153533.5934   23153537.9834  121672661.141 6  94809883.09542
      2932.974        2285.415
  22857919.755    22857919.6584   22857923.9444  120119184.334 7  93599384.75644
       354.225         276.010
  22878096.020    22878095.8114   22878099.7224  120225217.132 6  93682008.59843
      1985.265        1546.959
 06  4 30  5 25 30.0000000  0 12G 3G 7G 8G10G15G16G18G19G21G26G27G29
  21413021.077    21413020.7364   21413024.7384  112526188.237 8  87682764.59645
      1788.385        1393.541
  21323497.292    21323496.7754   21323501.1794  112055734.172 7  87316175.17446
     -1603.625       -1249.576
  23271796.489    23271796.2104   23271800.3724  122294136.679 6  95294159.02943
      2486.944        1937.869
  23611880.752    23611879.4204   23611885.1494  124081258.270 5  96686712.47542
     -3360.160       -2618.301
  21038944.590    21038943.9644   21038948.1914  110560406.068 8  86150983.43346
      1680.314        1309.338
  22588333.898    22588333.5254   22588336.8244  118702491.419 7  92495466.44144
     -3010.659       -2345.969
  23547097.717    23547097.3354   23547101.6594  123740843.848 6  96421459.42743
      3149.601        2454.232
  24048359.238    24048358.2964   24048361.0874  126374985.878 6  98474029.47343
      3492.038        2721.051
  21060904.808    21060904.3934   21060906.8774  110675802.369 8  86240903.66146
      -314.373        -244.964
  23136835.770    23136836.0484   23136840.5884  121584918.056 5  94741511.89642
      2916.541        2272.634
  22855951.309    22855951.1774   22855955.2684  120108839.728 6  93591324.01444
       335.393         261.344
  22866811.886    22866811.4714   22866815.8684  120165919.720 6  93635802.89043
      1967.859        1533.388
 06  4 30  5 26  0.0000000  0 12G 3G 7G 8G10G15G16G18G19G21G26G27G29
  21402863.536    21402863.0274   21402867.0604  112472809.867 8  87641171.08145
      1770.088        1379.291
  21332700.491    21332699.8354   21332704.3374  112104096.760 8  87353860.30046
     -1620.639       -1262.840
  23257645.923    23257646.2274   23257650.9554  122219777.812 6  95236217.03343
      2470.280        1924.891
  23631099.401    23631097.7004   23631103.1274  124182248.003 6  96765405.77742
     -3372.513       -2627.930
  21029406.096    21029405.3714   21029409.7244  110510280.932 8  86111924.89146
      1661.297        1294.517
  22605559.814    22605559.0814   22605562.4974  118793012.427 7  92566002.27944
     -3024.143       -2356.474
  23529146.205    23529145.8864   23529149.8024  123646508.414 6  96347951.32543
      3139.317        2446.214
  24028443.277    24028442.5694   24028444.9154  126270324.810 6  98392475.40543
      3485.257        2715.781
  21062757.426    21062756.8764   21062759.3954  110685537.920 8  86248489.79546
      -334.758        -260.850
  23120232.314    23120232.6444   23120237.3214  121497669.006 5  94673525.66442
      2899.930        2259.682
  22854089.780    22854089.6644   22854094.0364  120099058.808 6  93583702.51644
       316.559         246.668
  22855626.915    22855627.3364   22855631.4654  120107145.542 6  93590004.86043
      1950.358        1519.763
 06  4 30  5 26 30.0000000  0 12G 3G 7G 8G10G15G16G18G19G21G26G27G29
  21392810.160    21392809.9154   21392814.1124  112419980.065 8  87600005.02045
      1751.764        1365.007
  21342000.314    21341999.7334   21342004.3264  112152968.026 8  87391941.78946
     -1637.597       -1276.050
  23243590.971    23243590.9404   23243595.5764  122145916.990 6  95178663.17343
      2453.629        1911.922
  23650385.838    23650384.2524   23650390.1084  124283600.882 6  96844382.01642
     -3384.466       -2637.231
  21019976.304    21019975.4844   21019979.8754  110460726.182 8  86073310.79446
      1642.217        1279.653
  22622861.710    22622861.3034   22622864.1144  118883935.502 7  92636851.39744
     -3037.513       -2366.896
  23511253.675    23511253.2434   23511256.9634  123552482.495 6  96274684.39743
      3128.924        2438.122
  24008565.396    24008564.5144   24008566.8384  126165867.229 6  98311079.94643
      3478.395        2710.445
  21064726.239    21064725.7884   21064728.3764  110695884.091 8  86256551.73746
      -355.147        -276.738
  23103724.814    23103724.5794   23103729.6904  121410917.469 5  94605927.09942
      2883.255        2246.702
  22852336.272    22852335.9064   22852340.4504  120089842.388 6  93576520.89644
       297.709         231.984
  22844543.208    22844542.8734   22844546.8674  120048896.772 6  93544616.24343
      1932.777        1506.058
 06  4 30  5 27  0.0000000  0 12G 3G 7G 8G10G15G16G18G19G21G26G27G29
  21382861.808    21382861.3964   21382865.4644  112367700.440 8  87559267.66845
      1733.208        1350.554
  21351396.827    21351396.1364   21351400.7824  112202346.582 8  87430418.57246
     -1654.650       -1289.333
  23229631.549    23229630.9084   23229635.6864  122072556.871 6  95121499.56443
      2436.743        1898.759
  23669740.709    23669739.9234   23669744.9324  124385313.958 6  96923638.91142
     -3396.559       -2646.694
  21010655.118    21010654.4684   21010658.7264  110411743.512 8  86035142.47546
      1622.938        1264.626
  22640239.964    22640239.3684   22640242.2214  118975258.350 7  92708012.03244
     -3050.995       -2377.406
  23493420.389    23493420.1684   23493423.9834  123458768.599 6  96201660.62343
      3118.321        2429.862
  23988726.561    23988725.7964   23988727.8034  126061615.163 5  98229844.67843
      3471.355        2704.960
  21066811.273    21066810.6964   21066813.3314  110706840.519 8  86265089.21446
      -375.634        -292.699
  23087311.978    23087311.7654   23087316.5184  121324666.474 6  94538718.58142
      2866.435        2233.595
  22850690.074    22850689.7764   22850694.0104  120081190.722 7  93569779.33944
       278.708         217.174
  22833559.267    22833559.1824   22833562.8534  119991175.627 6  93499638.77843
      1915.022        1492.226
 06  4 30  5 27 30.0000000  0 12G 3G 7G 8G10G15G16G18G19G21G26G27G29
  21373018.872    21373018.5624   21373022.5364  112315975.627 8  87518962.63445
      1714.897        1336.277
  21360890.005    21360889.4904   21360894.0314  112252234.432 8  87469292.20846
     -1671.417       -1302.401
  23215767.186    23215767.1664   23215771.5474  121999702.934 6  95064730.37243
      2419.994        1885.701
  23689164.104    23689163.4574   23689168.8584  124487387.269 6  97003176.45242
     -3408.480       -2655.942
  21001443.599    21001443.0464   21001447.2864  110363337.474 8  85997423.49746
      1603.911        1249.797
  22657693.935    22657693.6664   22657696.7004  119066981.113 7  92779484.28944
     -3064.065       -2387.584
  23475647.661    23475646.9294   23475651.4664  123365372.185 6  96128884.25843
      3107.906        2421.755
  23968928.338    23968927.2804   23968929.1544  125957573.675 6  98148773.40843
      3464.531        2699.629
  21069012.808    21069012.1844   21069014.8974  110718409.768 8  86274104.20946
      -395.805        -308.418
  23070995.822    23070995.5604   23070999.7464  121238922.083 5  94471904.79542
      2849.652        2220.500
  22849151.321    22849151.3924   22849155.6084  120073107.153 6  93563480.46044
       259.951         202.558
  22822676.467    22822676.1834   22822680.1004  119933986.748 5  93455076.06043
      1897.371        1478.464
 06  4 30  5 28  0.0000000  0 12G 3G 7G 8G10G15G16G18G19G21G26G27G29
  21363282.114    21363281.7514   21363285.8144  112264808.446 7  87479092.11146
      1696.245        1321.743
  21370480.290    21370479.7024   21370484.3504  112302631.092 8  87508562.32046
     -1688.408       -1315.642
  23202000.500    23202000.0624   23202005.2954  121927358.601 6  95008358.17843
      2402.922        1872.409
  23708656.480    23708655.8764   23708661.4944  124589819.334 5  97082993.59742
     -3420.472       -2665.295
  20992342.644    20992342.0924   20992346.3244  110315510.920 8  85960156.05246
      1584.510        1234.678
  22675224.094    22675223.7944   22675226.7734  119159102.325 7  92851267.02544
     -3077.359       -2397.938
  23457935.948    23457935.6084   23457939.3024  123272296.755 6  96056357.99443
      3097.123        2413.325
  23949170.565    23949169.6894   23949172.4874  125853746.100 6  98067868.78543
      3457.265        2693.969
  21071331.092    21071330.5414   21071333.1344  110730592.391 8  86283597.16946
      -416.358        -324.437
  23054774.831    23054775.7444   23054780.8594  121153688.602 5  94405489.14542
      2832.498        2207.135
  22847721.731    22847721.3354   22847725.5774  120065593.092 7  93557625.35344
       240.958         187.754
  22811895.509    22811895.0334   22811899.3524  119877333.524 6  93410930.72643
      1879.452        1464.515
 06  4 30  5 28 30.0000000  0 12G 3G 7G 8G10G15G16G18G19G21G26G27G29
  21353650.990    21353650.7404   21353654.7724  112214197.003 8  87439654.62345
      1677.683        1307.286
  21380166.368    21380165.9484   21380170.5664  112353531.959 8  87548225.31646
     -1705.167       -1328.701
  23188331.345    23188330.7154   23188335.3654  121855523.356 6  94952382.64243
      2385.901        1859.141
  23728214.905    23728214.9974   23728220.5564  124692603.432 5  97163084.97842
     -3432.003       -2674.270
  20983351.461    20983350.7834   20983355.0904  110268261.905 8  85923338.64046
      1565.244        1219.678
  22692829.000    22692828.4274   22692831.9164  119251616.468 6  92923355.92544
     -3090.401       -2408.102
  23440284.843    23440284.9864   23440288.8614  123179541.376 6  95984081.12443
      3086.391        2404.976
  23929453.607    23929452.2604   23929454.3294  125750131.209 6  97987129.92043
      3450.149        2688.423
  21073765.516    21073764.9904   21073767.6754  110743385.309 8  86293565.66946
      -436.682        -340.275
  23038653.849    23038653.4754   23038658.6904  121068965.736 5  94339471.36742
      2815.409        2193.815
  22846400.151    22846399.4204   22846403.7854  120058645.712 7  93552211.80044
       222.045         173.030
  22801216.606    22801216.1914   22801220.2264  119821214.505 6  93367201.64843
      1861.639        1450.630
 06  4 30  5 29  0.0000000  0 12G 3G 7G 8G10G15G16G18G19G21G26G27G29
  21344125.954    21344125.4244   21344129.4414  112164141.603 8  87400650.41746
      1659.405        1293.044
  21389948.096    21389947.6114   21389952.2324  112404934.493 8  87588279.21646
     -1721.564       -1341.478
  23174758.577    23174757.9484   23174762.3254  121784198.071 6  94896804.60043
      2369.182        1846.116
  23747840.813    23747840.4444   23747846.7494  124795735.951 6  97243447.91242
     -3443.367       -2683.149
  20974470.085    20974469.4174   20974473.8734  110221590.583 8  85886971.37546
      1546.292        1204.898
  22710507.884    22710507.3234   22710511.0474  119344519.744 6  92995748.04044
     -3103.018       -2417.936
  23422695.488    23422695.3234   23422699.7674  123087107.462 6  95912054.74043
      3075.942        2396.844
  23909776.354    23909775.6954   23909777.7924  125646729.732 6  97906557.35143
      3443.302        2683.099
  21076315.650    21076315.1034   21076317.6354  110756786.339 8  86304008.02046
      -456.619        -355.810
  23022628.857    23022628.9544   23022633.8384  120984755.245 6  94273852.83742
      2798.599        2180.719
  22845185.344    22845184.9864   22845189.3714  120052264.053 6  93547239.06644
       203.495         158.563
  22790639.577    22790639.1304   22790642.7714  119765630.377 6  93323889.36343
      1844.123        1436.985
 06  4 30  5 29 30.0000000  0 12G 3G 7G 8G10G15G16G18G19G21G26G27G29
  21334706.681    21334706.4834   21334710.5334  112114644.465 7  87362081.21646
      1640.722        1278.488
  21399824.926    21399824.4554   21399829.1034  112456837.961 8  87628723.45846
     -1738.315       -1354.527
  23161282.694    23161282.6614   23161287.0464  121713386.306 6  94841626.59943
      2351.948        1832.688
  23767533.294    23767531.5264   23767538.4024  124899214.256 6  97324080.30942
     -3454.777       -2692.024
  20965699.292    20965698.6554   20965702.8524  110175499.073 8  85851055.90446
      1526.858        1189.762
  22728260.286    22728260.2134   22728263.4284  119437810.225 7  93068441.87144
     -3115.966       -2428.011
  23405167.278    23405166.9154   23405171.2204  122994997.809 6  95840281.02843
      3064.998        2388.315
  23890141.322    23890140.1624   23890142.7484  125543544.852 6  97826153.62443
      3435.981        2677.404
  21078981.536    21078981.0204   21078983.5864  110770795.860 8  86314924.51946
      -476.977        -371.664
  23006701.741    23006701.8334   23006706.6314  120901060.754 5  94208636.38942
      2781.335        2167.281
  22844078.834    22844078.3604   22844082.7484  120046449.028 6  93542707.88644
       184.541         143.798
  22780164.588    22780164.0564   22780168.2544  119710583.620 6  93280995.81243
      1826.023        1422.871
 06  4 30  5 30  0.0000000  0 12G 3G 7G 8G10G15G16G18G19G21G26G27G29
  21325393.563    21325393.1764   21325397.2754  112065702.764 7  87323944.81946
      1622.054        1263.940
  21409796.030    21409795.3884   21409800.1594  112509236.403 8  87669553.40846
     -1754.918       -1367.468
  23147904.796    23147904.6434   23147909.9684  121643085.713 6  94786846.92643
      2334.783        1819.312
  23787288.944    23787287.4164   23787293.4144  125003031.170 6  97404976.57842
     -3466.211       -2700.931
  20957038.171    20957037.4954   20957041.8054  110129984.581 8  85815590.07146
      1507.482        1174.663
  22746085.634    22746085.0984   22746088.4104  119531480.679 6  93141431.81944
     -3128.729       -2437.979
  23387700.831    23387700.5224   23387704.6434  122903210.450 6  95768758.47143
      3054.093        2379.816
  23870546.802    23870545.7644   23870547.7314  125440573.672 6  97745916.40643
      3428.763        2671.767
  21081762.272    21081761.7724   21081764.3814  110785408.841 8  86326311.25246
      -497.230        -387.451
  22990873.094    22990872.8934   22990877.7834  120817880.814 6  94143820.90842
      2763.958        2153.730
  22843079.325    22843079.0164   22843083.3254  120041196.334 7  93538614.88944
       165.686         129.106
  22769790.865    22769790.5174   22769794.8504  119656071.689 6  93238519.01543
      1808.072        1408.886
 06  4 30  5 30 30.0000000  0 12G 3G 7G 8G10G15G16G18G19G21G26G27G29
  21316187.463    21316187.1814   21316191.3064  112017325.013 7  87286247.88145
      1603.101        1249.173
  21419862.417    21419861.8464   21419866.4204  112562135.473 8  87710773.44346
     -1771.703       -1380.546
  23134626.220    23134625.8324   23134631.5544  121573305.949 6  94732473.10843
      2317.146        1805.583
  23807109.773    23807108.3674   23807114.2604  125107190.211 6  97486139.42142
     -3477.726       -2709.930
  20948488.337    20948487.6104   20948492.0664  110085055.610 8  85780580.48246
      1487.778        1159.313
  22763983.567    22763983.2774   22763986.2144  119625535.527 7  93214721.29744
     -3141.655       -2448.040
  23370297.439    23370296.9424   23370300.9724  122811755.208 6  95697494.67343
      3042.848        2371.054
  23850994.051    23850992.9814   23850995.4664  125337825.377 6  97665852.82743
      3421.116        2665.814
  21084659.115    21084658.6614   21084661.1824  110800632.113 8  86338173.53346
      -517.716        -403.412
  22975145.158    22975145.2074   22975149.4974  120735225.432 6  94079414.15442
      2746.285        2139.955
  22842188.376    22842187.9214   22842192.3844  120036513.204 7  93534965.68744
       146.496         114.159
  22759520.394    22759520.7024   22759524.7594  119602103.563 6  93196465.95143
      1789.761        1394.623
 06  4 30  5 31  0.0000000  0 12G 3G 7G 8G10G15G16G18G19G21G26G27G29
  21307088.737    21307088.2554   21307092.4434  111969510.497 8  87248989.81746
      1584.569        1234.732
  21430023.435    21430022.8294   21430027.5044  112615531.647 8  87752380.82446
     -1787.990       -1393.241
  23121447.755    23121446.8364   23121451.4164  121504047.401 6  94678505.47843
      2300.023        1792.223
  23826994.263    23826993.1274   23826998.9774  125211686.087 5  97567564.67342
     -3488.594       -2718.375
  20940049.844    20940049.1394   20940053.7754  110040711.415 8  85746026.55246
      1468.522        1144.303
  22781954.068    22781953.4284   22781956.6464  119719970.312 7  93288306.81144
     -3154.006       -2457.665
  23352957.490    23352957.1044   23352960.7294  122720631.668 6  95626489.34243
      3032.025        2362.627
  23831484.491    23831483.2484   23831485.7564  125235300.158 6  97585963.10143
      3413.908        2660.184
  21087671.511    21087671.0714   21087673.7904  110816462.786 8  86350509.09946
      -537.679        -418.969
  22959515.538    22959516.1484   22959520.3154  120653095.488 5  94015416.82242
      2728.969        2126.483
  22841404.883    22841404.3764   22841408.8154  120032397.719 6  93531758.81544
       127.854          99.620
  22749354.302    22749353.9324   22749358.7424  119548678.622 6  93154836.11643
      1771.857        1380.678
 06  4 30  5 31 30.0000000  0 12G 3G 7G 8G10G15G16G18G19G21G26G27G29
  21298096.674    21298096.3244   21298100.2844  111922257.518 8  87212169.31645
      1565.749        1220.061
  21440277.996    21440277.5554   21440281.9274  112669420.192 8  87794371.88546
     -1804.457       -1406.070
  23108367.129    23108366.3004   23108370.9624  121435309.068 6  94624943.21743
      2282.592        1778.637
  23846941.642    23846940.7494   23846947.2354  125316512.938 6  97649247.84042
     -3499.641       -2726.995
  20931722.423    20931721.7564   20931726.3464  109996950.150 8  85711926.86646
      1448.965        1129.060
  22799995.297    22799994.8164   22799998.4674  119814778.790 7  93362183.51144
     -3166.440       -2467.362
  23335680.025    23335679.6854   23335683.6274  122629839.184 6  95555741.99343
      3020.903        2353.950
  23812016.300    23812015.3434   23812017.6094  125132996.491 6  97506246.03043
      3406.430        2654.361
  21090799.153    21090798.5164   21090801.3124  110832897.416 8  86363315.29646
      -557.838        -434.679
  22943986.516    22943986.8034   22943991.9464  120571490.748 6  93951828.79143
      2711.342        2112.726
  22840729.175    22840728.8024   22840732.7314  120028846.502 7  93528991.62144
       109.018          84.947
  22739291.343    22739291.0274   22739295.1774  119495795.838 6  93113628.76943
      1753.701        1366.513
 06  4 30  5 32  0.0000000  0 12G 3G 7G 8G10G15G16G18G19G21G26G27G29
  21289212.536    21289212.1894   21289215.9554  111875570.307 8  87175789.68246
      1546.619        1205.158
  21450626.733    21450626.1204   21450630.7364  112723802.661 8  87836747.83946
     -1821.158       -1419.085
  23095386.348    23095385.6154   23095390.8274  121367096.118 6  94571790.32143
      2264.754        1764.737
  23866953.216    23866952.5464   23866958.5484  125421670.913 6  97731189.07242
     -3510.893       -2735.761
  20923506.761    20923506.1074   20923510.4454  109953776.090 8  85678284.75746
      1429.161        1113.630
  22818108.250    22818107.4544   22818111.2444  119909961.589 7  93436351.90444
     -3179.118       -2477.240
  23318466.800    23318466.5684   23318470.2334  122539383.512 6  95485257.10843
      3009.371        2344.958
  23792591.823    23792590.7074   23792593.0484  125030919.446 6  97426705.47043
      3398.575        2648.254
  21094041.728    21094041.2754   21094044.0914  110849938.273 8  86376593.89346
      -578.309        -450.633
  22928559.460    22928558.9964   22928563.3524  120490417.040 6  93888654.55142
      2693.389        2098.744
  22840161.642    22840161.1284   22840165.0614  120025863.004 7  93526666.85644
        89.814          69.989
  22729331.942    22729331.7014   22729336.0504  119443459.681 6  93072847.37143
      1735.239        1352.132
 06  4 30  5 32 30.0000000  0 12G 3G 7G 8G10G15G16G18G19G21G26G27G29
  21280435.806    21280435.3424   21280439.3624  111829448.651 7  87139850.73846
      1527.775        1190.474
  21461068.483    21461068.0974   21461072.8004  112778675.922 8  87879506.23046
     -1837.445       -1431.774
  23082505.396    23082505.0434   23082510.5854  121299409.755 6  94519047.72443
      2247.222        1751.078
  23887025.869    23887025.3994   23887031.3784  125527155.304 6  97813384.64442
     -3521.733       -2744.201
  20915402.701    20915402.0474   20915406.4454  109911189.029 8  85645100.05346
      1409.606        1098.390
  22836291.379    22836291.2384   22836294.3534  120005514.794 7  93510808.93044
     -3191.434       -2486.829
  23301317.582    23301317.5094   23301320.9024  122449265.078 6  95415034.98343
      2998.110        2336.186
  23773210.238    23773209.0944   23773211.7584  124929069.698 6  97347342.06143
      3391.038        2642.375
  21097399.607    21097399.0194   21097401.5114  110867583.213 8  86390343.19746
      -598.392        -466.279
  22913232.756    22913232.6394   22913236.8344  120409875.635 6  93825895.09543
      2675.629        2084.910
  22839701.132    22839701.0254   22839705.4524  120023445.495 7  93524783.09744
        70.986          55.313
  22719476.769    22719476.4134   22719481.1004  119391670.680 6  93032492.34343
      1717.026        1337.938
 06  4 30  5 33  0.0000000  0 12G 3G 7G 8G10G15G16G18G19G21G26G27G29
  21271767.331    21271767.0294   21271770.9454  111783895.331 8  87104354.64646
      1509.161        1175.974
  21471603.939    21471603.4684   21471608.1844  112834040.019 8  87922647.07946
     -1853.469       -1444.260
  23069726.357    23069726.2004   23069730.8964  121232253.612 6  94466718.27043
      2229.856        1737.549
  23907161.044    23907160.2324   23907166.3844  125632964.506 6  97895833.31242
     -3532.198       -2752.363
  20907410.863    20907410.1374   20907414.5604  109869191.839 8  85612374.97946
      1390.261        1083.319
  22854544.540    22854543.9204   22854547.7134  120101436.528 7  93585553.10544
     -3203.319       -2496.082
  23284233.922    23284233.3754   23284237.5664  122359487.887 6  95345078.79043
      2987.014        2327.555
  23753873.035    23753871.5934   23753874.3524  124827450.691 6  97268158.43943
      3383.566        2636.542
  21100872.288    21100871.8524   21100874.5334  110885832.720 8  86404563.58446
      -618.196        -481.708
  22898007.904    22898008.3194   22898012.9974  120329871.029 6  93763553.92143
      2658.043        2071.208
  22839349.321    22839349.0824   22839353.3694  120021595.706 7  93523341.67744
        52.382          40.820
  22709726.271    22709726.0414   22709730.3694  119340431.737 6  92992565.90443
      1698.962        1323.871
 06  4 30  5 33 30.0000000  0 12G 3G 7G 8G10G15G16G18G19G21G26G27G29
  21263206.004    21263205.6994   21263209.4714  111738905.014 7  87069297.25346
      1490.375        1161.335
  21482231.163    21482230.7504   21482235.4464  112889886.314 8  87966163.65646
     -1869.468       -1456.728
  23057047.094    23057046.8014   23057051.1914  121165622.644 6  94414798.03343
      2212.351        1723.913
  23927355.804    23927355.1424   23927361.2094  125739088.607 5  97978527.34542
     -3542.587       -2760.453
  20899530.287    20899529.5704   20899533.9564  109827778.634 8  85580104.94946
      1370.786        1068.146
  22872866.071    22872865.9124   22872869.4474  120197717.537 6  93660577.23744
     -3215.229       -2505.383
  23267213.665    23267213.5684   23267217.3264  122270047.406 6  95275384.95843
      2975.816        2318.823
  23734578.319    23734577.6764   23734579.1324  124726057.611 6  97189150.87743
      3376.167        2630.775
  21104458.492    21104458.0904   21104461.0364  110904679.368 8  86419249.27546
      -638.078        -497.205
  22882885.352    22882884.6014   22882890.1384  120250398.945 6  93701627.68843
      2640.246        2057.337
  22839104.251    22839103.7774   22839107.7294  120020306.690 6  93522337.24544
        33.724          26.277
  22700079.417    22700079.3834   22700083.2314  119289737.618 6  92953063.99143
      1680.791        1309.714
 06  4 30  5 34  0.0000000  0 12G 3G 7G 8G10G15G16G18G19G21G26G27G29
  21254752.891    21254752.5024   21254756.5694  111694483.723 8  87034683.24446
      1470.862        1146.126
  21492950.848    21492950.3544   21492954.8964  112946217.784 8  88010058.29546
     -1886.109       -1469.697
  23044468.477    23044468.3084   23044473.3044  121099524.031 6  94363292.66743
      2194.062        1709.653
  23947611.317    23947609.1704   23947616.5544  125845529.064 5  98061467.87542
     -3553.603       -2769.031
  20891761.626    20891761.0894   20891765.5234  109786955.385 8  85548294.62546
      1350.604        1052.417
  22891257.089    22891256.5644   22891259.9624  120294359.890 7  93735882.91244
     -3227.720       -2515.106
  23250259.115    23250259.1654   23250262.9204  122180950.390 6  95205958.75943
      2963.841        2309.474
  23715328.005    23715327.1914   23715329.2474  124624897.047 6  97110324.51943
      3367.727        2624.192
  21108159.530    21108159.0594   21108161.5354  110924127.269 8  86434403.48046
      -658.633        -513.221
  22867864.266    22867864.2934   22867869.8344  120171466.739 6  93640122.14143
      2621.756        2042.942
  22838966.084    22838965.8954   22838970.3084  120019582.670 7  93521773.08044
        14.395          11.212
  22690537.455    22690537.2994   22690541.7434  119239594.624 6  92913991.56543
      1661.877        1294.968
 06  4 30  5 34 30.0000000  0 12G 3G 7G 8G10G15G16G18G19G21G26G27G29
  21246409.135    21246408.8134   21246412.8394  111650637.215 8  87000517.12346
      1452.111        1131.515
  21503763.347    21503762.8494   21503767.3104  113003037.437 8  88054333.31246
     -1901.944       -1482.031
  23031992.906    23031992.4764   23031997.3034  121033964.321 6  94312207.19743
      2176.482        1695.951
  23967925.565    23967925.3524   23967930.9944  125952287.294 6  98144656.01642
     -3563.689       -2776.897
  20884106.892    20884106.0544   20884110.4514  109746728.029 8  85516948.62646
      1331.147        1037.260
  22909716.447    22909716.1264   22909719.5414  120391365.072 6  93811471.30044
     -3239.363       -2524.169
  23233371.425    23233370.8474   23233374.4864  122092203.470 6  95136805.34643
      2952.501        2300.635
  23696123.784    23696122.6624   23696124.7284  124523975.512 6  97031684.38643
      3360.224        2618.351
  21111975.596    21111974.9944   21111977.5634  110944180.198 8  86450029.12346
      -678.345        -528.579
  22852947.883    22852947.7634   22852953.8444  120093081.843 6  93579043.06543
      2603.866        2028.975
  22838936.919    22838936.6814   22838941.0354  120019428.701 7  93521653.07244
        -4.231          -3.295
  22681101.887    22681101.4634   22681105.8564  119190009.125 6  92875353.50743
      1643.650        1280.773
 06  4 30  5 35  0.0000000  0 12G 3G 7G 8G10G15G16G18G19G21G26G27G29
  21238175.429    21238174.9154   21238179.0904  111607367.954 8  86966800.81646
      1432.855        1116.512
  21514668.678    21514667.9914   21514672.6844  113060345.093 8  88098988.60646
     -1918.181       -1494.685
  23019621.368    23019620.3834   23019625.0394  120968947.202 6  94261544.51243
      2158.338        1681.827
  23988302.517    23988301.2854   23988306.7034  126059361.432 6  98228090.37542
     -3574.144       -2785.046
  20876565.612    20876564.9274   20876569.3694  109707098.757 8  85486068.67146
      1311.197        1021.714
  22928244.396    22928243.9024   22928247.7124  120488731.796 6  93887341.40243
     -3251.360       -2533.529
  23216550.636    23216550.3924   23216554.1094  122003810.317 6  95067927.59543
      2940.712        2291.469
  23676964.517    23676963.5564   23676965.9954  124423296.137 6  96953232.99843
      3352.142        2612.061
  21115906.545    21115906.1094   21115908.9034  110964838.545 8  86466126.53246
      -698.525        -544.306
  22838136.730    22838136.7244   22838141.5474  120015248.237 6  93518393.58743
      2585.465        2014.636
  22839016.266    22839016.1714   22839020.2734  120019845.850 7  93521978.14044
       -23.219         -18.090
  22671772.254    22671772.2714   22671776.5704  119140983.727 6  92837151.90843
      1625.011        1266.235
 06  4 30  5 35 30.0000000  0 12G 3G 7G 8G10G15G16G18G19G21G26G27G29
  21230049.345    21230048.9254   21230053.0064  111564665.468 8  86933526.15746
      1413.678        1101.569
  21525664.308    21525663.6144   21525668.4974  113118127.317 8  88144013.70446
     -1934.265       -1507.225
  23007350.367    23007349.5324   23007353.8124  120904463.718 6  94211297.69743
      2140.274        1667.735
  24008735.016    24008734.2574   24008740.1744  126166736.996 6  98311759.60142
     -3584.434       -2793.070
  20869136.249    20869135.5314   20869139.9464  109668057.094 8  85455646.60146
      1291.307        1006.212
  22946838.586    22946838.4964   22946842.0084  120586445.719 6  93963482.08643
     -3263.134       -2542.695
  23199795.181    23199795.2634   23199798.8304  121915761.719 6  94999318.35243
      2928.895        2282.265
  23657849.675    23657849.1644   23657851.3894  124322849.218 6  96874962.67743
      3344.036        2605.742
  21119950.564    21119950.1094   21119952.8024  110986090.227 8  86482686.28746
      -718.557        -559.915
  22823428.568    22823428.7724   22823433.5234  119937957.186 6  93458166.85443
      2566.990        2000.250
  22839202.124    22839201.8394   22839205.9454  120020822.313 7  93522739.02844
       -42.166         -32.858
  22662547.958    22662547.7654   22662552.3094  119092508.578 6  92799379.08143
      1606.360        1251.714
 06  4 30  5 36  0.0000000  0 12G 3G 7G 8G10G15G16G18G19G21G26G27G29
  21222032.890    21222032.4404   21222036.2544  111522538.082 8  86900699.63446
      1394.723        1086.801
  21536751.022    21536750.5534   21536755.4124  113176389.631 8  88189412.90446
     -1949.993       -1519.472
  22995182.209    22995181.9894   22995186.3844  120840522.715 6  94161473.57543
      2122.385        1653.810
  24029227.144    24029225.2294   24029231.2844  126274417.657 6  98395666.54142
     -3594.445       -2800.861
  20861820.344    20861819.5924   20861823.9544  109629611.383 8  85425688.92646
      1271.637         990.888
  22965500.158    22965499.7924   22965502.9904  120684511.266 6  94039896.78443
     -3274.596       -2551.639
  23183107.617    23183107.2934   23183110.8674  121828067.130 6  94930984.94843
      2917.317        2273.223
  23638781.915    23638780.8244   23638782.9084  124222644.261 6  96796880.92243
      3336.151        2599.601
  21124108.641    21124108.2904   21124110.9614  111007941.417 8  86499713.18546
      -738.274        -575.278
  22808825.326    22808826.1084   22808831.0144  119861218.338 6  93398370.39143
      2548.786        1986.065
  22839495.724    22839495.2874   22839499.7284  120022365.371 6  93523941.43344
       -60.825         -47.395
  22653430.153    22653429.5894   22653433.7924  119044592.189 6  92762041.64843
      1587.951        1237.364
 06  4 30  5 36 30.0000000  0 12G 3G 7G 8G10G15G16G18G19G21G26G27G29
  21214125.231    21214124.8034   21214128.7494  111480983.320 8  86868319.28846
      1375.431        1071.764
  21547928.350    21547927.7184   21547932.7304  113235126.316 7  88235181.72046
     -1965.958       -1531.915
  22983117.371    22983117.2174   22983122.4134  120777122.401 6  94112070.73043
      2104.145        1639.597
  24049774.213    24049773.0374   24049779.3944  126382396.581 6  98479805.86642
     -3604.465       -2808.653
  20854617.144    20854616.4374   20854620.8844  109591758.820 8  85396193.41646
      1251.664         975.325
  22984227.105    22984226.6664   22984230.1674  120782921.609 6  94116580.10143
     -3286.218       -2560.679
  23166486.886    23166486.4184   23166490.5644  121740724.741 6  94862925.97943
      2905.306        2263.885
  23619758.801    23619758.0794   23619760.4454  124122679.069 6  96718985.97643
      3327.943        2593.197
  21128380.225    21128379.6804   21128382.3734  111030387.353 8  86517203.50146
      -758.265        -590.853
  22794328.013    22794328.0594   22794332.8874  119785030.841 6  93339003.57643
      2530.185        1971.573
  22839896.324    22839896.1114   22839900.5604  120024470.331 7  93525581.64144
       -79.697         -62.094
  22644417.860    22644417.3704   22644421.8114  118997232.422 6  92725137.94143
      1569.129        1222.701
 06  4 30  5 37  0.0000000  0 12G 3G 7G 8G10G15G16G18G19G21G26G27G29
  21206326.972    21206326.5694   21206330.4654  111440003.823 8  86836387.22946
      1356.208        1056.787
  21559195.945    21559195.3954   21559200.1524  113294337.577 8  88281320.34346
     -1981.767       -1544.234
  22971157.120    22971156.2064   22971161.3714  120714266.388 6  94063092.01743
      2085.965        1625.427
  24070377.676    24070377.3224   24070383.9264  126490672.431 6  98564176.59742
     -3614.299       -2816.335
  20847527.415    20847526.7874   20847531.1524  109554502.178 8  85367162.27546
      1231.769         959.819
  23003019.714    23003019.1564   23003022.7514  120881675.879 6  94193531.43244
     -3297.662       -2569.615
  23149934.018    23149933.4724   23149937.2164  121653738.175 6  94795144.28143
      2893.431        2254.616
  23600782.827    23600781.5764   23600784.1234  124022957.190 6  96641280.62443
      3319.789        2586.852
  21132764.764    21132764.3264   21132766.9314  111053428.765 8  86535157.83346
      -778.091        -606.303
  22779935.292    22779935.7244   22779940.1314  119709398.696 6  93280069.48443
      2511.648        1957.120
  22840404.373    22840403.8324   22840408.1044  120027139.092 6  93527661.17544
       -98.574         -76.809
  22635511.917    22635511.4114   22635515.9014  118950432.120 6  92688670.18043
      1550.497        1208.165
 06  4 30  5 37 30.0000000  0 12G 3G 7G 8G10G15G16G18G19G21G26G27G29
  21198639.237    21198638.9694   21198642.5684  111399604.272 8  86804907.06546
      1337.091        1041.885
  21570554.136    21570553.5904   21570558.1394  113354025.176 8  88327830.14545
     -1997.396       -1556.415
  22959300.018    22959299.7934   22959304.3054  120651960.772 6  94014542.21043
      2067.790        1611.264
  24091038.149    24091037.6684   24091044.1354  126599245.672 5  98648779.08742
     -3623.888       -2823.822
  20840551.873    20840551.2474   20840555.5754  109517846.129 8  85338599.11346
      1211.966         944.388
  23021877.366    23021877.0884   23021880.5154  120980774.892 6  94270751.39044
     -3308.903       -2578.370
  23133449.902    23133449.3294   23133453.0914  121567113.671 7  94727644.70743
      2881.542        2245.350
  23581853.694    23581853.0404   23581855.0504  123923484.335 6  96563769.30843
      3311.711        2580.574
  21137263.090    21137262.6664   21137265.3994  111077068.356 8  86553578.27646
      -797.832        -621.688
  22765650.158    22765650.2174   22765654.8854  119634328.221 6  93221573.04643
      2493.099        1942.661
  22841019.842    22841019.5154   22841023.8654  120030375.072 6  93530182.73544
      -117.203         -91.329
  22626713.445    22626713.3684   22626717.7794  118904196.656 6  92652642.56643
      1531.883        1193.663
 06  4 30  5 38  0.0000000  0 12G 3G 7G 8G10G15G16G18G19G21G26G27G29
  21191061.812    21191061.4454   21191065.2484  111359784.217 8  86773878.44846
      1317.671        1026.756
  21582002.100    21582001.7124   21582006.3794  113414185.700 8  88374708.44846
     -2013.210       -1568.731
  22947548.647    22947548.1554   22947552.8914  120590205.881 6  93966421.51443
      2049.301        1596.868
  24111753.992    24111754.0164   24111760.1004  126708111.560 5  98733609.59042
     -3633.798       -2831.536
  20833690.843    20833690.1374   20833694.4234  109481790.231 8  85310503.58946
      1191.840         928.709
  23040800.274    23040799.7314   23040803.4144  121080213.846 6  94348236.26444
     -3320.284       -2587.233
  23117035.007    23117034.5324   23117038.0654  121480851.776 6  94660427.67843
      2869.364        2235.871
  23562972.025    23562971.3084   23562973.7274  123824261.104 6  96486452.53943
      3303.326        2574.022
  21141875.219    21141874.7434   21141877.3284  111101303.680 8  86572462.91046
      -817.750        -637.206
  22751471.996    22751472.0584   22751476.5864  119559820.525 6  93163515.10043
      2474.131        1927.893
  22841743.623    22841742.9264   22841747.3934  120034176.116 6  93533144.56744
      -136.109        -106.054
  22618022.695    22618022.1064   22618026.7104  118858525.744 6  92617054.82843
      1512.936        1178.912
 06  4 30  5 38 30.0000000  0 12G 3G 7G 8G10G15G16G18G19G21G26G27G29
  21183594.199    21183593.7294   21183597.5684  111320541.475 8  86743299.69946
      1298.335        1011.689
  21593539.430    21593538.9564   21593543.7114  113474814.184 8  88421951.41645
     -2028.826       -1580.899
  22935901.762    22935901.4094   22935905.9804  120529000.271 6  93918728.82543
      2030.884        1582.508
  24132525.784    24132525.2374   24132530.9594  126817263.470 6  98818662.96742
     -3643.283       -2838.923
  20826943.366    20826942.7264   20826946.9534  109446332.052 8  85282873.83846
      1171.795         913.086
  23059786.387    23059785.8824   23059789.5074  121179986.660 6  94425981.25743
     -3331.390       -2595.883
  23100688.562    23100688.3934   23100691.4794  121394951.234 7  94593492.22544
      2857.136        2226.340
  23544137.615    23544136.7724   23544138.8584  123725285.752 6  96409328.89443
      3294.911        2567.471
  21146599.488    21146599.0154   21146601.6814  111126130.708 8  86591808.63346
      -837.521        -652.614
  22737400.139    22737399.8894   22737405.2304  119485874.919 6  93105895.19043
      2455.341        1913.252
  22842573.719    22842573.3784   22842577.3594  120038538.819 7  93536544.07044
      -154.883        -120.686
  22609438.552    22609438.3994   22609442.4984  118813417.619 6  92581905.65243
      1494.076        1164.220
 06  4 30  5 39  0.0000000  0 12G 3G 7G 8G10G15G16G18G19G21G26G27G29
  21176236.579    21176236.1384   21176239.8744  111281876.607 8  86713171.22146
      1279.229         996.801
  21605165.158    21605164.7654   21605169.4184  113535908.135 7  88469557.09445
     -2044.136       -1592.835
  22924359.006    22924358.8144   22924363.8344  120468345.580 6  93871465.45843
      2012.672        1568.309
  24153351.485    24153350.5404   24153355.9694  126926697.653 6  98903936.30642
     -3652.493       -2846.091
  20820309.554    20820308.8714   20820313.3544  109411471.836 8  85255710.05046
      1152.078         897.721
  23078835.498    23078835.0384   23078838.5034  121280090.203 6  94503983.99343
     -3342.212       -2604.330
  23084411.161    23084410.9014   23084414.8864  121309413.800 7  94526839.72744
      2845.234        2217.060
  23525350.650    23525349.6124   23525351.4514  123626559.569 6  96332399.45443
      3286.828        2561.163
  21151436.107    21151435.6964   21151438.3694  111151547.520 8  86611613.94146
      -856.968        -667.768
  22723436.017    22723435.9534   22723440.6084  119412493.296 6  93048714.75043
      2436.667        1898.699
  22843510.164    22843509.9344   22843514.3464  120043462.536 6  93540380.73944
      -173.379        -135.101
  22600962.686    22600961.9734   22600965.8004  118768873.004 6  92547195.58343
      1475.467        1149.716
 06  4 30  5 39 30.0000000  0 12G 3G 7G 8G10G15G16G18G19G21G26G27G29
  21168987.647    21168987.2284   21168990.9604  111243783.479 8  86683488.28246
      1260.066         981.871
  21616877.770    21616877.2924   21616882.0074  113597458.715 8  88517518.56145
     -2059.413       -1604.738
  22912920.676    22912920.4374   22912925.1254  120408236.739 6  93824627.37543
      1994.355        1554.036
  24174228.067    24174226.6834   24174232.6014  127036404.018 5  98989421.70742
     -3661.540       -2853.142
  20813788.542    20813787.8744   20813792.2174  109377203.570 8  85229007.50346
      1132.211         882.240
  23097945.095    23097944.7444   23097948.2704  121380514.292 6  94582236.46443
     -3352.920       -2612.664
  23068202.116    23068201.6674   23068205.4134  121224234.327 6  94460466.13744
      2833.168        2207.668
  23506609.944    23506609.4224   23506610.9144  123528077.724 6  96255660.40343
      3278.536        2554.704
  21156383.613    21156383.2014   21156385.9504  111177546.229 8  86631872.66346
      -876.448        -682.947
  22709578.860    22709579.0134   22709583.1404  119339671.144 6  92991970.23143
      2417.863        1884.042
  22844552.805    22844552.4004   22844556.8104  120048939.662 7  93544648.61144
      -191.945        -149.571
  22592591.817    22592591.8944   22592596.1054  118724886.263 6  92512920.19843
      1456.818        1135.170
 06  4 30  5 40  0.0000000  0 12G 3G 7G 8G10G15G16G18G19G21G26G27G29
  21161848.714    21161848.3664   21161851.9954  111206268.419 8  86654255.77146
      1240.808         966.866
  21628678.080    21628677.7214   21628682.5344  113659469.696 7  88565838.80245
     -2074.735       -1616.677
  22901588.308    22901587.5964   22901592.3124  120348681.493 6  93778220.68343
      1975.859        1539.638
  24195156.400    24195155.6374   24195161.9234  127146384.786 6  99075120.88742
     -3670.669       -2860.282
  20807381.453    20807380.7804   20807385.0004  109343533.722 8  85202771.25946
      1112.282         866.713
  23117117.308    23117116.8534   23117120.3714  121481261.657 6  94660740.87643
     -3363.627       -2621.013
  23052062.307    23052061.9504   23052065.7014  121139420.703 7  94394377.64344
      2820.909        2198.110
  23487917.505    23487916.3894   23487918.8424  123429847.384 6  96179117.30943
      3270.072        2548.111
  21161442.679    21161442.0664   21161444.6244  111204131.100 8  86652588.14246
      -896.017        -698.193
  22695829.276    22695829.1084   22695833.2724  119267416.572 6  92935668.00443
      2398.908        1869.287
  22845701.617    22845701.2014   22845705.5764  120054975.498 7  93549351.83944
      -210.596        -164.103
  22584329.004    22584328.4974   22584332.7764  118681464.033 6  92479084.69643
      1437.939        1120.481
 06  4 30  5 40 30.0000000  0 12G 3G 7G 8G10G15G16G18G19G21G26G27G29
  21154820.738    21154820.2304   21154824.0624  111169335.755 8  86625477.06246
      1221.560         951.866
  21640566.205    21640565.8144   21640570.7784  113721942.179 7  88614518.64845
     -2089.907       -1628.503
  22890361.375    22890360.8354   22890365.3164  120289684.372 6  93732248.92143
      1957.417        1525.253
  24216136.252    24216136.4494   24216142.3264  127256640.233 5  99161034.20542
     -3679.539       -2867.150
  20801088.855    20801088.1954   20801092.5154  109310466.336 8  85177004.47446
      1092.406         851.227
  23136350.333    23136349.6704   23136353.2444  121582332.696 6  94739497.49643
     -3374.213       -2629.261
  23035993.241    23035992.9164   23035996.9494  121054977.651 6  94328577.89244
      2808.719        2188.616
  23469273.479    23469272.7374   23469274.6174  123331873.599 6  96102774.09943
      3261.642        2541.544
  21166613.467    21166612.9834   21166615.4704  111231304.338 8  86673762.08746
      -915.398        -713.294
  22682188.289    22682188.2454   22682192.7634  119195735.030 6  92879812.29743
      2379.982        1854.527
  22846956.816    22846956.4004   22846960.6274  120061572.712 7  93554492.53644
      -229.087        -178.505
  22576173.905    22576173.5794   22576178.3744  118638610.814 6  92445692.59243
      1419.138        1105.822
 06  4 30  5 41  0.0000000  0 12G 3G 7G 8G10G15G16G18G19G21G26G27G29
  21147902.225    21147901.8004   21147905.8254  111132979.398 8  86597147.42146
      1202.194         936.778
  21652540.661    21652540.1904   21652544.9624  113784867.346 8  88663551.21745
     -2105.123       -1640.358
  22879239.644    22879239.4654   22879244.3804  120231240.418 6  93686708.20843
      1938.813        1510.764
  24237166.232    24237166.9124   24237173.1884  127367159.755 5  99247153.29142
     -3688.445       -2874.109
  20794909.879    20794909.1854   20794913.7034  109277995.225 8  85151702.31046
      1072.345         835.591
  23155643.120    23155642.4824   23155646.0064  121683717.382 6  94818498.48843
     -3384.710       -2637.432
  23019993.992    23019993.5744   23019997.8704  120970900.638 7  94263063.36944
      2796.349        2178.969
  23450677.530    23450676.7194   23450678.8564  123234151.187 6  96026626.75243
      3253.143        2534.921
  21171894.750    21171894.2444   21171897.0124  111259057.915 8  86695388.23646
      -934.854        -728.458
  22668656.059    22668656.2984   22668660.5584  119124621.951 6  92824399.54443
      2360.827        1839.596
  22848317.482    22848317.0354   22848321.4604  120068723.769 7  93560064.77444
      -247.681        -192.998
  22568126.262    22568126.1174   22568130.2754  118596320.895 6  92412739.44943
      1400.163        1091.038
 06  4 30  5 41 30.0000000  0 12G 3G 7G 8G10G15G16G18G19G21G26G27G29
  21141094.025    21141093.5804   21141097.6494  111097202.382 8  86569269.22146
      1182.808         921.670
  21664601.252    21664600.8374   21664605.5034  113848245.458 8  88712936.75145
     -2120.242       -1652.137
  22868224.162    22868223.9134   22868228.8854  120173354.195 6  93641602.09443
      1920.157        1496.222
  24258247.777    24258248.3584   24258255.1624  127477942.349 5  99333477.38142
     -3697.201       -2880.937
  20788844.904    20788844.1584   20788848.6834  109246123.393 8  85126867.12146
      1052.312         819.983
  23174995.490    23174995.2594   23174998.9134  121785414.975 6  94897743.32643
     -3395.215       -2645.613
  23004065.347    23004064.9764   23004068.4434  120887194.040 6  94197837.48844
      2783.927        2169.294
  23432130.769    23432129.4854   23432131.7814  123136684.240 6  95950678.48243
      3244.544        2528.220
  21177286.834    21177286.2564   21177289.0574  111287392.872 8  86717467.42446
      -954.287        -743.604
  22655233.314    22655232.8254   22655237.6464  119054082.080 6  92769433.43343
      2341.671        1824.684
  22849784.094    22849783.8454   22849788.2954  120076430.471 7  93566069.99344
      -266.232        -207.452
  22560186.784    22560186.7914   22560190.4194  118554597.421 6  92380227.68843
      1381.226        1076.280
 06  4 30  5 42  0.0000000  0 12G 3G 7G 8G10G15G16G18G19G21G26G27G29
  21134396.326    21134395.9274   21134400.0014  111062005.710 8  86541843.23746
      1163.531         906.647
  21676747.762    21676747.1864   21676751.7614  113912074.767 8  88762673.86145
     -2135.140       -1663.746
  22857314.912    22857314.2744   22857319.6094  120116027.049 6  93596931.59943
      1901.579        1481.758
  24279381.400    24279379.4644   24279385.6454  127588985.005 5  99420004.06542
     -3705.708       -2887.562
  20782894.047    20782893.2874   20782897.6334  109214851.724 8  85102499.59746
      1032.354         804.433
  23194406.616    23194406.8064   23194410.0714  121887422.662 6  94977229.79643
     -3405.400       -2653.555
  22988207.371    22988207.1184   22988210.6654  120803859.573 6  94132901.56644
      2771.617        2159.705
  23413632.133    23413631.1514   23413633.6714  123039474.768 6  95874930.84343
      3235.969        2521.540
  21182789.252    21182788.6594   21182791.4774  111316307.989 8  86739998.67446
      -973.509        -758.575
  22641918.800    22641919.2114   22641923.8194  118984117.780 6  92714915.81943
      2322.540        1809.770
  22851356.552    22851356.1434   22851360.3444  120084692.417 7  93572507.87544
      -284.679        -221.829
  22552355.325    22552354.7504   22552359.2184  118513442.205 6  92348158.70543
      1362.376        1061.585
 06  4 30  5 42 30.0000000  0 12G 3G 7G 8G10G15G16G18G19G21G26G27G29
  21127809.719    21127809.3754   21127813.3744  111027392.688 8  86514872.02846
      1143.949         891.394
  21688979.906    21688979.3444   21688983.8794  113976355.743 7  88812762.91545
     -2150.259       -1675.521
  22846513.882    22846513.3344   22846517.9584  120059263.823 6  93552700.52243
      1882.595        1466.958
  24300562.417    24300559.6694   24300565.5114  127700287.086 5  99506732.83942
     -3714.433       -2894.340
  20777058.247    20777057.4084   20777061.7474  109184183.458 8  85078602.25946
      1012.135         788.676
  23213877.617    23213876.7944   23213879.9284  121989740.094 6  95056957.63543
     -3415.746       -2661.619
  22972420.881    22972420.6784   22972423.9854  120720902.170 6  94068259.46744
      2758.839        2149.747
  23395183.671    23395182.2384   23395184.7704  122942527.069 6  95799387.20143
      3227.202        2514.698
  21188402.248    21188401.7024   21188404.4074  111345804.738 8  86762983.15146
      -992.958        -773.731
  22628715.824    22628716.0844   22628720.3204  118914734.152 6  92660850.67043
      2302.987        1794.530
  22853034.668    22853034.0884   22853038.1964  120093511.635 6  93579379.99244
      -303.331        -236.365
  22544632.268    22544632.0034   22544636.6634  118472858.583 6  92316535.11343
      1343.163        1046.617
 06  4 30  5 43  0.0000000  0 12G 3G 7G 8G10G15G16G18G19G21G26G27G29
  21121334.372    21121333.9564   21121337.8754  110993364.324 8  86488356.43046
      1124.479         876.214
  21701297.663    21701297.1554   21701301.7754  114041086.703 8  88863202.60945
     -2165.213       -1687.182
  22835820.232    22835819.4234   22835824.1134  120003066.224 6  93508910.20243
      1863.767        1452.292
  24321791.412    24321789.1894   24321794.3874  127811845.741 6  99593661.57642
     -3722.932       -2901.003
  20771336.981    20771336.3344   20771340.8414  109154119.500 8  85055175.80246
       992.008         772.994
  23233406.143    23233406.0384   23233408.9054  122092364.487 6  95136924.67943
     -3425.934       -2669.554
  22956706.789    22956706.3604   22956709.8754  120638324.118 7  94003912.96844
      2746.217        2139.915
  23376784.804    23376784.2234   23376786.8694  122845843.296 6  95724049.15443
      3218.343        2507.797
  21194125.892    21194125.2384   21194127.8614  111375882.234 8  86786420.15246
     -1012.271        -788.786
  22615623.091    22615623.2794   22615628.2984  118845933.739 6  92607239.98943
      2283.588        1779.417
  22854818.962    22854818.2004   22854822.6694  120102887.861 7  93586686.15344
      -321.794        -250.751
  22537018.577    22537018.7674   22537023.0984  118432848.015 6  92285358.05943
      1324.107        1031.766
 06  4 30  5 43 30.0000000  0 12G 3G 7G 8G10G15G16G18G19G21G26G27G29
  21114971.346    21114970.9704   21114974.9534  110959926.134 8  86462300.70746
      1104.540         860.679
  21713701.801    21713701.1524   21713705.9714  114106270.214 7  88913994.93145
     -2180.501       -1699.092
  22825234.245    22825234.0224   22825238.7874  119947440.793 6  93465565.71343
      1844.464        1437.245
  24343068.421    24343066.7804   24343072.7944  127923662.128 5  99680791.16042
     -3731.675       -2907.808
  20765732.137    20765731.4204   20765735.8434  109124665.171 8  85032224.36846
       971.464         756.986
  23252993.973    23252993.1464   23252996.6044  122195297.318 6  95217132.05243
     -3436.408       -2677.721
  22941066.116    22941065.5364   22941069.2964  120556131.911 6  93939867.10244
      2733.042        2129.644
  23358438.576    23358437.6224   23358439.5654  122749429.947 6  95648921.91543
      3209.050        2500.555
  21199960.425    21199959.9674   21199962.5164  111406543.550 8  86810312.05746
     -1031.990        -804.145
  22602643.562    22602642.8774   22602647.7574  118777723.295 6  92554088.97343
      2263.645        1763.881
  22856709.862    22856709.6984   22856713.8654  120112824.856 7  93594429.26844
      -340.772        -265.536
  22529514.951    22529514.7774   22529518.8234  118393416.356 6  92254632.10943
      1304.491        1016.484
 06  4 30  5 44  0.0000000  0 12G 3G 7G 8G10G15G16G18G19G21G26G27G29
  21108720.824    21108720.4774   21108724.6554  110927080.309 8  86436706.55246
      1085.279         845.669
  21726191.758    21726191.2724   21726196.0124  114171905.961 8  88965139.65345
     -2195.072       -1710.445
  22814757.541    22814757.6984   22814762.9844  119892390.838 6  93422669.63743
      1825.673        1422.606
  24364393.035    24364393.0534   24364399.0854  128035734.478 5  99768120.24742
     -3739.744       -2914.079
  20760243.541    20760242.9044   20760247.2624  109095822.533 8  85009749.58146
       951.525         741.447
  23272639.997    23272639.3824   23272642.4724  122298537.264 6  95297578.71943
     -3446.094       -2685.259
  22925499.442    22925498.9254   22925502.6774  120474329.216 7  93876124.77944
      2720.490        2119.862
  23340143.877    23340142.8064   23340144.6934  122653290.414 6  95574008.06043
      3200.359        2493.781
  21205906.247    21205905.7364   21205908.4344  111437789.131 8  86834659.25946
     -1050.941        -818.914
  22589776.355    22589776.4944   22589780.7734  118710106.787 6  92501400.80643
      2244.264        1748.782
  22858707.582    22858707.2304   22858711.4654  120123323.850 7  93602610.32944
      -359.036        -279.773
  22522121.670    22522121.8904   22522125.9664  118354565.963 6  92224359.09943
      1285.615        1001.787
 06  4 30  5 44 30.0000000  0 12G 3G 7G 8G10G15G16G18G19G21G26G27G29
  21102582.920    21102582.4884   21102586.5374  110894824.381 8  86411572.05046
      1065.410         830.188
  21738766.811    21738766.3854   21738771.1844  114237988.364 7  89016632.39945
     -2210.130       -1722.179
  22804392.489    22804391.6614   22804396.0654  119837914.623 6  93380220.64843
      1806.301        1407.503
  24385766.331    24385766.8484   24385772.6414  128148056.175 5  99855643.63842
     -3748.116       -2920.615
  20754870.893    20754870.1994   20754874.7694  109067589.124 8  84987749.51246
       930.974         725.435
  23292342.769    23292342.7594   23292346.2414  122402078.022 6  95378259.76843
     -3456.295       -2693.201
  22910006.783    22910006.5864   22910009.9834  120392914.648 7  93812684.88744
      2707.329        2109.602
  23321900.698    23321899.7454   23321901.6324  122557423.087 6  95499306.28843
      3191.015        2486.502
  21211962.460    21211961.9654   21211964.7614  111469614.470 8  86859458.20646
     -1070.463        -834.127
  22577022.233    22577022.4064   22577026.7534  118643083.133 6  92449174.59043
      2224.240        1733.169
  22860811.595    22860811.2984   22860815.2804  120134380.831 7  93611226.17244
      -377.806        -294.393
  22514839.006    22514838.8744   22514843.1044  118316294.830 6  92194537.45743
      1266.100         986.568
 06  4 30  5 45  0.0000000  0 12G 3G 7G 8G10G15G16G18G19G21G26G27G29
  21096557.009    21096556.6704   21096560.6814  110863158.849 8  86386897.62546
      1045.645         814.791
  21751426.583    21751426.1414   21751431.0174  114304515.662 7  89068471.83045
     -2224.966       -1733.733
  22794136.340    22794135.2194   22794139.3844  119784013.992 6  93338220.17843
      1787.036        1392.492
  24407187.214    24407187.6074   24407194.1534  128260624.103 5  99943358.93742
     -3756.351       -2927.038
  20749614.296    20749613.6944   20749617.9884  109039965.577 8  84966224.67046
       910.603         709.563
  23312102.601    23312102.0694   23312105.7824  122505916.507 6  95459172.82743
     -3466.242       -2700.965
  22894588.429    22894588.1004   22894591.8174  120311889.877 7  93749548.73644
      2694.296        2099.439
  23303709.497    23303708.4034   23303711.0094  122461829.502 6  95424817.83143
      3181.846        2479.366
  21218128.709    21218128.1694   21218130.9864  111502018.126 8  86884707.79646
     -1089.763        -849.164
  22564381.169    22564381.2864   22564385.7204  118576654.564 6  92397412.06943
      2204.311        1717.637
  22863021.774    22863021.3754   22863025.6324  120145994.986 7  93620276.13344
      -396.455        -308.919
  22507666.457    22507666.5404   22507671.0404  118278603.849 6  92165167.90043
      1246.666         971.424
 06  4 30  5 45 30.0000000  0 12G 3G 7G 8G10G15G16G18G19G21G26G27G29
  21090643.735    21090643.3964   21090647.3474  110832083.937 8  86362683.40846
      1025.857         799.366
  21764170.534    21764170.0104   21764174.7904  114371484.995 7  89120655.69945
     -2239.767       -1745.269
  22783987.840    22783987.8194   22783992.5284  119730690.304 6  93296669.25543
      1767.756        1377.462
  24428656.494    24428655.6254   24428661.1464  128373434.117 5 100031262.81042
     -3764.401       -2933.313
  20744473.883    20744473.1824   20744477.3664  109012951.881 8  84945175.02946
       890.195         693.656
  23331918.630    23331918.2034   23331921.6504  122610049.229 6  95540315.16843
     -3476.062       -2708.622
  22879244.280    22879243.8834   22879247.5164  120231256.375 7  93686717.46244
      2681.109        2089.167
  23285570.468    23285570.0164   23285572.4364  122366511.101 6  95350543.78543
      3172.541        2472.105
  21224404.394    21224404.0884   21224406.7954  111534998.088 8  86910406.45046
     -1109.041        -864.188
  22551853.875    22551853.8854   22551858.0674  118510822.622 6  92346114.44443
      2184.314        1702.064
  22865337.841    22865337.4194   22865341.7084  120158165.230 7  93629759.40844
      -415.005        -323.376
  22500604.963    22500604.7684   22500608.8704  118241493.502 6  92136250.75243
      1227.239         956.293
 06  4 30  5 46  0.0000000  0 12G 3G 7G 8G10G15G16G18G19G21G26G27G29
  21084842.813    21084842.5274   21084846.7114  110801600.874 8  86338930.37446
      1006.420         784.219
  21776998.346    21776997.7394   21777002.2714  114438894.798 7  89173182.80145
     -2254.112       -1756.452
  22773950.557    22773950.3424   22773955.4284  119677945.252 6  93255569.21043
      1748.705        1362.620
  24450170.673    24450167.7684   24450174.1034  128486483.388 5 100119353.09242
     -3772.069       -2939.273
  20739449.370    20739448.8044   20739453.1824  108986548.882 8  84924601.25946
       870.096         677.993
  23351789.926    23351789.3544   23351792.9704  122714473.457 6  95621684.65243
     -3485.433       -2715.918
  22863975.067    22863974.7634   22863978.3454  120151016.888 7  93624193.22744
      2668.231        2079.140
  23267485.001    23267483.9974   23267486.6884  122271470.280 6  95276486.03043
      3163.518        2465.079
  21230790.004    21230789.4794   21230792.2334  111568553.646 8  86936553.63046
     -1127.899        -878.883
  22539440.401    22539440.3154   22539444.8944  118445590.045 6  92295283.87343
      2164.622        1686.708
  22867759.571    22867759.3594   22867763.3494  120170891.059 6  93639675.60644
      -433.220        -337.576
  22493654.165    22493653.6584   22493657.5834  118204965.024 6  92107786.99943
      1208.113         941.392
 06  4 30  5 46 30.0000000  0 12G 3G 7G 8G10G15G16G18G19G21G26G27G29
  21079154.412    21079153.9534   21079157.8304  110771707.169 8  86315636.57546
       986.368         768.599
  21789908.611    21789907.9604   21789912.7794  114506739.851 7  89226049.05445
     -2269.008       -1768.059
  22764024.156    22764023.5814   22764028.7094  119625777.783 6  93214919.22743
      1729.013        1347.280
  24471727.856    24471725.7574   24471731.7754  128599765.762 5 100207624.98842
     -3780.208       -2945.605
  20734540.874    20734540.1294   20734544.6404  108960754.201 8  84904501.51246
       849.412         661.879
  23371715.561    23371715.1644   23371718.6114  122819183.265 6  95703276.66043
     -3495.292       -2723.611
  22848780.575    22848780.3384   22848783.7004  120071170.114 7  93561974.99544
      2654.723        2068.615
  23249451.829    23249451.2934   23249453.8204  122176705.564 6  95202643.36744
      3153.929        2457.620
  21237283.955    21237283.5174   21237286.2354  111602680.147 8  86963145.69146
     -1147.306        -894.005
  22527140.766    22527141.0604   22527145.7254  118380956.010 6  92244919.70743
      2144.207        1670.801
  22870285.702    22870285.5734   22870289.5364  120184168.823 7  93650021.95644
      -452.051        -352.251
  22486812.857    22486812.9334   22486816.9494  118169016.403 6  92079775.10543
      1188.363         925.989
 06  4 30  5 47  0.0000000  0 12G 3G 7G 8G10G15G16G18G19G21G26G27G29
  21073580.233    21073579.7634   21073583.7134  110742414.714 8  86292811.27046
       966.497         753.113
  21802903.597    21802903.1934   21802907.4924  114575029.239 7  89279261.55545
     -2283.593       -1779.426
  22754209.042    22754208.5724   22754213.1074  119574200.445 6  93174729.11143
      1709.496        1332.072
  24493329.713    24493328.4194   24493333.7294  128713289.152 5 100296084.69841
     -3787.961       -2951.657
  20729750.336    20729749.7114   20729753.9834  108935579.455 8  84884884.83846
       828.923         645.915
  23391697.011    23391696.5374   23391700.3244  122924186.812 6  95785097.57643
     -3504.856       -2731.054
  22833663.711    22833663.3014   22833666.8674  119991729.041 7  93500072.90744
      2641.393        2058.222
  23231473.945    23231473.3424   23231475.9494  122082229.495 6  95129025.42143
      3144.417        2450.195
  21243888.476    21243887.9394   21243890.6524  111637387.176 8  86990190.12746
     -1166.456        -908.929
  22514957.900    22514957.9084   22514962.4584  118316933.726 6  92195032.21843
      2123.941        1655.015
  22872919.904    22872919.1164   22872923.4984  120198008.941 6  93660806.43744
      -470.597        -366.697
  22480085.222    22480084.6134   22480088.9294  118133659.891 6  92052224.62043
      1168.793         910.738
 06  4 30  5 47 30.0000000  0 12G 3G 7G 8G10G15G16G18G19G21G26G27G29
  21068119.779    21068119.4404   21068123.4494  110713720.701 8  86270452.29546
       946.439         737.482
  21815982.277    21815981.7404   21815986.3204  114643757.701 7  89332816.17845
     -2298.295       -1790.877
  22744505.976    22744505.6594   22744510.4054  119523211.336 6  93134997.35643
      1689.772        1316.709
  24514975.075    24514974.6944   24514981.1804  128827047.024 5 100384727.13441
     -3795.899       -2957.844
  20725077.226    20725076.5694   20725080.8894  108911021.916 8  84865749.09546
       808.270         629.819
  23411733.140    23411733.0154   23411736.3634  123029477.534 6  95867142.24943
     -3514.469       -2738.545
  22818623.239    22818623.1374   22818626.8144  119912692.165 7  93438485.76244
      2627.756        2047.606
  23213550.914    23213550.0054   23213552.2174  121988041.883 6  95055632.68444
      3134.753        2442.668
  21250602.760    21250602.2274   21250604.8654  111672670.534 8  87017683.64546
     -1185.735        -923.949
  22502891.402    22502891.2214   22502895.8744  118253522.109 6  92145620.59043
      2103.503        1639.097
  22875659.708    22875659.1784   22875663.6824  120212407.161 6  93672025.81044
      -489.216        -381.212
  22473469.230    22473468.9224   22473473.1224  118098893.040 7  92025133.56944
      1149.025         895.350
 06  4 30  5 48  0.0000000  0 12G 3G 7G 8G10G15G16G18G19G21G26G27G29
  21062773.890    21062773.6104   21062777.6384  110685627.553 8  86248561.52246
       926.494         721.944
  21829144.248    21829143.7314   21829148.6444  114712924.804 7  89386712.58645
     -2312.779       -1802.161
  22734915.781    22734915.5584   22734920.3354  119472813.598 6  93095726.41444
      1670.145        1301.410
  24536666.588    24536666.2964   24536673.8324  128941037.615 5 100473550.90742
     -3803.329       -2963.614
  20720521.782    20720521.1404   20720525.4744  108887083.569 8  84847095.83046
       787.695         613.788
  23431823.991    23431823.4474   23431826.8614  123135054.116 6  95949409.65643
     -3523.842       -2745.844
  22803660.627    22803660.3774   22803664.1724  119834063.228 7  93377216.49344
      2614.227        2037.063
  23195682.919    23195681.9594   23195684.4634  121894144.947 6  94982466.25444
      3125.126        2435.170
  21257426.503    21257425.9644   21257428.9544  111708529.918 8  87045626.00146
     -1204.803        -938.806
  22490941.460    22490941.4744   22490945.2854  118190724.743 6  92096687.60543
      2083.049        1623.154
  22878505.932    22878505.6164   22878510.1504  120227364.412 7  93683680.79644
      -507.816        -395.696
  22466965.765    22466965.4634   22466969.7774  118064718.181 6  91998503.80043
      1129.328         880.005
 06  4 30  5 48 30.0000000  0 12G 3G 7G 8G10G15G16G18G19G21G26G27G29
  21057541.970    21057541.6204   21057545.7094  110658133.250 8  86227137.40646
       906.460         706.327
  21842388.881    21842388.4314   21842393.0594  114782525.446 7  89440946.81645
     -2327.257       -1813.446
  22725438.209    22725437.7134   22725442.2514  119423006.643 6  93056915.82444
      1650.334        1285.974
  24558400.684    24558401.1514   24558408.0814  129055255.439 5 100562551.78341
     -3810.997       -2969.603
  20716083.988    20716083.3394   20716087.5454  108863762.433 8  84828923.49446
       767.026         597.682
  23451968.139    23451967.6864   23451971.0194  123240911.439 6  96031895.82443
     -3533.275       -2753.202
  22788775.435    22788775.1144   22788778.8104  119755841.692 7  93316264.68744
      2600.496        2026.363
  23177869.738    23177869.0794   23177871.5384  121800538.290 6  94909526.03044
      3115.312        2427.515
  21264359.231    21264358.7134   21264361.6654  111744961.390 8  87074014.13546
     -1223.928        -953.707
  22479107.946    22479107.8284   22479112.2104  118128541.318 6  92048233.02344
      2062.482        1607.127
  22881457.871    22881457.4894   22881461.8014  120242877.362 7  93695768.80844
      -526.360        -410.157
  22460574.824    22460574.3974   22460578.5634  118031133.734 6  91972334.10443
      1109.648         864.667
 06  4 30  5 49  0.0000000  0 12G 3G 7G 8G10G15G16G18G19G21G26G27G29
  21052423.230    21052422.9744   21052427.1534  110631234.830 8  86206177.60446
       886.528         690.802
  21855715.089    21855714.5164   21855719.1854  114852554.700 7  89495515.03245
     -2341.587       -1824.609
  22716071.561    22716071.1764   22716076.3854  119373788.473 6  93018564.03444
      1630.619        1270.615
  24580178.786    24580178.3984   24580183.9674  129169693.941 5 100651724.61141
     -3818.440       -2975.408
  20711763.051    20711762.4624   20711766.7494  108841055.651 8  84811229.88146
       746.507         581.695
  23472163.991    23472163.4564   23472167.2764  123347042.641 7  96114595.42143
     -3542.349       -2760.274
  22773967.843    22773967.2154   22773970.7874  119678026.110 7  93255629.19244
      2586.910        2015.769
  23160112.235    23160110.8914   23160113.7364  121707220.357 6  94836810.75844
      3105.612        2419.964
  21271399.902    21271399.5044   21271402.2734  111781960.577 8  87102844.65646
     -1242.907        -968.498
  22467391.673    22467391.5164   22467396.1744  118066970.520 7  92000255.81044
      2042.040        1591.202
  22884515.025    22884514.6534   22884518.8164  120258941.716 7  93708286.41444
      -544.826        -424.540
  22454295.661    22454295.7094   22454299.4344  117998137.354 6  91946622.65344
      1089.934         849.300
 06  4 30  5 49 30.0000000  0 12G 3G 7G 8G10G15G16G18G19G21G26G27G29
  21047419.519    21047419.2284   21047423.4094  110604940.448 8  86185688.46646
       866.259         675.010
  21869123.722    21869123.1824   21869128.1224  114923017.771 7  89550421.29645
     -2356.115       -1835.934
  22706819.680    22706819.2964   22706823.8054  119325168.594 6  92980678.42644
      1610.513        1254.948
  24602000.022    24601998.7964   24602004.4154  129284357.003 5 100741072.41241
     -3825.970       -2981.286
  20707560.555    20707559.9014   20707564.2874  108818971.145 8  84794021.17546
       725.613         565.411
  23492413.270    23492412.9534   23492416.3154  123453452.560 6  96197512.17643
     -3551.738       -2767.581
  22759239.043    22759238.5924   22759242.5344  119600625.704 7  93195317.22544
      2572.912        2004.863
  23142411.172    23142409.8994   23142412.5054  121614200.717 6  94764327.96944
      3095.554        2412.115
  21278549.978    21278549.2534   21278551.9314  111819533.236 8  87132122.04746
     -1262.107        -983.461
  22455793.576    22455793.3664   22455797.8994  118006021.944 6  91952763.44744
      2021.079        1574.868
  22887678.316    22887677.8214   22887682.3884  120275564.672 6  93721239.37344
      -563.543        -439.118
  22448130.392    22448130.3544   22448133.9134  117965737.483 6  91921376.01944
      1069.915         833.706
 06  4 30  5 50  0.0000000  0 12G 3G 7G 8G10G15G16G18G19G21G26G27G29
  21042530.728    21042530.3544   21042534.4904  110579249.184 8  86165669.29946
       846.498         659.609
  21882614.403    21882613.8204   21882618.7414  114993911.061 7  89605662.80345
     -2370.046       -1846.797
  22697681.723    22697681.2934   22697685.9304  119277146.543 6  92943258.63844
      1590.943        1239.703
  24623863.518    24623860.5564   24623866.1934  129399240.342 5 100830591.87341
     -3832.857       -2986.659
  20703476.216    20703475.5274   20703479.8294  108797507.908 8  84777296.58146
       705.283         549.573
  23512714.169    23512714.1324   23512717.6734  123560136.545 6  96280642.50843
     -3560.432       -2774.354
  22744589.488    22744589.0324   22744592.8474  119523641.136 7  93135329.29044
      2559.433        1994.355
  23124766.673    23124766.0164   23124768.1374  121521479.580 6  94692077.74044
      3085.913        2404.612
  21285808.187    21285807.7234   21285810.3324  111857676.363 8  87161843.96046
     -1280.711        -997.954
  22444313.999    22444313.8264   22444318.2084  117945696.377 6  91905756.56244
      2000.632        1558.931
  22890946.768    22890946.8764   22890951.1764  120292743.622 6  93734625.56944
      -581.705        -453.279
  22442078.075    22442077.7564   22442082.0534  117933933.328 6  91896593.57244
      1050.462         818.544
 06  4 30  5 50 30.0000000  0 12G 3G 7G 8G10G15G16G18G19G21G26G27G29
  21037755.237    21037754.9854   21037759.2644  110554154.501 8  86146115.00046
       826.260         643.841
  21896185.017    21896184.5624   21896189.5124  115065225.237 7  89661232.26445
     -2384.387       -1857.962
  22688655.775    22688655.4494   22688660.5774  119229716.872 6  92906300.47644
      1570.823        1224.021
  24645763.842    24645762.6984   24645768.3024  129514333.245 5 100920274.61441
     -3840.170       -2992.333
  20699509.005    20699508.2434   20699512.5474  108776659.251 8  84761050.87046
       684.438         533.328
  23533065.975    23533065.4994   23533069.4624  123667084.170 6  96363978.26343
     -3569.591       -2781.500
  22730017.832    22730017.4264   22730021.0944  119447066.862 7  93075661.07444
      2545.359        1983.400
  23107178.289    23107177.6304   23107179.5644  121429051.394 6  94620055.79744
      3075.762        2396.696
  21293173.716    21293173.1194   21293175.7584  111896381.397 8  87192003.70946
     -1299.763       -1012.797
  22432951.793    22432951.9414   22432955.9354  117885988.347 6  91859230.85744
      1979.648        1542.576
  22894320.584    22894320.0074   22894324.4564  120310470.290 6  93748438.53444
      -600.282        -467.752
  22436138.253    22436137.8554   22436142.2314  117902718.505 7  91872270.34444
      1030.391         802.908
 06  4 30  5 51  0.0000000  0 12G 3G 7G 8G10G15G16G18G19G21G26G27G29
  21033096.125    21033095.8894   21033100.0184  110529669.932 8  86127036.11946
       806.235         628.236
  21909838.121    21909837.3734   21909842.3034  115136971.311 7  89717138.28045
     -2398.501       -1868.957
  22679745.749    22679745.4794   22679749.9804  119182894.324 7  92869815.37944
      1550.894        1208.489
  24667706.178    24667705.6954   24667709.9884  129629645.626 5 101010128.34541
     -3847.094       -2997.728
  20695661.058    20695660.3824   20695664.7604  108756438.780 8  84745294.66646
       663.769         517.223
  23553469.648    23553469.1594   23553472.6924  123774305.735 6  96447527.47543
     -3578.333       -2788.300
  22715526.864    22715526.6134   22715530.3504  119370918.149 7  93016324.46744
      2531.388        1972.517
  23089648.733    23089647.6004   23089649.2794  121336931.121 6  94548273.72544
      3065.751        2388.900
  21300647.879    21300647.5274   21300650.4294  111935659.930 8  87222610.36246
     -1318.569       -1027.453
  22421710.332    22421710.1194   22421714.2194  117826913.201 6  91813198.33044
      1958.830        1526.358
  22897800.605    22897799.9634   22897804.2494  120328757.010 7  93762687.87044
      -618.662        -482.069
  22430312.986    22430312.9594   22430316.5194  117872107.007 7  91848417.25244
      1010.549         787.446
 06  4 30  5 51 30.0000000  0 12G 3G 7G 8G10G15G16G18G19G21G26G27G29
  21028550.337    21028550.0524   21028554.1674  110505781.548 8  86108421.79646
       786.413         612.784
  21923570.042    21923569.5664   21923574.2234  115209132.828 7  89773368.02145
     -2412.191       -1879.629
  22670949.321    22670948.5004   22670953.1684  119136665.949 6  92833793.30244
      1531.095        1193.056
  24689685.768    24689685.7204   24689693.0744  129745160.130 5 101100139.63841
     -3853.622       -3002.824
  20691930.140    20691929.3674   20691933.6604  108736832.416 8  84730017.00046
       643.415         501.361
  23573922.371    23573921.6674   23573925.3544  123881784.122 6  96531276.83443
     -3586.738       -2794.867
  22701114.784    22701114.5814   22701117.7134  119295182.316 7  92957309.58544
      2517.737        1961.867
  23072174.795    23072173.7984   23072176.2754  121245106.452 6  94476722.02944
      3055.986        2381.285
  21308228.606    21308228.1324   21308230.9964  111975496.033 8  87253651.48046
     -1337.066       -1041.866
  22410586.260    22410586.3694   22410591.2604  117768458.556 6  91767649.29444
      1938.199        1510.281
  22901383.861    22901383.4724   22901388.0364  120347588.708 6  93777361.88144
      -636.703        -496.127
  22424600.031    22424599.8924   22424603.9864  117842085.174 7  91825023.62844
       990.974         772.183
 06  4 30  5 52  0.0000000  0 12G 3G 7G 8G10G15G16G18G19G21G26G27G29
  21024119.082    21024118.7894   21024122.9044  110482495.609 8  86090276.90746
       766.101         596.963
  21937381.456    21937381.0524   21937385.8634  115281713.079 7  89829924.04145
     -2426.375       -1890.682
  22662266.096    22662265.7014   22662270.5334  119091038.915 6  92798239.76944
      1510.732        1177.193
  24711706.026    24711706.9574   24711713.9774  129860879.064 5 101190310.25341
     -3860.723       -3008.360
  20688317.151    20688316.4554   20688320.7234  108717846.082 8  84715222.45846
       622.470         485.042
  23594423.563    23594423.6514   23594427.2464  123989521.744 6  96615228.19143
     -3595.626       -2801.784
  22686782.961    22686782.3064   22686785.7974  119219867.050 7  92898622.40944
      2503.471        1950.752
  23054758.676    23054757.9444   23054760.2394  121153584.601 6  94405406.29744
      3045.586        2373.182
  21315916.094    21315915.5984   21315918.3324  112015893.805 8  87285130.24846
     -1355.957       -1056.586
  22399582.094    22399582.6434   22399586.9594  117710632.055 6  91722589.71944
      1917.017        1493.778
  22905072.026    22905071.7064   22905076.1994  120366970.053 6  93792464.20644
      -655.234        -510.564
  22419000.403    22419000.3704   22419004.5064  117812659.408 7  91802094.48244
       970.850         756.512
 06  4 30  5 52 30.0000000  0 12G 3G 7G 8G10G15G16G18G19G21G26G27G29
  21019802.744    21019802.5214   21019806.5604  110459813.180 8  86072602.30646
       745.797         581.141
  21951272.420    21951271.7544   21951276.9884  115354710.850 7  89886805.39745
     -2440.430       -1901.631
  22653698.882    22653698.3694   22653703.2424  119046014.981 6  92763156.19644
      1490.503        1161.431
  24733765.289    24733764.8064   24733771.7244  129976799.832 5 101280638.10041
     -3867.588       -3013.720
  20684822.228    20684821.6414   20684825.9504  108699480.710 8  84700911.77346
       601.609         468.788
  23614974.594    23614974.0724   23614977.7614  124097516.182 6  96699379.66743
     -3604.273       -2808.527
  22672531.395    22672530.9714   22672534.5204  119144974.890 7  92840264.92544
      2489.124        1939.589
  23037400.811    23037400.0514   23037402.4904  121062368.188 6  94334328.53444
      3035.228        2365.122
  21323710.103    21323709.6934   21323712.4734  112056852.397 8  87317046.01546
     -1374.855       -1071.317
  22388698.402    22388698.4264   22388702.7944  117653436.255 6  91678021.61544
      1895.767        1477.217
  22908865.002    22908864.3084   22908868.7934  120386900.622 6  93807994.53044
      -673.702        -524.967
  22413514.876    22413514.6434   22413518.6274  117783831.242 6  91779630.96544
       950.759         740.857
 06  4 30  5 53  0.0000000  0 12G 3G 7G 8G10G15G16G18G19G21G26G27G29
  21015603.078    21015602.6714   21015606.6344  110437742.794 8  86055404.61946
       725.457         565.293
  21965243.919    21965243.2464   21965248.3364  115428131.796 7  89944016.50745
     -2454.413       -1912.531
  22645248.153    22645247.1534   22645251.8684  119001604.067 7  92728550.30844
      1470.139        1145.561
  24755864.450    24755864.2554   24755870.8774  130092927.545 5 101371127.22141
     -3874.346       -3018.959
  20681447.463    20681446.6844   20681450.9274  108681744.945 8  84687091.68346
       580.695         452.488
  23635575.277    23635574.7864   23635578.5654  124205772.698 6  96783735.35443
     -3612.879       -2815.235
  22658362.264    22658361.9414   22658365.0214  119070515.784 7  92782244.88944
      2474.721        1928.358
  23020102.968    23020102.2964   23020104.3164  120971467.244 6  94263496.64844
      3024.744        2356.940
  21331612.272    21331611.7864   21331614.4914  112098378.194 8  87349403.76346
     -1393.641       -1085.958
  22377936.111    22377936.1434   22377940.7264  117596881.135 6  91633952.73644
      1874.453        1460.602
  22912763.341    22912762.6844   22912767.3744  120407387.597 7  93823958.34644
      -692.162        -539.341
  22408144.349    22408143.9624   22408148.0384  117755609.292 6  91757639.85044
       930.592         725.136
 06  4 30  5 53 30.0000000  0 12G 3G 7G 8G10G15G16G18G19G21G26G27G29
  21011518.692    21011518.4364   21011522.4034  110416279.726 8  86038680.14846
       705.156         549.475
  21979294.574    21979293.9244   21979298.7024  115501968.774 7  90001551.78645
     -2468.293       -1923.346
  22636912.028    22636911.8664   22636916.1854  118957802.366 6  92694419.11544
      1449.779        1129.697
  24778003.392    24778001.7404   24778005.1654  130209253.699 5 101461770.98141
     -3880.989       -3024.160
  20678191.152    20678190.5024   20678194.8714  108664633.886 8  84673758.38346
       559.789         436.200
  23656224.128    23656223.4124   23656227.1634  124314282.800 6  96868288.64743
     -3621.315       -2821.804
  22644274.759    22644274.5084   22644277.9904  118996486.498 7  92724559.77544
      2460.290        1917.108
  23002864.258    23002863.5854   23002865.9614  120880878.298 6  94192907.88244
      3014.242        2348.763
  21339621.170    21339620.7894   21339623.3934  112140464.951 8  87382198.63446
     -1412.372       -1100.550
  22367295.275    22367295.3914   22367299.8964  117540963.549 6  91590380.62944
      1853.169        1444.030
  22916766.938    22916766.4044   22916770.6184  120428425.422 6  93840351.40544
      -710.570        -553.692
  22402887.936    22402888.1634   22402892.0564  117727989.358 7  91736117.84944
       910.473         709.451
 06  4 30  5 54  0.0000000  0 12G 3G 7G 8G10G15G16G18G19G21G26G27G29
  21007550.539    21007550.1614   21007554.0854  110395426.373 8  86022430.78946
       685.025         533.784
  21993424.504    21993423.9074   21993428.6334  115576221.462 7  90059410.99445
     -2481.930       -1933.965
  22628693.333    22628693.0414   22628697.6884  118914613.395 7  92660765.37444
      1429.459        1113.871
  24800177.698    24800175.2914   24800179.1054  130325776.982 5 101552568.30941
     -3887.252       -3029.024
  20675054.272    20675053.5034   20675058.0834  108648149.693 8  84660913.56146
       539.117         420.092
  23676920.638    23676920.3404   23676924.2634  124423045.774 6  96953038.93943
     -3629.498       -2828.186
  22630269.658    22630269.4444   22630273.2194  118922890.773 7  92667212.49444
      2446.016        1905.984
  22985685.803    22985684.9614   22985687.7054  120790605.000 6  94122565.08844
      3003.945        2340.735
  21347736.705    21347736.2464   21347739.0454  112183112.429 8  87415430.41746
     -1430.840       -1114.940
  22356776.767    22356777.0174   22356781.1164  117485687.408 7  91547308.35544
      1831.885        1427.441
  22920875.264    22920874.7394   22920879.6174  120450014.671 6  93857174.19444
      -728.750        -567.859
  22397747.183    22397747.2174   22397751.2564  117700973.842 6  91715066.80344
       890.501         693.901
 06  4 30  5 54 30.0000000  0 12G 3G 7G 8G10G15G16G18G19G21G26G27G29
  21003697.458    21003697.0494   21003701.0414  110375178.309 8  86006653.08446
       664.827         518.045
  22007631.925    22007631.4874   22007636.4194  115650883.106 7  90117588.85545
     -2495.545       -1944.579
  22620590.868    22620590.5094   22620595.3194  118872033.201 7  92627585.98944
      1409.121        1098.013
  24822388.594    24822385.2084   24822390.1164  130442489.779 5 101643513.32041
     -3893.561       -3033.961
  20672035.878    20672035.1294   20672039.5614  108632287.915 8  84648553.73646
       518.302         403.874
  23697664.650    23697664.0164   23697667.6324  124532053.937 6  97037980.29542
     -3637.688       -2834.555
  22616347.085    22616346.7654   22616350.1194  118849726.054 7  92610201.06844
      2431.560        1894.728
  22968567.012    22968566.1984   22968568.5924  120700644.675 6  94052466.13644
      2993.407        2332.525
  21355957.757    21355957.2654   21355960.0864  112226314.386 8  87449094.27046
     -1449.321       -1129.341
  22346379.332    22346379.4864   22346383.7114  117431049.819 6  91504733.64444
      1810.567        1410.835
  22925087.010    22925086.7284   22925091.2764  120472149.462 6  93874422.10944
      -746.956        -582.043
  22392720.775    22392720.5074   22392724.7624  117674558.840 7  91694483.71544
       870.423         678.256
 06  4 30  5 55  0.0000000  0 12G 3G 7G 8G10G15G16G18G19G21G26G27G29
  20999959.679    20999959.2854   20999963.2704  110355535.809 8  85991347.24646
       644.498         502.207
  22021917.352    22021916.6224   22021921.4624  115725951.302 7  90176083.50945
     -2509.154       -1955.183
  22612604.714    22612604.1484   22612608.8884  118830063.822 7  92594882.59944
      1388.630        1082.052
  24844632.946    24844629.3664   24844635.6004  130559388.714 5 101734603.34941
     -3899.849       -3038.863
  20669135.979    20669135.3504   20669139.6914  108617048.756 8  84636679.06746
       497.470         387.642
  23718454.200    23718453.4604   23718457.9904  124641304.171 6  97123110.31842
     -3645.806       -2840.896
  22602506.741    22602506.4644   22602509.6314  118776993.546 7  92553526.41944
      2417.047        1883.416
  22951508.016    22951507.2434   22951509.6104  120610999.154 6  93982612.50344
      2982.787        2324.243
  21364284.014    21364283.5664   21364286.3454  112270069.330 8  87483189.01846
     -1467.856       -1143.788
  22336104.235    22336104.2124   22336108.4834  117377052.458 7  91462657.80644
      1789.041        1394.059
  22929402.653    22929402.5244   22929406.9154  120494828.604 6  93892094.14944
      -765.178        -596.245
  22387808.280    22387808.3704   22387812.4914  117648744.817 6  91674368.90644
       850.300         662.576
 06  4 30  5 55 30.0000000  0 12G 3G 7G 8G10G15G16G18G19G21G26G27G29
  20996338.193    20996337.8834   20996341.8124  110336505.047 8  85976518.09746
       624.008         486.238
  22036280.575    22036279.8854   22036284.6084  115801429.755 7  90234897.84745
     -2522.884       -1965.882
  22604734.906    22604734.9214   22604739.5184  118788711.788 7  92562660.22944
      1367.944        1065.932
  24866912.610    24866910.1694   24866916.3114  130676476.322 5 101825840.40341
     -3906.198       -3043.786
  20666355.540    20666354.9504   20666359.4594  108602438.190 8  84625294.20946
       476.387         371.207
  23739290.416    23739290.2474   23739293.6204  124750799.153 6  97208431.06142
     -3654.016       -2847.275
  22588750.013    22588749.6804   22588752.8124  118704701.068 7  92497194.64244
      2402.190        1871.828
  22934510.664    22934509.5304   22934511.8504  120521675.771 6  93913009.90044
      2971.888        2315.751
  21372716.635    21372715.9664   21372718.6634  112314381.524 7  87517717.98445
     -1486.478       -1158.297
  22325952.005    22325952.1204   22325956.5214  117323703.095 6  91421086.91444
      1767.341        1377.147
  22933823.148    22933822.7404   22933827.2794  120518056.995 6  93910194.15844
      -783.586        -610.591
  22383011.707    22383011.6334   22383015.8714  117623538.242 7  91654727.44644
       829.906         646.670
 06  4 30  5 56  0.0000000  0 12G 3G 7G 8G10G15G16G18G19G21G26G27G29
  20992832.917    20992832.6134   20992836.5794  110318085.205 8  85962164.97646
       603.919         470.588
  22050720.883    22050720.4954   22050725.2114  115877315.169 7  90294029.29945
     -2536.150       -1976.217
  22596983.758    22596983.3824   22596988.3344  118747977.777 6  92530919.43244
      1347.565        1050.068
  24889227.263    24889225.8794   24889233.6744  130793748.695 5 101917221.40341
     -3911.969       -3048.293
  20663694.941    20663694.2104   20663698.5644  108588455.422 8  84614398.55246
       455.727         355.113
  23760172.358    23760171.9804   23760176.5654  124860534.966 6  97293939.41242
     -3661.696       -2853.268
  22575076.827    22575076.7054   22575079.9814  118632849.747 7  92441206.62844
      2387.783        1860.608
  22917574.176    22917573.3854   22917575.7404  120432675.731 6  93843659.22544
      2961.355        2307.552
  21381254.332    21381253.7624   21381256.5174  112359247.971 8  87552678.83346
     -1504.670       -1172.468
  22315923.280    22315923.4024   22315927.8964  117271002.576 6  91380021.61644
      1745.928        1360.460
  22938347.643    22938346.9794   22938351.5204  120541832.777 6  93928720.73144
      -801.539        -624.578
  22378330.654    22378330.4944   22378334.5574  117598938.887 7  91635559.15344
       809.933         631.117
 06  4 30  5 56 30.0000000  0 12G 3G 7G 8G10G15G16G18G19G21G26G27G29
  20989443.885    20989443.6674   20989447.8324  110300276.444 8  85948288.02746
       583.424         454.616
  22065238.536    22065237.7794   22065242.6614  115953605.348 7  90353476.15845
     -2549.759       -1986.823
  22589350.687    22589350.1614   22589355.0854  118707862.820 7  92499661.03444
      1326.811        1033.877
  24911575.712    24911576.8564   24911584.9494  130911202.403 4 102008743.75341
     -3918.145       -3053.110
  20661153.561    20661152.8194   20661157.1164  108575100.353 8  84603992.00246
       434.695         338.721
  23781099.694    23781098.6524   23781103.7394  124970508.300 6  97379632.84942
     -3669.688       -2859.496
  22561487.951    22561487.5814   22561491.3444  118561440.925 7  92385563.42944
      2372.878        1848.997
  22900700.013    22900699.0904   22900701.4414  120344000.242 6  93774561.45044
      2950.428        2299.032
  21389897.126    21389896.7054   21389899.3434  112404666.844 8  87588070.14046
     -1523.173       -1186.888
  22306018.712    22306018.6814   22306022.9944  117218952.416 6  91339463.07344
      1724.110        1343.468
  22942975.650    22942975.5304   22942979.6764  120566154.755 7  93947672.95144
      -819.829        -638.833
  22373764.958    22373764.7714   22373768.9014  117574946.643 7  91616863.92044
       789.640         615.300
 06  4 30  5 57  0.0000000  0 12G 3G 7G 8G10G15G16G18G19G21G26G27G29
  20986171.585    20986171.3394   20986175.2234  110283080.163 8  85934888.32946
       563.001         438.696
  22079833.055    22079832.2044   22079837.2084  116030298.901 7  90413237.33145
     -2563.099       -1997.224
  22581834.717    22581834.5384   22581839.8264  118668368.923 7  92468886.55144
      1306.108        1017.741
  24933959.951    24933960.9074   24933969.2884  131028835.391 4 102100405.77241
     -3924.072       -3057.718
  20658731.699    20658731.0584   20658735.4894  108562374.264 8  84594075.56246
       413.709         322.370
  23802072.026    23802071.5274   23802075.7784  125080717.320 6  97465509.97542
     -3677.568       -2865.656
  22547984.188    22547983.7364   22547987.6534  118490477.481 7  92330267.27944
      2358.026        1837.426
  22883887.760    22883886.7074   22883889.1874  120255652.233 7  93705718.85844
      2939.492        2290.510
  21398645.079    21398644.6164   21398647.4514  112450637.404 8  87623891.33846
     -1541.548       -1201.205
  22296238.351    22296238.2424   22296242.1394  117167555.444 6  91299413.49644
      1702.292        1326.457
  22947708.273    22947707.9694   22947711.7594  120591022.754 7  93967050.59144
      -838.022        -653.006
  22369315.389    22369314.9764   22369319.4954  117551563.483 7  91598643.27944
       769.263         599.427
 06  4 30  5 57 30.0000000  0 12G 3G 7G 8G10G15G16G18G19G21G26G27G29
  20983015.426    20983015.0514   20983018.9924  110266493.792 8  85921963.88746
       542.674         422.862
  22094502.969    22094502.3844   22094507.2224  116107390.692 7  90473308.81645
     -2576.346       -2007.540
  22574437.067    22574437.0124   22574441.7314  118629494.817 6  92438595.03444
      1285.421        1001.622
  24956379.923    24956380.7994   24956386.1074  131146641.233 5 102192202.49441
     -3929.773       -3062.160
  20656429.339    20656428.6214   20656432.9464  108550274.489 8  84584647.16546
       392.854         306.117
  23823087.688    23823086.6864   23823091.9804  125191155.876 5  97551565.93142
     -3685.067       -2871.486
  22534565.101    22534564.6184   22534567.9024  118419958.294 7  92275317.28744
      2343.173        1825.842
  22867137.604    22867136.9044   22867139.1614  120167630.839 6  93637130.76944
      2928.571        2282.002
  21407497.123    21407496.6384   21407499.5084  112497155.368 8  87660139.08746
     -1559.745       -1215.387
  22286581.326    22286581.6694   22286585.8674  117116810.485 6  91259872.01044
      1680.624        1309.572
  22952543.535    22952542.8534   22952547.3704  120616432.616 6  93986850.52344
      -856.037        -667.038
  22364981.011    22364980.9294   22364985.1954  117528787.015 7  91580895.40244
       749.067         583.691
 06  4 30  5 58  0.0000000  0 12G 3G 7G 8G10G15G16G18G19G21G26G27G29
  20979975.587    20979975.2414   20979979.2314  110250519.344 8  85909516.25946
       522.253         406.951
  22109248.783    22109248.3634   22109252.8544  116184880.381 7  90533690.37745
     -2589.661       -2017.925
  22567158.656    22567158.3234   22567162.2904  118591243.495 7  92408788.81144
      1264.650         985.446
  24978830.591    24978829.7784   24978837.1534  131264618.669 5 102284132.84941
     -3935.437       -3066.570
  20654246.155    20654245.5454   20654249.8804  108538802.730 8  84575708.13646
       371.889         289.787
  23844147.251    23844147.0444   23844149.4254  125301823.109 5  97637800.09041
     -3692.720       -2877.421
  22521230.913    22521230.6104   22521233.9184  118349887.055 7  92220716.35444
      2328.204        1814.189
  22850450.693    22850449.6794   22850452.0804  120079939.451 6  93568799.83444
      2917.500        2273.378
  21416453.366    21416452.9054   21416455.8204  112544220.681 8  87696813.34246
     -1577.956       -1229.575
  22277050.265    22277049.8254   22277054.5104  117066721.006 6  91220841.26344
      1658.676        1292.476
  22957481.746    22957481.6234   22957486.0044  120642384.877 6  94007073.04744
      -874.123        -681.137
  22360762.943    22360762.7254   22360766.3844  117506619.367 7  91563621.91544
       728.707         567.825
 06  4 30  5 58 30.0000000  0 12G 3G 7G 8G10G15G16G18G19G21G26G27G29
  20977052.669    20977052.3404   20977056.3584  110235159.825 8  85897547.80246
       501.436         390.729
  22124070.536    22124069.7694   22124074.6774  116262768.496 7  90594382.38645
     -2603.167       -2028.440
  22559998.689    22559998.4744   22560002.9024  118553618.866 6  92379470.92244
      1243.399         968.891
  25001313.978    25001313.8184   25001320.1364  131382767.680 5 102376196.98141
     -3941.430       -3071.235
  20652183.279    20652182.5924   20652186.9134  108527961.701 8  84567260.57946
       350.564         273.166
  23865249.484    23865249.4104   23865253.6134  125412718.644 5  97724212.17541
     -3700.531       -2883.543
  22507982.872    22507982.6464   22507985.8804  118280268.405 7  92166468.07444
      2312.746        1802.143
  22833827.042    22833826.2914   22833828.9134  119992582.825 6  93500729.76244
      2906.001        2264.425
  21425513.823    21425513.4434   21425516.4294  112591834.300 7  87733914.85245
     -1596.543       -1244.059
  22267643.707    22267643.7324   22267648.1064  117017291.487 6  91182324.77044
      1636.354        1275.085
  22962524.143    22962523.8304   22962528.2144  120668881.375 7  94027719.68144
      -892.570        -695.513
  22356660.984    22356660.7694   22356664.6214  117485064.019 7  91546825.54444
       707.981         551.672
 06  4 30  5 59  0.0000000  0 12G 3G 7G 8G10G15G16G18G19G21G26G27G29
  20974246.891    20974246.6084   20974250.6444  110220415.873 8  85886059.01546
       481.199         374.962
  22138967.225    22138966.7184   22138971.8364  116341053.020 7  90655383.27645
     -2616.033       -2038.466
  22552958.650    22552957.9754   22552962.9534  118516622.124 7  92350642.25944
      1222.743         952.792
  25023829.155    25023828.3724   25023834.6534  131501085.624 5 102468392.74141
     -3946.696       -3075.385
  20650240.493    20650239.7854   20650244.1354  108517752.161 8  84559305.08146
       329.791         256.980
  23886395.251    23886395.4984   23886398.1874  125523839.752 5  97810799.98341
     -3707.712       -2889.139
  22494821.102    22494820.6294   22494824.4594  118211104.192 7  92112573.92544
      2297.848        1790.531
  22817268.068    22817267.0964   22817269.5604  119905563.072 7  93432922.18644
      2895.011        2255.857
  21434678.824    21434678.0904   21434681.0344  112639994.810 8  87771442.50445
     -1614.477       -1258.037
  22258363.726    22258363.8424   22258367.9014  116968523.986 7  91144324.14744
      1614.552        1258.091
  22967669.284    22967669.1464   22967673.4084  120695921.244 6  94048789.72344
      -910.378        -709.382
  22352676.000    22352675.5134   22352679.4114  117464121.576 6  91530506.75144
       687.863         535.997
 06  4 30  5 59 30.0000000  0 12G 3G 7G 8G10G15G16G18G19G21G26G27G29
  20971558.465    20971558.1164   20971562.1784  110206287.529 8  85875049.90946
       460.669         358.965
  22153939.338    22153938.7684   22153944.1174  116419731.599 7  90716691.20945
     -2629.162       -2048.690
  22546038.044    22546037.7294   22546042.4014  118480254.910 6  92322304.13044
      1201.746         936.419
  25046376.577    25046374.7344   25046380.9714  131619568.976 4 102560717.37541
     -3952.185       -3079.626
  20648417.832    20648417.0874   20648421.6664  108508174.070 8  84551841.63146
       308.724         240.569
  23907582.923    23907583.1184   23907587.5674  125635183.499 5  97897561.26941
     -3715.191       -2894.975
  22481746.419    22481746.0704   22481749.7884  118142396.012 7  92059035.10844
      2282.633        1778.682
  22800772.809    22800772.0804   22800774.4174  119818881.971 7  93365378.49444
      2883.664        2247.009
  21443947.160    21443946.6104   21443949.3824  112688700.539 8  87809394.99645
     -1632.599       -1272.151
  22249209.393    22249209.7944   22249213.7894  116920420.150 6  91106840.65544
      1592.341        1240.789
  22972918.153    22972917.8474   22972922.2094  120723503.145 6  94070282.11844
      -928.428        -723.441
  22348807.359    22348807.0304   22348811.0624  117443792.341 7  91514665.78544
       667.419         520.079
 06  4 30  6  0  0.0000000  0 12G 3G 7G 8G10G15G16G18G19G21G26G27G29
  20968986.900    20968986.4504   20968990.5034  110192773.359 8  85864519.38746
       440.022         342.879
  22168985.630    22168985.0604   22168990.6684  116498800.544 7  90778303.32745
     -2642.321       -2058.949
  22539237.563    22539236.7674   22539241.6964  118444516.906 7  92294456.38744
      1180.558         919.918
  25068953.771    25068952.2254   25068958.1044  131738213.032 5 102653167.17241
     -3957.601       -3083.837
  20646714.949    20646714.3084   20646718.6974  108499225.867 8  84544869.00646
       287.582         224.090
  23928813.422    23928813.1494   23928816.2484  125746745.189 5  97984492.42041
     -3722.584       -2900.731
  22468758.601    22468758.3284   22468762.0374  118074144.305 7  92005851.99344
      2267.236        1766.673
  22784342.775    22784341.6874   22784343.8284  119732539.617 6  93298098.75244
      2872.231        2238.101
  21453318.601    21453318.0414   21453321.0504  112737947.993 7  87847769.61945
     -1650.787       -1286.324
  22240182.073    22240182.1594   22240186.6634  116872979.889 7  91069874.25644
      1570.083        1223.448
  22978269.383    22978268.9774   22978273.8074  120751624.357 6  94092194.73744
      -946.560        -737.578
  22345055.263    22345055.3194   22345059.2754  117424075.463 7  91499301.99544
       646.802         504.007
 06  4 30  6  0 30.0000000  0 12G 3G 7G 8G10G15G16G18G19G21G26G27G29
  20966532.819    20966532.5244   20966536.5424  110179877.529 8  85854470.69646
       419.513         326.897
  22184106.709    22184106.1754   22184111.4504  116578261.507 7  90840220.90745
     -2655.296       -2069.058
  22532557.373    22532556.5304   22532561.6334  118409413.260 7  92267102.99244
      1159.505         903.513
  25091562.660    25091560.6024   25091567.7214  131857018.607 5 102745742.91241
     -3962.896       -3087.985
  20645132.912    20645132.1404   20645136.5094  108490911.365 8  84538390.17246
       266.546         207.697
  23950083.850    23950084.1544   23950088.0804  125858525.898 5  98071594.20741
     -3729.746       -2906.291
  22455859.004    22455858.5684   22455861.8094  118006354.997 7  91953029.17344
      2251.875        1754.700
  22767977.645    22767976.8464   22767978.9194  119646541.765 7  93231087.47344
      2860.768        2229.167
  21462793.602    21462793.1934   21462795.9154  112787739.489 8  87886568.17045
     -1668.802       -1300.366
  22231281.617    22231281.7304   22231286.1254  116826208.865 7  91033429.32744
      1547.812        1206.076
  22983723.831    22983723.8284   22983727.9494  120780287.447 6  94114529.59944
      -964.531        -751.582
  22341420.523    22341420.3784   22341424.4084  117404975.156 7  91484418.63544
       626.334         488.054
 06  4 30  6  1  0.0000000  0 12G 3G 7G 8G10G15G16G18G19G21G26G27G29
  20964196.699    20964196.2634   20964200.4594  110167601.035 8  85844904.60046
       398.849         310.794
  22199302.042    22199301.6124   22199306.7914  116658113.156 7  90902442.93145
     -2668.226       -2079.140
  22525998.254    22525997.6024   22526002.6204  118374945.004 6  92240244.62444
      1138.294         886.987
  25114201.048    25114199.3454   25114203.9344  131975983.565 5 102838442.88441
     -3968.178       -3092.095
  20643671.488    20643670.7004   20643675.1714  108483231.645 8  84532405.97246
       245.372         191.198
  23971396.167    23971396.3964   23971399.6164  125970523.332 5  98158864.86141
     -3736.802       -2911.764
  22443047.263    22443046.9574   22443050.0104  117939030.347 7  91900568.43344
      2236.395        1742.647
  22751679.082    22751678.2424   22751680.3864  119560890.871 6  93164346.53644
      2849.165        2220.131
  21472371.882    21472371.4864   21472374.0414  112838073.806 8  87925789.69645
     -1686.859       -1314.434
  22222509.587    22222509.4754   22222514.2184  116780109.538 6  90997507.80544
      1525.385        1188.619
  22989281.349    22989281.2404   22989285.1374  120809492.379 6  94137286.64844
      -982.559        -765.633
  22337903.419    22337903.2334   22337907.3974  117386492.490 7  91470016.56944
       605.771         472.026
 06  4 30  6  1 30.0000000  0 12G 3G 7G 8G10G15G16G18G19G21G26G27G29
  20961977.696    20961977.2874   20961981.3474  110155940.282 8  85835818.29946
       378.529         294.955
  22214570.513    22214570.0774   22214575.0254  116738349.486 7  90964964.69045
     -2680.823       -2088.957
  22519560.268    22519559.4894   22519563.9554  118341110.201 7  92213879.84544
      1117.345         870.659
  25136868.560    25136865.3844   25136872.7204  132095101.454 5 102931261.92341
     -3973.126       -3095.952
  20642330.167    20642329.4364   20642333.8924  108476183.205 8  84526913.69246
       224.507         174.939
  23992748.909    23992749.3904   23992753.5464  126082730.877 5  98246299.26141
     -3743.601       -2917.088
  22430323.540    22430323.4454   22430326.8074  117872168.609 7  91848468.40244
      2221.140        1730.756
  22735445.524    22735445.0114   22735446.9374  119475585.639 7  93097874.92844
      2837.829        2211.304
  21482052.521    21482051.9724   21482054.7524  112888945.566 8  87965430.02245
     -1704.575       -1328.241
  22213864.553    22213864.3974   22213868.6284  116734679.854 6  90962108.08644
      1503.241        1171.358
  22994941.178    22994940.6324   22994944.9534  120839234.317 6  94160462.18844
     -1000.255        -779.417
  22334503.038    22334503.2674   22334506.8484  117368624.652 7  91456093.59244
       585.453         456.194
 06  4 30  6  2  0.0000000  0 12G 3G 7G 8G10G15G16G18G19G21G26G27G29
  20959876.001    20959875.7034   20959879.7604  110144895.901 8  85827212.29046
       357.883         278.868
  22229911.978    22229911.5114   22229916.1674  116818968.689 7  91027784.80745
     -2693.654       -2098.944
  22513241.829    22513241.4684   22513246.0364  118307910.547 6  92188010.00344
      1096.072         854.077
  25159563.443    25159562.1924   25159568.9404  132214369.395 5 103024197.96441
     -3978.134       -3099.840
  20641109.061    20641108.3774   20641112.7304  108469766.296 8  84521913.51046
       203.391         158.486
  24014140.969    24014141.3354   24014144.7244  126195146.371 5  98333895.69641
     -3750.517       -2922.447
  22417688.666    22417688.3964   22417691.8654  117805771.805 7  91796730.65744
      2205.471        1718.540
  22719279.054    22719278.2484   22719280.4834  119390628.556 7  93031674.61244
      2826.094        2202.150
  21491835.180    21491834.6254   21491837.4114  112940353.745 8  88005488.32645
     -1722.527       -1342.226
  22205347.304    22205347.1784   22205351.5074  116689921.809 6  90927231.70244
      1480.714        1153.805
  23000703.181    23000702.5664   23000706.9634  120869512.262 6  94184055.36844
     -1018.159        -793.371
  22331220.335    22331219.9494   22331224.1334  117351372.191 7  91442650.13944
       564.820         440.118
 06  4 30  6  2 30.0000000  0 12G 3G 7G 8G10G15G16G18G19G21G26G27G29
  20957890.958    20957890.4634   20957894.5444  110134463.967 8  85819083.51246
       337.324         262.854
  22245324.929    22245324.3464   22245329.2714  116899964.841 7  91090898.65844
     -2706.342       -2108.831
  22507044.577    22507044.1614   22507048.7594  118275342.791 6  92162632.43644
      1074.837         837.548
  25182286.126    25182284.8884   25182292.0944  132333780.269 4 103117245.31041
     -3983.008       -3103.619
  20640007.305    20640006.6454   20640010.9544  108463976.687 8  84517402.12246
       182.342         142.090
  24035571.259    24035570.5644   24035575.8774  126307762.811 5  98421648.76841
     -3757.386       -2927.830
  22405142.146    22405141.9324   22405145.1784  117739838.033 7  91745353.71044
      2189.845        1706.372
  22703178.132    22703177.1384   22703179.3984  119306017.044 7  92965743.53944
      2814.397        2193.043
  21501719.019    21501718.4814   21501721.0094  112992292.647 8  88045960.18245
     -1740.316       -1356.085
  22196957.399    22196957.3974   22196961.8234  116645832.806 6  90892876.64244
      1458.226        1136.288
  23006565.602    23006565.2494   23006570.0204  120900321.054 7  94208062.17444
     -1036.011        -807.274
  22328053.402    22328053.1514   22328057.4514  117334731.383 7  91429683.28644
       544.301         424.132
 06  4 30  6  3  0.0000000  0 12G 3G 7G 8G10G15G16G18G19G21G26G27G29
  20956023.308    20956023.0524   20956027.0234  110124650.494 8  85811436.65046
       316.810         246.865
  22260810.185    22260809.6844   22260814.5814  116981341.141 7  91154308.71644
     -2718.903       -2118.635
  22500969.233    22500968.5794   22500972.9804  118243413.927 7  92137752.72244
      1053.632         821.011
  25205038.174    25205036.6234   25205043.0184  132453336.861 4 103210406.13041
     -3987.544       -3107.189
  20639026.148    20639025.4464   20639029.7134  108458820.313 8  84513384.16746
       161.308         125.693
  24057040.360    24057039.9234   24057044.6244  126420582.859 5  98509560.43541
     -3764.101       -2933.101
  22392684.974    22392684.6454   22392687.8444  117674374.739 7  91694343.36244
      2174.245        1694.211
  22687144.132    22687143.5334   22687145.6094  119221758.702 6  92900087.63644
      2802.708        2183.931
  21511704.108    21511703.5794   21511706.3464  113044765.584 8  88086848.15845
     -1758.004       -1369.875
  22188696.175    22188695.9604   22188700.4394  116602420.453 6  90859048.85244
      1435.781        1118.801
  23012530.364    23012530.1414   23012534.3074  120931665.552 6  94232486.42444
     -1053.738        -821.086
  22325004.626    22325004.3554   22325008.4424  117318708.495 7  91417197.91844
       523.794         408.151
 06  4 30  6  3 30.0000000  0 13G 3G 7G 8G10G15G16G18G19G21G22G26G27
                                G29
  20954274.446    20954274.0954   20954278.0894  110115459.580 8  85804274.90346
       296.097         230.724
  22276368.374    22276367.9224   22276372.9324  117063099.592 7  91218016.53544
     -2731.493       -2128.434
  22495015.424    22495014.9824   22495019.7734  118212129.889 6  92113375.68944
      1032.164         804.279
  25227814.884    25227814.8034   25227822.1704  132573040.641 4 103303681.70441
     -3992.435       -3111.007
  20638166.276    20638165.5234   20638169.7364  108454301.408 8  84509862.93046
       140.125         109.185
  24078548.007    24078548.1794   24078552.2714  126533607.551 5  98597631.57841
     -3770.736       -2938.253
  22380318.219    22380317.9524   22380321.1054  117609387.566 7  91643704.01044
      2158.404        1681.874
  22671179.059    22671177.9274   22671180.3094  119137859.649 7  92834711.72144
      2790.746        2174.604
  21521791.443    21521790.9824   21521793.8234  113097775.333 8  88128154.43245
     -1775.826       -1383.760
  24448743.535                                   128479017.284 4
      3569.714
  22180565.097    22180565.0434   22180568.9434  116559690.210 7  90825752.56944
      1413.041        1101.071
  23018597.532    23018596.9624   23018601.3444  120963548.379 6  94257330.20944
     -1071.620        -835.028
  22322074.094    22322073.6764   22322077.9294  117303307.923 7  91405197.47644
       503.058         391.993
 06  4 30  6  4  0.0000000  0 13G 3G 7G 8G10G15G16G18G19G21G22G26G27
                                G29
  20952643.769    20952643.4474   20952647.5184  110106890.525 8  85797597.70846
       275.382         214.580
  22291998.739    22291998.2144   22292003.2834  117145237.277 7  91282019.87744
     -2744.071       -2138.237
  22489185.052    22489184.5334   22489189.1994  118181489.983 7  92089500.47244
      1010.686         787.555
  25250620.772    25250620.2794   25250627.5184  132692887.522 4 103397068.76841
     -3997.022       -3114.546
  20637427.383    20637426.6494   20637431.1204  108450418.845 8  84506837.55346
       118.914          92.662
  24100093.670    24100094.8304   24100098.6514  126646833.540 4  98685859.56241
     -3777.384       -2943.400
  22368042.255    22368042.0774   22368045.3124  117544877.668 7  91593436.58644
      2142.468        1669.460
  22655281.987    22655281.0984   22655283.4474  119054320.800 7  92769616.48544
      2778.733        2165.253
  21531980.375    21531980.0194   21531983.0614  113151319.231 8  88169876.93645
     -1793.545       -1397.566
  24428380.787                                   128372010.292 4
      3564.351
  22172563.346    22172563.4604   22172567.7234  116517642.898 6  90792988.45444
      1390.343        1083.389
  23024766.600    23024765.9594   23024770.5394  120995967.150 6  94282591.55544
     -1089.426        -848.901
  22319261.575    22319261.5714   22319265.3334  117288529.181 7  91393681.57344
       482.404         375.897
 06  4 30  6  4 30.0000000  0 12G 3G 7G 8G15G16G18G19G21G22G26G27G29
  20951130.883    20951130.4554   20951134.4344  110098939.646 8  85791402.21146
       254.773         198.525
  22307700.241    22307699.4144   22307704.8004  117227748.104 7  91346313.97844
     -2756.499       -2147.923
  22483476.248    22483476.1814   22483481.2314  118151491.796 6  92066125.24944
       989.295         770.875
  20636808.922    20636808.2504   20636812.6194  108447169.042 8  84504305.23546
        97.830          76.232
  24121677.951    24121677.7964   24121678.1104  126760253.894 5  98774239.01141
     -3783.909       -2948.539
  22355856.999    22355856.6884   22355859.9094  117480842.972 7  91543539.43745
      2126.591        1657.082
  22639453.284    22639452.3794   22639454.8154  118971140.554 7  92704800.69444
      2766.715        2155.878
  21542270.209    21542269.5914   21542272.5384  113205391.650 8  88212011.26745
     -1811.157       -1411.293
  24408047.587                                   128265159.625 4
      3559.035
  22164692.051    22164691.6744   22164696.0404  116476276.179 6  90760754.66144
      1367.650        1065.705
  23031036.386    23031036.5454   23031040.6314  121028917.274 6  94308266.96344
     -1107.130        -862.699
  22316567.069    22316566.8754   22316570.9074  117274368.874 7  91382647.57344
       461.768         359.821
 06  4 30  6  5  0.0000000  0 12G 3G 7G 8G15G16G18G19G21G22G26G27G29
  20949736.182    20949735.8114   20949739.6454  110091610.413 8  85785691.11746
       234.000         182.338
  22323472.801    22323472.4094   22323477.3674  117310633.160 7  91410899.69144
     -2768.951       -2157.619
  22477891.186    22477890.9764   22477895.1934  118122139.882 7  92043253.65344
       967.699         754.044
  20636311.643    20636310.9014   20636315.2014  108444555.142 8  84502268.43246
        76.616          59.701
  24143297.585    24143298.2754   24143301.5324  126873869.273 4  98862770.42341
     -3790.212       -2953.409
  22343763.199    22343762.8404   22343765.8034  117417288.615 7  91494016.57845
      2110.540        1644.578
  22623693.774    22623692.9234   22623695.2314  118888324.175 7  92640268.54344
      2754.554        2146.403
  21552660.759    21552660.1414   21552663.0884  113259994.503 7  88254558.93745
     -1828.823       -1425.057
  24387744.503                                   128158470.955 4
      3553.575
  22156950.336    22156950.5384   22156954.5064  116435594.747 7  90729054.87944
      1344.671        1047.789
  23037408.632    23037408.3324   23037412.3144  121062400.681 6  94334357.92144
     -1124.892        -876.534
  22313991.003    22313990.5774   22313994.8554  117260830.546 7  91372098.23944
       440.964         343.611
 06  4 30  6  5 30.0000000  0 12G 3G 7G 8G15G16G18G19G21G22G26G27G29
  20948459.800    20948459.5494   20948463.5034  110084903.539 8  85780464.98046
       213.263         166.180
  22339316.473    22339315.8964   22339321.0314  117393890.759 7  91475775.70344
     -2781.378       -2167.304
  22472428.761    22472428.3624   22472433.1184  118093435.602 6  92020886.73644
       946.055         737.184
  20635935.219    20635934.5654   20635938.8504  108442577.494 8  84500727.40846
        55.371          43.144
  24164954.754    24164954.4354   24164958.4054  126987677.151 5  98951451.88741
     -3796.735       -2958.494
  22331760.596    22331760.4404   22331763.7474  117354216.718 7  91444869.66545
      2094.369        1631.978
  22608003.865    22608003.0594   22608005.3574  118805873.760 7  92576021.49844
      2742.275        2136.832
  21563151.757    21563151.4564   21563154.2614  113315125.728 7  88297518.32345
     -1846.450       -1438.795
  24367473.749                                   128051946.871 4
      3548.103
  22149340.099    22149339.7614   22149343.7724  116395600.839 6  90697890.81444
      1321.740        1029.932
  23043881.080    23043881.0314   23043885.4104  121096416.457 6  94360863.71944
     -1142.628        -890.357
  22311533.186    22311532.9264   22311537.1344  117247915.046 7  91362034.21544
       420.184         327.419
 06  4 30  6  6  0.0000000  0 12G 3G 7G 8G15G16G18G19G21G22G26G27G29
  20947301.835    20947301.3934   20947305.3194  110078817.880 8  85775722.89646
       192.483         149.982
  22355230.239    22355229.4024   22355234.3694  117477517.700 7  91540939.50944
     -2793.730       -2176.936
  22467089.067    22467088.8514   22467093.9304  118065378.645 7  91999024.17844
       924.435         720.344
  20635679.870    20635679.1624   20635683.5014  108441235.052 8  84499681.34946
        34.177          26.628
  24186647.782    24186647.5594   24186650.7194  127101673.680 5  99040280.26541
     -3803.093       -2963.467
  22319850.602    22319850.0444   22319853.4964  117291628.150 7  91396099.37945
      2078.191        1619.375
  22592384.092    22592383.1884   22592385.4214  118723790.288 7  92512060.37844
      2729.969        2127.242
  21573743.256    21573742.6584   21573745.6264  113370782.810 8  88340887.46245
     -1863.977       -1452.449
  24347234.090                                   127945588.692 4
      3542.503
  22141859.544    22141859.6674   22141863.9354  116356294.696 6  90667262.67444
      1298.742        1012.003
  23050454.964    23050454.4814   23050459.5644  121130962.304 6  94387782.54944
     -1160.383        -904.197
  22309193.708    22309193.2944   22309197.3204  117235621.480 6  91352454.82244
       399.411         311.226
 06  4 30  6  6 30.0000000  0 12G 3G 7G 8G15G16G18G19G21G22G26G27G29
  20946262.551    20946262.2334   20946266.2044  110073356.807 8  85771467.50846
       171.707         133.799
  22371214.286    22371213.6124   22371218.7684  117561515.029 7  91606391.91844
     -2806.035       -2186.518
  22461874.999    22461874.3464   22461878.8964  118037973.331 6  91977669.37744
       902.690         703.393
  20635545.862    20635545.1444   20635549.4504  108440531.052 8  84499132.76646
        12.909          10.060
  24208376.688    24208375.7694   24208382.9624  127215859.460 4  99129256.11541
     -3809.257       -2968.247
  22308033.234    22308033.0364   22308036.1624  117229527.699 7  91347709.43045
      2061.924        1606.694
  22576834.759    22576833.9814   22576836.3404  118642078.956 7  92448389.19345
      2717.550        2117.563
  21584434.563    21584434.1914   21584437.2274  113426967.339 7  88384667.58945
     -1881.495       -1466.099
  24327027.314                                   127839401.865 5
      3536.819
  22134511.816    22134511.8854   22134516.3194  116317681.158 6  90637174.21644
      1275.590         993.967
  23057130.341    23057130.0284   23057134.5664  121166040.365 6  94415116.09544
     -1178.035        -917.944
  22306973.013    22306973.1884   22306976.7564  117223953.629 7  91343362.99444
       378.586         294.996
 06  4 30  6  7  0.0000000  0 12G 3G 7G 8G15G16G18G19G21G22G26G27G29
  20945341.330    20945341.0074   20945344.9224  110068515.485 8  85767695.05146
       151.060         117.706
  22387267.467    22387266.8374   22387272.3694  117645875.813 7  91672127.55544
     -2818.049       -2195.878
  22456783.075    22456782.6654   22456786.8994  118011216.467 7  91956819.95444
       881.154         686.612
  20635532.315    20635531.6634   20635535.9054  108440460.586 8  84499077.86046
        -8.206          -6.393
  24230139.944    24230139.0954   24230145.9954  127330226.915 4  99218373.59941
     -3815.181       -2972.844
  22296308.177    22296307.9644   22296310.9764  117167912.489 7  91299697.60145
      2045.713        1594.060
  22561356.062    22561355.0474   22561357.6124  118560737.052 7  92385005.92445
      2705.225        2107.976
  21595225.493    21595224.9924   21595227.8444  113483672.766 7  88428853.62345
     -1898.835       -1479.610
  24306852.657                                   127733383.737 5
      3531.146
  22127295.020    22127295.3454   22127299.5104  116279756.788 7  90607622.77844
      1252.683         976.117
  23063905.878    23063905.4994   23063909.5474  121201644.584 6  94442859.62044
     -1195.554        -931.603
  22304871.015    22304870.9074   22304874.8994  117212906.994 7  91334755.23344
       357.911         278.897
 06  4 30  6  7 30.0000000  0 12G 3G 7G 8G15G16G18G19G21G22G26G27G29
  20944538.917    20944538.4864   20944542.4594  110064298.191 8  85764408.83846
       130.350         101.575
  22403390.496    22403389.8024   22403394.7514  117730602.080 7  91738147.98044
     -2830.083       -2205.265
  22451815.184    22451814.7244   22451819.5464  117985112.947 7  91936479.61744
       859.403         669.659
  20635640.396    20635639.7054   20635644.0244  108441027.752 8  84499519.79946
       -29.350         -22.866
  24251937.997    24251937.3854   24251942.7074  127444777.265 4  99307633.60341
     -3821.156       -2977.531
  22284676.602    22284676.3564   22284679.9354  117106788.819 7  91252068.78045
      2029.414        1581.356
  22545948.421    22545947.7784   22545949.8934  118479770.760 7  92321915.35145
      2692.770        2098.261
  21606115.779    21606115.1424   21606118.0204  113540901.143 7  88473447.13245
     -1916.142       -1493.098
  24286711.958    24286711.8124   24286716.2684  127627540.942 5  99450046.37941
      3525.337        2746.986
  22120210.481    22120210.7644   22120214.5424  116242527.228 6  90578612.73644
      1229.587         958.121
  23070781.645    23070781.3354   23070785.7794  121237777.497 6  94471015.10544
     -1213.040        -945.223
  22302888.009    22302887.8104   22302891.8554  117202485.969 7  91326634.95644
       337.141         262.710
 06  4 30  6  8  0.0000000  0 12G 3G 7G 8G15G16G18G19G21G22G26G27G29
  20943854.719    20943854.3044   20943858.1934  110060702.597 8  85761607.08446
       109.558          85.370
  22419582.101    22419581.4174   22419586.4834  117815689.270 7  91804449.63744
     -2842.165       -2214.672
  22446972.430    22446971.5814   22446976.3684  117959660.860 7  91916646.83544
       837.629         652.691
  20635868.954    20635868.3374   20635872.7864  108442229.899 8  84500456.53946
       -50.616         -39.442
  24273770.629    24273771.0384   24273770.4194  127559505.483 3  99397032.07941
     -3827.310       -2982.315
  22273138.816    22273138.4394   22273141.6604  117046155.857 7  91204822.33545
      2012.975        1568.559
  22530612.557    22530611.6174   22530613.5614  118399179.273 7  92259116.81445
      2680.195        2088.458
  21617104.685    21617104.1554   21617107.0394  113598648.311 8  88518444.90545
     -1933.475       -1506.606
  24266603.943    24266603.5194   24266606.6484  127521873.083 5  99367707.83841
      3519.448        2742.378
  22113258.194    22113258.0084   22113262.3724  116205991.431 6  90550143.29944
      1206.367         940.028
  23077757.319    23077757.0014   23077761.4124  121274435.717 6  94499579.93544
     -1230.625        -958.927
  22301023.517    22301023.3484   22301027.5314  117192688.249 7  91319000.36344
       316.237         246.421
 06  4 30  6  8 30.0000000  0 12G 3G 7G 8G15G16G18G19G21G22G26G27G29
  20943289.083    20943288.7404   20943292.6864  110057730.471 8  85759291.12846
        88.585          69.028
  22435841.954    22435841.3574   22435846.6904  117901136.740 7  91871032.02844
     -2854.366       -2224.176
  22442252.950    22442252.7234   22442257.6004  117934862.872 7  91897323.72244
       815.573         635.513
  20636218.879    20636218.3464   20636222.5984  108444068.475 8  84501889.18846
       -71.998         -56.098
  24295635.737                                   127674409.988 3
     -3833.074
  22261694.714    22261694.2124   22261697.4714  116986016.769 7  91157960.72445
      1996.262        1555.531
  22515348.804    22515347.6034   22515349.8674  118318966.361 7  92196613.26345
      2667.331        2078.444
  21628192.407    21628191.9044   21628194.6224  113656914.246 8  88563846.90945
     -1950.945       -1520.218
  24246529.926    24246529.9224   24246530.4804  127416384.136 5  99285508.67841
      3513.207        2737.548
  22106437.881    22106438.2724   22106442.4494  116170152.262 6  90522216.67844
      1182.906         921.750
  23084833.139    23084833.0494   23084837.2714  121311619.409 6  94528554.18844
     -1248.293        -972.695
  22299278.107    22299278.0294   22299281.7734  117183515.571 6  91311852.82344
       295.222         230.048
 06  4 30  6  9  0.0000000  0 12G 3G 7G 8G15G16G18G19G21G22G26G27G29
  20942841.779    20942841.4154   20942845.4604  110055379.858 8  85757459.47946
        67.946          52.944
  22452169.987    22452169.3734   22452174.7874  117986940.523 7  91937892.05344
     -2866.083       -2233.297
  22437658.955    22437658.5254   22437662.8924  117910718.697 6  91878510.12444
       793.860         618.588
  20636689.665    20636688.9994   20636693.3044  108446541.517 8  84503816.23146
       -93.057         -72.509
  24317535.082                                   127789486.351 4
     -3838.681
  22250344.394    22250344.0884   22250347.4694  116926371.470 7  91111483.88545
      1979.874        1542.763
  22500156.650    22500155.7604   22500157.7534  118239132.139 7  92134404.77745
      2654.727        2068.618
  21639378.110    21639377.7174   21639380.2984  113715695.694 7  88609650.61345
     -1967.986       -1533.496
  24226489.754    24226490.2494   24226494.4744  127311074.750 5  99203449.47841
      3507.250        2732.972
  22099750.731    22099750.7624   22099755.2124  116135009.521 7  90494832.75744
      1159.762         903.716
  23092008.432    23092008.0254   23092012.8304  121349325.822 6  94557935.82044
     -1265.623        -986.195
  22297651.240    22297651.2504   22297655.1804  117174966.577 7  91305191.27444
       274.509         213.897
 06  4 30  6  9 30.0000000  0 12G 3G 7G 8G15G16G18G19G21G22G26G27G29
  20942513.815    20942513.4034   20942517.4714  110053656.301 8  85756116.44746
        46.917          36.560
  22468566.533    22468566.0404   22468571.2704  118073104.311 7  92005032.61944
     -2878.183       -2242.743
  22433189.862    22433189.3814   22433193.9974  117887234.279 7  91860210.52144
       771.678         601.311
  20637282.146    20637281.4054   20637285.7894  108449654.711 9  84506242.08846
      -114.526         -89.242
  24339466.624                                   127904737.767 3
     -3844.747
  22239089.576    22239089.3044   22239092.4214  116867227.689 7  91065397.83245
      1963.006        1529.615
  22485038.238    22485037.3014   22485039.4454  118159684.384 7  92072497.41645
      2641.698        2058.474
  21650662.464    21650662.0784   21650665.0074  113774996.097 8  88655858.68945
     -1985.405       -1547.072
  24206486.095    24206485.5814   24206489.7124  127205952.989 5  99121536.49741
      3500.808        2727.917
  22093196.785    22093196.8804   22093201.7894  116100570.193 7  90467996.93844
      1136.155         885.318
  23099283.961    23099283.7354   23099288.0824  121387558.670 6  94587727.59844
     -1283.271        -999.945
  22296144.121    22296143.9734   22296147.7944  117167047.125 7  91299020.28644
       253.419         197.471
 06  4 30  6 10  0.0000000  0 12G 3G 7G 8G15G16G18G19G21G22G26G27G29
  20942304.866    20942304.5624   20942308.5174  110052558.482 8  85755261.00446
        26.030          20.282
  22485030.680    22485030.3024   22485035.4134  118159624.420 6  92072450.84844
     -2890.039       -2251.976
  22428846.880    22428846.0694   22428850.5844  117864409.581 7  91842425.02844
       749.737         584.213
  20637995.871    20637995.2754   20637999.6074  108453406.467 8  84509165.53146
      -135.835        -105.848
  24361430.499                                   128020159.838 4
     -3850.223
  22227930.393    22227930.2194   22227933.4594  116808585.386 7  91019702.54945
      1946.235        1516.546
  22469993.404    22469992.5184   22469994.5794  118080623.255 7  92010891.35245
      2628.776        2048.391
  21662045.067    21662044.7764   21662047.5764  113834812.261 7  88702468.67145
     -2002.543       -1560.423
  24186517.217    24186517.3734   24186521.3104  127101019.378 5  99039770.12141
      3494.501        2722.952
  22086777.109    22086777.3884   22086781.4264  116066834.067 7  90441709.07844
      1112.691         867.028
  23106659.455    23106659.0894   23106663.1764  121426315.536 6  94617927.74844
     -1300.744       -1013.559
  22294756.895    22294756.3864   22294760.3964  117159755.975 6  91293338.88844
       232.442         181.122
 06  4 30  6 10 30.0000000  0 12G 3G 7G 8G15G16G18G19G21G22G26G27G29
  20942215.335    20942215.0114   20942218.9324  110052088.015 8  85754894.41546
         5.266           4.103
  22501562.834    22501562.4114   22501567.4834  118246500.156 6  92140146.19244
     -2901.703       -2261.061
  22424629.366    22424628.5694   22424633.1564  117842246.710 7  91825155.24044
       727.779         567.106
  20638831.619    20638830.9114   20638835.2824  108457798.223 8  84512587.68146
      -157.007        -122.342
  24383425.898                                   128135751.422 4
     -3855.782
  22216867.277    22216867.0454   22216870.5104  116750448.171 7  90974400.84645
      1929.524        1503.523
  22455022.915    22455021.9784   22455024.1684  118001952.938 7  91949589.82245
      2615.863        2038.336
  21673525.764    21673525.3784   21673528.2364  113895143.706 7  88749480.17145
     -2019.556       -1573.670
  24166585.819    24166586.2364   24166588.6534  126996277.999 5  98958153.50741
      3488.225        2718.097
  22080491.941    22080491.8994   22080495.8094  116033803.932 7  90415971.32444
      1089.238         848.762
  23114133.931    23114133.8554   23114138.4184  121465596.749 6  94648536.49044
     -1318.021       -1027.030
  22293489.257    22293489.0034   22293492.9824  117153094.922 7  91288148.47344
       211.622         164.901
 06  4 30  6 11  0.0000000  0 12G 3G 7G 8G15G16G18G19G21G22G26G27G29
  20942244.822    20942244.5624   20942248.5664  110052243.496 8  85755015.57046
       -15.573         -12.135
  22518161.551    22518161.2954   22518166.4694  118333728.326 7  92208116.13944
     -2913.449       -2270.224
  22420537.447    22420536.7284   22420541.8244  117820745.731 7  91808401.18744
       705.683         549.878
  20639788.999    20639788.3174   20639792.4934  108462828.562 8  84516507.42046
      -178.301        -138.938
  24405454.245                                   128251508.624 4
     -3861.327
  22205900.325    22205900.0934   22205903.2814  116692816.476 7  90929493.03345
      1912.620        1490.349
  22440127.038    22440125.8544   22440128.1174  117923673.927 7  91888593.22045
      2602.781        2028.136
  21685104.116    21685103.5894   21685106.5634  113955987.419 8  88796890.83545
     -2036.635       -1586.986
  24146690.853    24146691.0254   24146694.0644  126891729.860 5  98876687.46941
      3481.694        2712.998
  22074341.019    22074340.8084   22074345.0144  116001480.063 7  90390783.92044
      1065.735         830.441
  23121708.029    23121707.7894   23121712.4264  121505399.831 6  94679551.87644
     -1335.409       -1040.571
  22292341.252    22292341.1324   22292345.0404  117147062.650 6  91283448.02544
       190.647         148.554
 06  4 30  6 11 30.0000000  0 12G 3G 7G 8G15G16G18G19G21G22G26G27G29
  20942393.065    20942392.6814   20942396.4624  110053021.478 8  85755621.79346
       -36.201         -28.216
  22534826.774    22534826.2484   22534831.8474  118421303.323 7  92276356.35044
     -2924.797       -2279.068
  22416571.025    22416570.8844   22416575.4334  117799903.873 6  91792160.76944
       683.799         532.836
  20640867.081    20640866.4044   20640870.6794  108468493.703 8  84520921.80546
      -199.323        -155.317
  24427511.690                                   128367425.388 4
     -3866.200
  22195029.260    22195029.0054   22195032.2694  116635688.692 7  90884977.89045
      1895.924        1477.344
  22425305.293    22425304.2614   22425306.6164  117845785.011 7  91827900.55345
      2589.882        2018.087
  21696778.855    21696778.2494   21696781.2434  114017337.820 7  88844696.31045
     -2053.384       -1600.037
  24126832.138    24126832.2994   24126834.8574  126787374.031 5  98795371.29941
      3475.425        2708.120
  22068323.933    22068323.9764   22068328.1134  115969860.255 7  90366145.12444
      1042.365         812.226
  23129381.400    23129380.8084   23129385.0294  121545719.818 6  94710970.03644
     -1352.479       -1053.871
  22291312.555    22291312.2294   22291316.0954  117141655.968 6  91279235.04644
       169.901         132.395
 06  4 30  6 12  0.0000000  0 12G 3G 7G 8G15G16G18G19G21G22G26G27G29
  20942658.745    20942658.4014   20942662.4204  110054417.877 8  85756709.89346
       -56.879         -44.319
  22551556.447    22551556.0284   22551561.4454  118509218.967 7  92344861.98244
     -2936.151       -2287.905
  22412730.317    22412729.9044   22412734.6114  117779717.565 7  91776431.09044
       661.895         515.765
  20642065.160    20642064.4584   20642068.7764  108474789.469 8  84525827.58346
      -220.385        -171.729
  24449600.713                                   128483494.972 3
     -3871.425
  22184253.701    22184253.3804   22184256.7244  116579062.717 7  90840853.76145
      1879.155        1464.273
  22410557.139    22410556.1834   22410558.5324  117768283.859 7  91767510.06045
      2576.871        2007.955
  21708548.815    21708548.2144   21708551.1624  114079189.801 7  88892892.62445
     -2070.099       -1613.062
  24107010.495    24107009.7214   24107013.1314  126683208.955 5  98714203.75842
      3468.917        2703.065
  22062440.433    22062440.3394   22062444.6214  115938941.741 7  90342052.78844
      1018.888         793.946
  23137151.488    23137150.8644   23137154.9504  121586551.488 6  94742786.93343
     -1369.582       -1067.207
  22290401.932    22290401.5604   22290405.5674  117136871.211 6  91275506.67844
       149.128         116.201
 06  4 30  6 12 30.0000000  0 12G 3G 7G 8G15G16G18G19G21G22G26G27G29
  20943043.089    20943042.6734   20943046.6974  110056437.563 8  85758283.66646
       -77.741         -60.578
  22568351.814    22568351.1314   22568356.5504  118597478.131 6  92413635.31744
     -2947.710       -2296.927
  22409014.758    22409014.3164   22409019.2034  117760193.293 7  91761217.46444
       639.750         498.509
  20643384.001    20643383.3634   20643387.7164  108481720.596 8  84531228.45846
      -241.671        -188.318
  24471717.859                                   128599719.285 4
     -3876.824
  22173574.810    22173574.5424   22173578.0364  116522944.747 7  90797125.49645
      1862.084        1450.968
  22395884.150    22395883.3304   22395885.5594  117691177.270 7  91707427.00745
      2563.591        1997.603
  21720414.695    21720414.1644   21720417.1314  114141546.122 7  88941481.94145
     -2086.973       -1626.211
  24087226.372    24087225.3894   24087228.9014  126579241.654 5  98633190.34142
      3462.207        2697.828
  22056691.310    22056691.2714   22056695.6014  115908730.595 7  90318511.65544
       995.189         775.475
  23145018.995    23145018.6114   23145023.2224  121627898.273 6  94775005.22743
     -1386.839       -1080.661
  22289610.487    22289610.1374   22289614.5804  117132713.340 6  91272266.79944
       128.106          99.822
 06  4 30  6 13  0.0000000  0 12G 3G 7G 8G15G16G18G19G21G22G26G27G29
  20943545.987    20943545.6724   20943549.6444  110059080.154 8  85760342.82246
       -98.331         -76.621
  22585211.697    22585211.1514   22585216.7464  118686078.367 7  92482674.38844
     -2958.943       -2305.670
  22405425.523    22405424.8194   22405429.6904  117741331.069 6  91746519.69644
       617.773         481.373
  20644823.653    20644822.9914   20644827.5334  108489286.551 8  84537123.99946
      -262.658        -204.668
  24493862.336                                   128716096.053 3
     -3881.398
  22162992.831    22162992.6244   22162995.8824  116467336.582 7  90753794.47345
      1845.225        1437.839
  22381286.728    22381285.7684   22381288.0074  117614467.081 7  91647652.84345
      2550.468        1987.375
  21732376.314    21732375.8674   21732378.7074  114204404.573 7  88990462.52945
     -2103.543       -1639.125
  24067480.144    24067479.7844   24067483.1614  126475474.336 5  98552332.74142
      3455.670        2692.729
  22051077.190    22051077.2174   22051081.3864  115879227.861 7  90295522.53844
       971.709         757.173
  23152984.976    23152984.5224   23152988.7074  121669758.531 6  94807623.61643
     -1403.754       -1093.827
  22288938.737    22288938.4734   22288942.3994  117129182.063 7  91269515.16944
       107.389          83.677
 06  4 30  6 13 30.0000000  0 12G 3G 7G 8G15G16G18G19G21G22G26G27G29
  20944167.327    20944166.9104   20944170.9904  110062345.357 8  85762887.12946
      -119.299         -92.956
  22602136.350    22602135.6434   22602141.3244  118775017.170 7  92551977.29744
     -2970.360       -2314.559
  22401962.356    22401961.9984   22401966.0614  117723131.639 6  91732338.25144
       595.458         463.995
  20646384.153    20646383.4654   20646388.0054  108497486.796 8  84543513.81446
      -284.009        -221.306
  24516036.446                                   128832621.304 3
     -3886.719
  22152508.176    22152507.8044   22152511.2194  116412239.536 7  90710861.73445
      1827.904        1424.343
  22366765.016    22366764.0504   22366766.3324  117538155.203 7  91588189.05545
      2536.985        1976.874
  21744433.247    21744432.5464   21744435.5844  114267762.961 7  89039832.69245
     -2120.380       -1652.244
  24047772.071    24047771.9584   24047773.9944  126371909.054 5  98471632.55142
      3448.700        2687.304
  22045597.613    22045597.6934   22045602.2584  115850434.431 7  90273086.11844
       947.856         738.585
  23161047.795    23161047.3874   23161052.1194  121712130.203 6  94840640.48643
     -1420.981       -1107.255
  22288386.179    22288385.7044   22288389.7264  117126277.182 7  91267251.64344
        86.288          67.241
 06  4 30  6 14  0.0000000  0 12G 3G 7G 8G15G16G18G19G21G22G26G27G29
  20944907.653    20944907.2964   20944911.3864  110066235.869 8  85765918.68646
      -140.082        -109.153
  22619125.377    22619124.7854   22619130.1684  118864295.256 7  92621544.59844
     -2981.537       -2323.267
  22398625.282    22398624.9354   22398629.3584  117705598.750 7  91718676.36844
       573.357         446.775
  20648065.888    20648065.1394   20648069.4454  108506323.858 8  84550399.84046
      -305.174        -237.797
  24538239.194                                   128949295.884 3
     -3891.589
  22142121.541    22142121.1914   22142124.7454  116357657.878 7  90668330.59645
      1810.815        1411.029
  22352320.201    22352319.1754   22352321.2824  117462246.069 7  91529039.07845
      2523.576        1966.428
  21756584.984    21756584.6154   21756587.3574  114331621.979 7  89089592.95845
     -2136.958       -1665.159
  24028104.131    24028103.1924   24028105.9244  126268550.913 6  98391093.76642
      3441.782        2681.909
  22040254.193    22040254.2604   22040258.3514  115822354.110 7  90251205.37344
       924.130         720.095
  23169208.491    23169208.3324   23169212.8534  121755015.034 6  94874057.21343
     -1437.999       -1120.520
  22287953.347    22287952.7604   22287956.6324  117124001.663 6  91265478.51644
        65.338          50.914
 06  4 30  6 14 30.0000000  0 12G 3G 7G 8G15G16G18G19G21G22G26G27G29
  20945767.005    20945766.6434   20945770.5214  110070751.637 8  85769437.46846
      -160.820        -125.317
  22636178.974    22636178.1434   22636183.6924  118953910.601 6  92691374.70644
     -2992.587       -2331.888
  22395415.814    22395415.4624   22395420.1494  117688732.538 7  91705533.90644
       551.243         429.534
  20649868.592    20649867.8254   20649872.1724  108515797.230 8  84557781.68546
      -326.263        -254.232
  24560468.787                                   129066117.023 3
     -3896.121
  22131833.531    22131833.2614   22131836.7124  116303593.612 7  90626202.61945
      1793.646        1397.644
  22337952.205    22337951.1404   22337953.4974  117386741.959 7  91470204.71145
      2510.162        1955.969
  21768832.116    21768831.5204   21768834.4334  114395980.477 7  89139742.41945
     -2153.407       -1677.984
  24008475.213    24008475.1024   24008478.1924  126165402.416 6  98310718.35642
      3434.851        2676.493
  22035046.835    22035046.7124   22035050.6494  115794988.091 7  90229881.19744
       900.432         701.633
  23177466.715    23177466.0954   23177471.0814  121798411.575 6  94907872.67043
     -1454.931       -1133.709
  22287639.681    22287639.3114   22287643.3654  117122355.232 7  91264195.57544
        44.530          34.695
 06  4 30  6 15  0.0000000  0 12G 3G 7G 8G15G16G18G19G21G22G26G27G29
  20946744.990    20946744.5964   20946748.4804  110075891.023 8  85773442.18746
      -181.856        -141.710
  22653295.446    22653294.9064   22653300.1164  119043859.706 6  92761464.87144
     -3003.967       -2340.747
  22392333.102    22392333.1004   22392337.5484  117672532.698 7  91692910.64944
       528.740         412.012
  20651792.153    20651791.3814   20651795.8254  108525905.662 8  84565658.38646
      -347.676        -270.916
  24582726.998                                   129183081.356 3
     -3901.430
  22121643.944    22121643.7234   22121647.0854  116250047.300 7  90584478.23745
      1776.090        1383.963
  22323661.413    22323660.4574   22323662.7834  117311643.737 7  91411686.62945
      2496.342        1945.203
  21781173.379    21781172.8524   21781175.7774  114460835.065 7  89190278.44245
     -2170.223       -1691.085
  23988886.892    23988887.2444   23988888.4654  126062464.861 6  98230507.33542
      3427.556        2670.809
  22029974.938    22029974.9474   22029978.9364  115768336.614 7  90209113.82944
       876.330         682.855
  23185821.810    23185821.3534   23185825.9214  121842317.573 6  94942085.17343
     -1472.116       -1147.104
  22287445.869    22287445.5714   22287449.6894  117121336.991 6  91263402.14844
        23.330          18.179
 06  4 30  6 15 30.0000000  0 11G 3G 7G 8G15G18G19G21G22G26G27G29
  20947841.588    20947841.2704   20947845.2174  110081654.188 8  85777932.96446
      -202.338        -157.665
  22670475.643    22670474.9304   22670480.4014  119134141.214 6  92831814.06044
     -3014.727       -2349.143
  22389377.888    22389377.2744   22389381.8854  117657000.831 7  91680807.91044
       506.803         394.919
  20653836.574    20653835.9274   20653840.3064  108536649.328 8  84574030.06646
      -368.539        -287.172
  22111553.436    22111553.0394   22111556.5004  116197020.956 7  90543159.01545
      1759.010        1370.652
  22309448.338    22309447.4134   22309449.6754  117236953.918 7  91353486.76745
      2482.963        1934.776
  21793609.067    21793608.6604   21793611.5434  114526184.647 7  89241200.17145
     -2186.339       -1703.640
  23969339.139    23969339.3364   23969341.1974  125959740.904 6  98150462.73042
      3420.728        2665.493
  22025039.290    22025039.3924   22025043.6274  115742400.723 7  90188904.04644
       852.753         664.487
  23194273.271    23194272.9464   23194277.6984  121886731.530 6  94976693.45043
     -1488.760       -1160.065
  22287372.002    22287371.3434   22287375.5304  117120947.315 6  91263098.48944
         2.669           2.084
 06  4 30  6 16  0.0000000  0 11G 3G 7G 8G15G18G19G21G22G26G27G29
  20949057.191    20949056.8164   20949060.7914  110088042.215 8  85782910.64146
      -223.286        -173.992
  22687718.624    22687717.9484   22687723.4054  119224753.669 7  92902421.10844
     -3025.831       -2357.789
  22386549.476    22386548.8984   22386553.4444  117642138.257 6  91669226.68644
       484.330         377.396
  20656002.225    20656001.4324   20656005.5784  108548028.856 8  84582897.22546
      -389.828        -303.761
  22101562.426    22101561.9394   22101565.4864  116144517.402 7  90502247.16545
      1741.491        1357.008
  22295313.616    22295312.7144   22295314.9514  117162675.329 7  91295607.37045
      2469.184        1924.042
  21806138.660    21806138.3834   21806141.1234  114592027.798 7  89292506.49945
     -2202.912       -1716.553
  23949833.088    23949832.8114   23949835.2174  125857234.161 6  98070587.38542
      3413.323        2659.744
  22020240.330    22020240.9844   22020244.9294  115717182.928 7  90169253.84444
       828.700         645.738
  23202822.039    23202821.2764   23202826.0334  121931653.319 6  95011697.41343
     -1505.747       -1173.319
  22287417.676    22287417.1004   22287421.2364  117121187.459 6  91263285.60744
       -18.418         -14.352
 06  4 30  6 16 30.0000000  0 11G 3G 7G 8G15G18G19G21G22G26G27G29
  20950391.788    20950391.3554   20950395.3264  110095055.257 8  85788375.34146
      -244.217        -190.301
  22705023.981    22705023.5704   22705029.2534  119315695.546 7  92973284.86044
     -3036.932       -2366.439
  22383848.844    22383848.5504   22383853.0504  117627946.357 7  91658168.08244
       461.862         359.885
  20658288.526    20658287.8154   20658292.2704  108560044.209 8  84592259.83446
      -411.140        -320.370
  22091671.026    22091670.6114   22091674.3394  116092538.541 7  90461744.16845
      1723.863        1343.276
  22281257.301    22281256.5064   22281258.9594  117088810.535 7  91238050.40445
      2455.220        1913.160
  21818761.819    21818761.5334   21818764.3364  114658363.242 7  89344196.42345
     -2219.408       -1729.406
  23930367.578    23930368.1714   23930370.4514  125754947.404 6  97990883.49443
      3405.838        2653.880
  22015578.742    22015578.7694   22015582.9864  115692684.442 6  90150164.13044
       804.584         626.948
  23211466.733    23211466.6674   23211470.4984  121977082.134 6  95047096.48343
     -1522.760       -1186.571
  22287582.976    22287582.7334   22287587.0594  117122057.623 7  91263963.65944
       -39.529         -30.804
 06  4 30  6 17  0.0000000  0 11G 3G 7G 8G15G18G19G21G22G26G27G29
  20951844.746    20951844.3344   20951848.2544  110102690.806 8  85794325.12846
      -264.980        -206.480
  22722391.530    22722391.3664   22722396.6424  119406962.374 6  93044401.80344
     -3047.712       -2374.844
  22381275.580    22381275.1724   22381280.0024  117614423.624 7  91647630.85144
       439.521         342.490
  20660695.451    20660694.8104   20660699.2554  108572692.837 8  84602115.90546
      -432.282        -336.844
  22081879.492    22081879.3194   22081882.6324  116041083.779 7  90421649.57045
      1706.303        1329.586
  22267280.113    22267279.3044   22267281.4874  117015359.355 7  91180815.74145
      2441.384        1902.376
  21831478.049    21831477.5094   21831480.6384  114725186.937 7  89396266.80545
     -2235.708       -1742.101
  23910945.257    23910945.2284   23910947.6064  125652880.361 6  97911350.80543
      3398.415        2648.106
  22011053.596    22011053.6174   22011057.9754  115668904.133 7  90131634.03944
       780.543         608.217
  23220207.261    23220206.8334   23220211.4214  122023013.851 6  95082887.44243
     -1539.590       -1199.677
  22287868.050    22287867.8524   22287871.9624  117123555.355 6  91265130.72844
       -60.518         -47.165
 06  4 30  6 17 30.0000000  0 11G 3G 7G 8G15G18G19G21G22G26G27G29
  20953416.815    20953416.5034   20953420.2954  110110951.704 8  85800762.19446
      -285.640        -222.581
  22739821.342    22739820.5414   22739826.0084  119498555.254 6  93115772.84044
     -3058.390       -2383.156
  22378830.019    22378829.6644   22378834.3724  117601573.094 7  91637617.39944
       417.256         325.137
  20663223.228    20663222.5474   20663227.0274  108585977.139 8  84612467.31046
      -453.258        -353.190
  22072188.849    22072188.3734   22072191.6894  115990157.859 7  90381967.04545
      1688.858        1315.995
  22253382.556    22253381.6874   22253383.7264  116942326.429 7  91123906.96945
      2427.538        1891.586
  21844287.333    21844286.8694   21844289.8554  114792499.872 7  89448718.42245
     -2251.751       -1754.616
  23891565.473    23891565.3234   23891567.6074  125551039.196 6  97831994.09643
      3391.093        2642.414
  22006665.821    22006665.7604   22006669.8804  115645845.873 7  90113666.58244
       756.706         589.639
  23229043.467    23229043.2094   23229047.7304  122069450.150 6  95119071.58643
     -1556.097       -1212.536
  22288272.682    22288272.8114   22288277.1144  117125683.687 7  91266789.17044
       -81.302         -63.361
 06  4 30  6 18  0.0000000  0 11G 3G 7G 8G15G18G19G21G22G26G27G29
  20955106.342    20955106.0034   20955110.1064  110119830.960 8  85807681.10146
      -306.389        -238.743
  22757311.135    22757310.6744   22757316.0924  119590465.029 6  93187390.78444
     -3069.025       -2391.450
  22376511.567    22376511.2204   22376515.4564  117589388.977 6  91628123.30744
       394.924         307.743
  20665870.910    20665870.1404   20665874.5844  108599890.053 8  84623308.53446
      -474.348        -369.620
  22062597.382    22062597.1244   22062600.2004  115939755.621 7  90342692.59145
      1671.204        1302.237
  22239563.590    22239562.5964   22239564.6444  116869707.094 7  91067320.48345
      2413.622        1880.740
  21857188.131    21857187.5404   21857190.6304  114860293.361 7  89501544.49545
     -2267.866       -1767.166
  23872227.769    23872227.1044   23872230.2334  125449418.844 6  97752809.41443
      3383.521        2636.498
  22002414.042    22002414.3304   22002418.1294  115623503.842 7  90096257.21244
       732.657         570.900
  23237974.537    23237974.2694   23237978.9324  122116382.586 6  95155642.26443
     -1572.791       -1225.553
  22288796.557    22288796.5094   22288800.6374  117128435.875 7  91268933.72944
      -102.253         -79.679
 06  4 30  6 18 30.0000000  0 11G 3G 7G 8G15G18G19G21G22G26G27G29
  20956914.652    20956914.2474   20956918.1304  110129332.693 8  85815085.05146
      -327.039        -254.838
  22774861.787    22774860.9484   22774867.1154  119682693.923 6  93259257.41144
     -3079.565       -2399.667
  22374320.647    22374320.3094   22374324.9784  117577876.496 6  91619152.55244
       372.588         290.330
  20668638.868    20668638.0394   20668642.5134  108614435.446 8  84634642.60446
      -495.332        -385.974
  22053106.983    22053106.5934   22053110.0534  115889882.944 7  90303830.78045
      1653.634        1288.545
  22225824.250    22225823.4904   22225825.7234  116797507.769 7  91011061.27245
      2399.661        1869.863
  21870180.513    21870180.0574   21870183.1654  114928569.670 7  89554746.79345
     -2283.863       -1779.633
  23852933.026    23852932.9924   23852935.9474  125348026.672 6  97673802.59143
      3375.964        2630.614
  21998299.983    21998299.9494   21998304.1404  115601883.497 7  90079410.20944
       708.682         552.220
  23247000.500    23247000.2634   23247004.7024  122163814.007 6  95192601.80143
     -1589.357       -1238.462
  22289439.509    22289439.5934   22289443.7084  117131815.966 7  91271567.58844
      -123.124         -95.948
 06  4 30  6 19  0.0000000  0 11G 3G 7G 8G15G18G19G21G22G26G27G29
  20958841.571    20958841.1524   20958845.1554  110139458.949 8  85822975.64346
      -347.852        -271.052
  22792473.238    22792472.6504   22792478.4724  119775242.504 6  93331373.14144
     -3090.168       -2407.918
  22372258.842    22372258.0244   22372262.9364  117567038.055 6  91610706.98844
       350.162         272.856
  20671527.596    20671526.8224   20671531.2794  108629615.521 8  84646471.22446
      -516.465        -402.437
  22043718.044    22043717.8304   22043721.3244  115840544.006 7  90265384.86845
      1635.833        1274.675
  22212166.157    22212165.2184   22212167.1774  116725732.905 7  90955132.81045
      2385.523        1858.847
  21883265.450    21883264.9944   21883267.3664  114997329.521 7  89608325.86845
     -2299.948       -1792.165
  23833682.890    23833682.7784   23833686.1044  125246867.310 6  97594977.16043
      3368.170        2624.565
  21994323.770    21994323.7334   21994328.0034  115580988.086 7  90063128.07444
       684.543         533.411
  23256121.587    23256121.3064   23256125.6004  122211745.601 6  95229951.08443
     -1605.913       -1251.354
  22290202.968    22290202.9664   22290207.0524  117135826.335 6  91274692.53144
      -144.065        -112.251
 06  4 30  6 19 30.0000000  0 11G 3G 7G 8G15G18G19G21G22G26G27G29
  20960886.322    20960885.9364   20960889.9544  110150204.302 8  85831348.63646
      -368.364        -287.034
  22810143.852    22810143.4474   22810148.8934  119868103.420 6  93403732.25444
     -3100.409       -2415.907
  22370323.359    22370323.0584   22370327.3774  117556869.271 6  91602783.30144
       327.913         255.512
  20674535.891    20674535.1234   20674539.5164  108645424.600 8  84658789.98446
      -537.290        -418.663
  22034430.302    22034429.8134   22034433.1584  115791735.491 7  90227352.27745
      1618.242        1260.964
  22198588.302    22198587.2564   22198589.3244  116654379.409 7  90899532.67945
      2371.550        1847.962
  21896440.497    21896440.0914   21896442.9504  115066566.150 7  89662276.46345
     -2315.659       -1804.403
  23814476.724    23814476.6724   23814479.3834  125145938.097 6  97516331.07843
      3360.533        2618.591
  21990484.380    21990484.7574   21990488.5794  115560813.469 7  90047407.61344
       660.566         514.724
  23265336.717    23265336.3694   23265340.8624  122260170.391 6  95267684.65443
     -1622.180       -1264.033
  22291085.403    22291084.8084   22291088.9734  117140461.806 6  91278304.59844
      -164.810        -128.426
 06  4 30  6 20  0.0000000  0 11G 3G 7G 8G15G18G19G21G22G26G27G29
  20963049.399    20963048.9344   20963052.9754  110161570.959 8  85840205.77446
      -389.229        -303.295
  22827874.455    22827873.9804   22827879.6084  119961276.866 6  93476334.89244
     -3110.922       -2424.093
  22368515.933    22368515.5974   22368520.4914  117547373.315 6  91595383.87944
       305.338         237.923
  20677664.411    20677663.6474   20677668.0914  108661864.629 8  84671600.39346
      -558.483        -435.181
  22025243.651    22025243.5264   22025246.6984  115743461.158 7  90189735.94045
      1600.250        1246.943
  22185090.972    22185089.9814   22185092.0284  116583451.798 7  90844264.42245
      2357.135        1836.731
  21909706.484    21909705.8874   21909709.1264  115136279.377 7  89716598.43645
     -2331.678       -1816.887
  23795315.132    23795315.1084   23795318.1844  125045243.928 6  97437868.14243
      3352.556        2612.380
  21986782.702    21986783.0374   21986787.1994  115541362.710 7  90032251.18544
       636.339         495.852
  23274646.070    23274645.5874   23274649.8744  122309089.870 6  95305803.71443
     -1638.821       -1277.000
  22292086.737    22292086.4314   22292090.3634  117145724.651 6  91282405.50344
      -185.826        -144.801
 06  4 30  6 20 30.0000000  0 11G 3G 7G 8G15G18G19G21G22G26G27G29
  20965330.636    20965330.3724   20965334.2644  110173559.409 8  85849547.41146
      -410.065        -319.535
  22845664.158    22845663.5304   22845668.9134  120054761.660 6  93549180.12344
     -3121.433       -2432.282
  22366837.690    22366837.1234   22366841.7014  117538551.402 7  91588509.69644
       282.740         220.314
  20680912.936    20680912.1974   20680916.7754  108678935.978 8  84684902.72746
      -579.668        -451.691
  22016159.493    22016159.2764   22016162.6094  115695723.500 7  90152537.77545
      1582.178        1232.863
  22171675.409    22171674.5164   22171676.8764  116512952.906 7  90789330.24145
      2342.717        1825.492
  21923063.255    21923062.7484   21923065.6204  115206468.585 7  89771291.29745
     -2347.656       -1829.347
  23776199.076    23776199.3594   23776202.0304  124944788.011 6  97359590.85243
      3344.421        2606.044
  21983220.089    21983219.9604   21983224.1874  115522637.736 7  90017660.30744
       611.989         476.871
  23284048.912    23284048.3964   23284053.1154  122358502.948 6  95344307.41843
     -1655.416       -1289.938
  22293207.587    22293207.2924   22293211.4184  117151615.262 7  91286995.58644
      -206.955        -161.264
 06  4 30  6 21  0.0000000  0 11G 3G 7G 8G15G18G19G21G22G26G27G29
  20967730.933    20967730.6844   20967734.5864  110186173.490 8  85859376.56346
      -430.849        -335.724
  22863513.447    22863513.1934   22863518.4474  120148559.974 6  93622269.66544
     -3131.778       -2440.336
  22365287.914    22365287.8524   22365292.1014  117530407.837 7  91582164.05144
       260.144         202.711
  20684282.401    20684281.6064   20684285.9814  108696642.345 8  84698699.89646
      -600.762        -468.123
  22007178.673    22007178.4224   22007181.7984  115648528.107 7  90115762.16945
      1564.168        1218.832
  22158342.663    22158341.8514   22158343.8834  116442888.904 7  90734734.93345
      2328.200        1814.182
  21936510.723    21936510.2254   21936513.1634  115277136.238 7  89826356.97345
     -2363.519       -1841.700
  23757129.722    23757129.4274   23757132.2514  124844576.991 6  97281504.39143
      3336.270        2599.696
  21979795.936    21979795.6994   21979800.1174  115504643.574 7  90003638.89544
       587.608         457.877
  23293546.275    23293545.7094   23293550.2604  122408412.182 6  95383197.70443
     -1671.891       -1302.758
  22294449.059    22294448.6834   22294452.7004  117158137.943 7  91292078.18844
      -227.948        -177.616
 06  4 30  6 21 30.0000000  0 11G 3G 7G 8G15G18G19G21G22G26G27G29
  20970250.000    20970249.6374   20970253.7794  110199411.393 8  85869691.80546
      -451.563        -351.868
  22881421.829    22881420.9984   22881426.6744  120242668.225 6  93695600.70044
     -3141.962       -2448.273
  22363866.942    22363866.5954   22363871.2644  117522942.100 6  91576346.60144
       237.641         185.178
  20687772.425    20687771.7154   20687775.8464  108714981.878 8  84712990.43846
      -621.785        -484.509
  21998300.874    21998300.5724   21998304.1164  115601875.352 7  90079409.39245
      1546.123        1204.766
  22145092.876    22145091.8684   22145094.0204  116373260.215 7  90680478.82645
      2313.748        1802.920
  21950048.811    21950048.1944   21950051.1314  115348278.451 7  89881792.43845
     -2379.229       -1853.943
  23738107.066    23738107.1954   23738109.5204  124744612.225 6  97203609.80843
      3328.131        2593.343
  21976510.780    21976510.8504   21976514.7994  115487379.461 7  89990186.35844
       563.336         438.961
  23303137.173    23303136.7814   23303141.7874  122458814.702 6  95422472.37943
     -1688.188       -1315.474
  22295810.123    22295809.8644   22295813.7614  117165291.035 7  91297652.02144
      -248.860        -193.916
 06  4 30  6 22  0.0000000  0 11G 3G 7G 8G15G18G19G21G22G26G27G29
  20972888.259    20972887.7704   20972892.0794  110213274.627 8  85880494.31146
      -472.489        -368.181
  22899388.858    22899388.5954   22899393.7474  120337086.358 6  93769173.21744
     -3152.396       -2456.411
  22362575.496    22362575.3754   22362579.7984  117516156.511 7  91571059.12944
       214.877         167.431
  20691382.806    20691382.0954   20691386.4524  108733955.905 8  84727775.39046
      -642.992        -501.035
  21989526.616    21989526.6574   21989529.9414  115555768.586 7  90043482.05145
      1527.782        1190.487
  22131926.733    22131925.5934   22131927.7274  116304070.946 7  90626565.13445
      2299.010        1791.434
  21963677.098    21963676.4604   21963679.4894  115419895.503 7  89937597.91045
     -2395.058       -1866.280
  23719132.307    23719132.0204   23719134.7154  124644897.881 6  97125910.35443
      3319.580        2586.691
  21973364.563    21973364.6334   21973368.9784  115470848.321 7  89977304.96144
       538.848         419.880
  23312822.633    23312822.1644   23312826.9154  122509710.810 6  95462131.64443
     -1704.768       -1328.393
  22297291.556    22297291.2344   22297295.4534  117173076.413 7  91303718.54044
      -270.018        -210.397
 06  4 30  6 22 30.0000000  0 11G 3G 7G 8G15G18G19G21G22G26G27G29
  20975644.830    20975644.3724   20975648.5464  110227760.324 8  85891781.84446
      -493.141        -384.266
  22917414.318    22917413.6544   22917419.2994  120431809.339 6  93842983.27544
     -3162.403       -2464.208
  22361413.891    22361413.3984   22361418.2094  117510048.745 7  91566299.84144
       192.375         149.909
  20695113.617    20695112.7464   20695117.2614  108753560.998 8  84743052.08446
      -663.931        -517.349
  21980856.629    21980856.3214   21980859.7734  115510206.622 7  90007979.23845
      1509.721        1176.407
  22118843.608    22118842.8354   22118844.9874  116235320.171 7  90572993.10445
      2284.435        1780.082
  21977394.883    21977394.3024   21977397.1094  115491982.616 7  89993769.64244
     -2410.641       -1878.420
  23700204.829    23700204.2914   23700206.6224  124545433.502 6  97048405.68243
      3311.373        2580.284
  21970358.140    21970358.0604   21970362.3834  115455047.849 7  89964992.91344
       514.489         400.896
  23322600.589    23322600.6864   23322604.7834  122561096.262 6  95502172.21243
     -1720.896       -1340.960
  22298892.797    22298892.3624   22298896.6624  117181490.831 7  91310275.22744
      -290.891        -226.669
 06  4 30  6 23  0.0000000  0 11G 3G 7G 8G15G18G19G21G22G26G27G29
  20978518.735    20978518.2964   20978522.4914  110242862.715 8  85903549.94246
      -513.754        -400.331
  22935496.135    22935495.3874   22935500.6184  120526830.249 6  93917025.48743
     -3172.430       -2472.011
  22360379.281    22360378.9794   22360383.3724  117504613.861 7  91562064.86344
       169.863         132.362
  20698963.214    20698962.5374   20698967.0784  108773791.748 8  84758816.30446
      -684.870        -533.663
  21972289.764    21972289.4774   21972292.7504  115465186.189 7  89972898.39145
      1491.520        1162.220
  22105843.820    22105842.8544   22105845.0594  116167005.224 7  90519760.69245
      2269.808        1768.681
  21991200.733    21991200.3554   21991203.0464  115564533.130 7  90050302.47945
     -2426.132       -1890.492
  23681324.477    23681324.3134   23681327.0984  124446216.685 6  96971093.91143
      3303.001        2573.767
  21967489.453    21967489.5444   21967493.7234  115439974.017 7  89953247.08344
       490.257         382.014
  23332471.108    23332470.9374   23332474.9124  122612964.636 6  95542589.13843
     -1737.071       -1353.562
  22300612.786    22300612.6054   22300616.3334  117190528.800 7  91317317.81044
      -311.740        -242.925
 06  4 30  6 23 30.0000000  0 11G 3G 7G 8G15G18G19G21G22G26G27G29
  20981510.389    20981510.0504   20981514.2274  110258585.319 8  85915801.32046
      -534.487        -416.485
  22953634.933    22953634.7834   22953640.1574  120622150.489 6  93991300.95844
     -3182.435       -2479.822
  22359473.823    22359473.3774   22359478.3274  117499856.426 7  91558357.78444
       147.193         114.685
  20702932.771    20702932.0214   20702936.5334  108794651.389 8  84775070.56246
      -705.854        -550.020
  21963826.767    21963826.4724   21963829.7934  115420712.597 8  89938243.64445
      1473.247        1147.980
  22092927.531    22092926.7864   22092928.9084  116099131.434 7  90466872.03845
      2254.990        1757.132
  22005095.155    22005094.6544   22005097.2204  115637548.316 7  90107197.40245
     -2441.645       -1902.580
  23662492.176    23662492.0274   23662494.5814  124347253.882 6  96893980.08643
      3294.423        2567.081
  21964760.445    21964760.1444   21964763.8924  115425631.024 7  89942070.72744
       465.800         362.962
  23342433.827    23342433.2454   23342437.8154  122665317.836 6  95583383.85943
     -1753.229       -1366.156
  22302452.174    22302451.8964   22302455.6504  117200194.293 7  91324849.36344
      -332.718        -259.256
 06  4 30  6 24  0.0000000  0 12G 3G 7G 8G15G18G19G21G22G26G27G28G29
  20984620.285    20984619.9884   20984624.1804  110274927.761 8  85928535.68646
      -555.125        -432.564
  22971830.310    22971829.5134   22971835.3574  120717768.453 6  94065808.40943
     -3192.275       -2487.485
  22358698.235    22358697.7454   22358701.7974  117495776.954 7  91555178.98844
       124.632          97.113
  20707021.510    20707020.9304   20707025.5024  108816139.166 8  84791814.27746
      -726.787        -566.330
  21955468.084    21955467.7974   21955471.0014  115376787.601 8  89904016.39045
      1454.980        1133.748
  22080096.144    22080095.1424   22080097.3104  116031701.041 7  90414328.89245
      2240.205        1745.609
  22019077.414    22019077.0284   22019080.0764  115711026.660 7  90164453.22345
     -2457.021       -1914.564
  23643709.254    23643708.8384   23643711.3224  124248547.487 6  96817066.03843
      3285.935        2560.453
  21962170.111    21962170.1564   21962174.0874  115412019.940 7  89931464.68644
       441.429         343.967
  23352488.069    23352487.9664   23352492.4804  122718154.662 6  95624555.41643
     -1769.336       -1378.710
  25513640.833                                   134075073.543 4
      3447.031
  22304410.457    22304410.2544   22304414.4254  117210486.775 7  91332869.45944
      -353.574        -275.507
 06  4 30  6 24 30.0000000  0 12G 3G 7G 8G15G18G19G21G22G26G27G28G29
  20987848.457    20987848.1284   20987852.2834  110291891.599 8  85941754.25646
      -575.788        -448.664
  22990082.639    22990081.9164   22990087.5144  120813683.769 6  94140547.56443
     -3202.093       -2495.128
  22358050.438    22358050.1684   22358055.0814  117492377.391 6  91552530.00144
       101.982          79.472
  20711230.652    20711229.8684   20711234.3384  108838256.574 8  84809048.61646
      -747.747        -582.659
  21947214.335    21947214.0424   21947217.1934  115333414.398 7  89870219.10445
      1436.567        1119.401
  22067349.659    22067348.7754   22067350.8504  115964718.085 7  90362134.39745
      2225.300        1734.004
  22033147.995    22033147.6544   22033150.7034  115784967.907 7  90222069.75544
     -2472.375       -1926.525
  23624975.410    23624975.3214   23624977.6574  124150101.904 6  96740355.23843
      3277.188        2553.659
  21959719.675    21959719.8444   21959723.8434  115399143.151 7  89921430.82444
       416.998         324.934
  23362634.727    23362634.4644   23362638.9914  122771475.028 6  95666103.72243
     -1785.328       -1391.160
  25493974.816                                   133971727.906 4
      3442.467
  22306489.032    22306488.5864   22306492.6024  117221408.010 7  91341379.49344
      -374.541        -291.842
 06  4 30  6 25  0.0000000  0 12G 3G 7G 8G15G18G19G21G22G26G27G28G29
  20991194.298    20991193.9174   20991198.1174  110309473.802 8  85955454.66846
      -596.235        -464.593
  23008390.048    23008389.7404   23008395.2954  120909891.707 6  94215514.75043
     -3211.692       -2502.617
  22357533.065    22357532.6064   22357536.9794  117489655.340 7  91550408.91844
        79.531          61.975
  20715558.654    20715557.8914   20715562.3094  108861000.426 8  84826771.08846
      -768.442        -598.787
  21939065.578    21939065.2504   21939068.4854  115290591.821 7  89836850.87345
      1418.298        1105.168
  22054688.248    22054687.3624   22054689.5674  115898182.089 7  90310288.19745
      2210.517        1722.474
  22047305.941    22047305.3394   22047308.5454  115859367.605 7  90280043.51245
     -2487.512       -1938.315
  23606291.742    23606291.4054   23606294.1724  124051917.194 6  96663847.71943
      3268.575        2546.948
  21957408.344    21957408.7204   21957412.7604  115386998.664 7  89911967.57945
       392.726         306.015
  23372872.685    23372872.4304   23372876.4564  122825275.124 6  95708025.85943
     -1801.197       -1403.531
  25474335.396                                   133868513.162 4
      3438.274
  22308686.438    22308685.8244   22308690.1144  117232954.888 7  91350377.03944
      -395.209        -307.956
 06  4 30  6 25 30.0000000  0 12G 3G 7G 8G15G18G19G21G22G26G27G28G29
  20994657.825    20994657.4604   20994661.4904  110327674.191 8  85969636.79546
      -617.174        -480.916
  23026753.627    23026752.9714   23026758.3804  121006390.702 6  94290708.72843
     -3221.623       -2510.344
  22357144.352    22357143.8824   22357147.9124  117487611.728 7  91548816.45944
        56.627          44.123
  20720005.804    20720005.0274   20720009.6344  108884370.393 8  84844981.44346
      -789.616        -615.283
  21931021.702    21931021.4734   21931024.7524  115248321.781 7  89803913.20545
      1399.572        1090.576
  22042112.505    22042111.5244   22042113.6764  115832095.085 7  90258791.83445
      2195.201        1710.547
  22061550.973    22061550.3144   22061553.3394  115934224.439 7  90338373.48944
     -2503.003       -1950.395
  23587657.534    23587657.3144   23587659.9154  123953996.275 6  96587545.76343
      3259.416        2539.815
  21955237.078    21955237.2104   21955241.1224  115375587.562 7  89903075.80044
       367.929         286.701
  23383201.484    23383201.1954   23383205.3764  122879553.678 6  95750320.85643
     -1817.396       -1416.153
  25454718.522                                   133765434.503 5
      3433.458
  22311002.323    22311002.3574   22311006.3394  117245127.742 7  91359862.36444
      -416.380        -324.449
 06  4 30  6 26  0.0000000  0 12G 3G 7G 8G15G18G19G21G22G26G27G28G29
  20998238.967    20998238.5674   20998242.8294  110346493.609 8  85984301.26946
      -637.693        -496.903
  23045171.960    23045171.2584   23045176.7714  121103179.764 6  94366128.73643
     -3231.211       -2517.829
  22356884.155    22356883.8884   22356888.5214  117486248.295 7  91547754.02244
        34.011          26.497
  20724572.148    20724571.5104   20724575.9224  108908367.272 8  84863680.30046
      -810.435        -631.506
  21923083.924    21923083.3724   21923086.7114  115206607.093 8  89771408.27045
      1381.117        1076.194
  22029622.378    22029621.5374   22029623.5374  115766460.368 7  90207647.89845
      2180.176        1698.841
  22075882.400    22075881.9524   22075884.9744  116009537.659 7  90397059.08044
     -2518.112       -1962.158
  23569074.777    23569074.5044   23569077.4044  123856342.920 6  96511452.28743
      3250.506        2532.861
  21953205.658    21953205.7964   21953209.5734  115364911.739 7  89894756.96444
       343.491         267.656
  23393621.427    23393621.0564   23393625.4034  122934309.840 6  95792987.93243
     -1833.288       -1428.537
  25435130.050                                   133662494.128 4
      3429.015
  22313438.182    22313437.9644   22313442.0824  117257927.319 6  91369836.03144
      -437.185        -340.660
 06  4 30  6 26 30.0000000  0 12G 3G 7G 8G15G18G19G21G22G26G27G28G29
  21001938.440    21001938.0364   21001942.0674  110365933.830 8  85999449.47146
      -658.346        -512.995
  23063645.406    23063645.1044   23063650.9574  121200259.375 6  94441775.12143
     -3240.766       -2525.268
  22356755.187    22356754.8664   22356759.3304  117485567.511 6  91547223.51544
        11.355           8.845
  20729258.242    20729257.4014   20729261.8604  108932992.608 8  84882868.86246
      -831.287        -647.750
  21915252.094    21915251.6674   21915254.9184  115165451.560 7  89739339.04945
      1362.538        1061.721
  22017219.449    22017218.5794   22017220.6964  115701282.332 7  90156859.80445
      2164.996        1687.014
  22090300.828    22090300.5044   22090303.2464  116085307.578 7  90456100.55944
     -2533.227       -1973.943
  23550543.920    23550543.4874   23550546.0894  123758961.723 6  96435570.88743
      3241.542        2525.870
  21951314.354    21951314.6534   21951318.7584  115354973.808 7  89887013.11344
       319.012         248.583
  23404132.200    23404131.6004   23404135.9034  122989544.636 6  95836028.00843
     -1849.083       -1440.837
  25415568.579                                   133559696.764 5
      3424.090
  22315993.572    22315993.3484   22315997.5674  117271355.471 7  91380299.49744
      -458.039        -356.898
 06  4 30  6 27  0.0000000  0 12G 3G 7G 8G15G18G19G21G22G26G27G28G29
  21005755.621    21005755.2124   21005759.3334  110385993.742 8  86015080.55746
      -679.080        -529.155
  23082174.078    23082173.5434   23082178.9364  121297626.832 6  94517645.81343
     -3250.458       -2532.828
  22356755.277    22356755.0994   22356759.7574  117485568.797 7  91547224.53944
       -11.538          -8.999
  20734063.666    20734062.9694   20734067.4044  108958245.384 8  84902546.34546
      -852.297        -664.125
  21907526.812    21907526.6434   21907529.8144  115124855.963 8  89707706.12545
      1343.758        1047.084
  22004903.882    22004902.9574   22004904.9264  115636562.561 7  90106428.80346
      2149.581        1674.995
  22104806.002    22104805.4804   22104808.1074  116161531.485 7  90515495.77744
     -2548.427       -1985.787
  23532064.894    23532064.7104   23532067.3784  123661854.993 6  96359903.33743
      3232.198        2518.608
  21949563.861    21949563.8204   21949568.1664  115345774.094 7  89879844.50044
       294.272         229.302
  23414733.855    23414733.5174   23414737.4184  123045256.087 6  95879439.57943
     -1865.074       -1453.305
  25396034.266                                   133457044.206 4
      3419.276
  22318668.539    22318668.0614   22318672.1024  117285411.381 7  91391252.11644
      -479.098        -373.326
 06  4 30  6 27 30.0000000  0 12G 3G 7G 8G15G18G19G21G22G26G27G28G29
  21009690.750    21009690.3114   21009694.4484  110406673.002 8  86031194.26346
      -699.669        -545.198
  23100757.099    23100756.3444   23100761.7414  121395280.369 6  94593739.42143
     -3259.883       -2540.161
  22356885.175    22356884.8514   22356889.6034  117486252.687 7  91547757.43244
       -34.195         -26.646
  20738988.602    20738987.8154   20738992.1274  108984124.957 8  84922712.24346
      -873.136        -680.367
  21899908.622    21899908.5814   21899911.6754  115084822.144 7  89676510.96045
      1325.029        1032.491
  21992675.618    21992674.8134   21992676.7244  115572303.151 7  90056356.53645
      2134.250        1663.052
  22119396.947    22119396.3174   22119399.1904  116238207.661 7  90575243.41144
     -2563.429       -1997.476
  23513638.763    23513638.7404   23513640.8414  123565025.297 6  96284451.65843
      3222.992        2511.414
  21947954.218    21947953.8184   21947957.8704  115337313.031 7  89873251.44844
       269.641         210.109
  23425425.242    23425425.0824   23425429.6264  123101442.461 6  95923221.13243
     -1880.758       -1465.528
  25376528.138                                   133354539.249 5
      3414.346
  22321462.753    22321462.4094   22321466.4864  117300094.807 7  91402693.69544
      -499.929        -389.551
 06  4 30  6 28  0.0000000  0 12G 3G 7G 8G15G18G19G21G22G26G27G28G29
  21013743.359    21013742.9814   21013747.1704  110427969.751 8  86047789.12346
      -720.036        -561.065
  23119393.625    23119393.2684   23119398.3744  121493216.177 6  94670052.99343
     -3269.058       -2547.323
  22357145.213    22357144.7104   22357149.5884  117487617.743 7  91548821.08044
       -56.707         -44.180
  20744032.157    20744031.3804   20744035.7884  109010629.023 8  84943364.76246
      -893.725        -696.410
  21892397.581    21892397.2094   21892400.5274  115045349.982 8  89645753.44445
      1306.500        1018.053
  21980535.309    21980534.3914   21980536.4364  115508504.669 7  90006643.41445
      2119.053        1651.213
  22134073.161    22134072.7024   22134075.9934  116315332.709 7  90635340.83044
     -2578.134       -2008.932
  23495265.789    23495265.3544   23495267.8384  123468473.619 6  96209216.62243
      3213.889        2504.327
  21946484.172    21946484.3324   21946488.1904  115329589.703 7  89867233.26444
       245.312         191.149
  23436207.004    23436207.0134   23436211.4034  123158100.959 6  95967370.60343
     -1896.346       -1477.670
  25357048.025                                   133252182.469 4
      3409.637
  22324375.847    22324375.4764   22324379.5574  117315403.686 7  91414622.66044
      -520.551        -405.624
 06  4 30  6 28 30.0000000  0 12G 3G 7G 8G15G18G19G21G22G26G27G28G29
  21017912.478    21017912.1064   21017916.2764  110449878.697 8  86064861.03546
      -740.413        -576.946
  23138082.632    23138081.9594   23138087.9504  121591427.814 6  94746581.49343
     -3278.199       -2554.442
  22357533.660    22357533.5084   22357537.9744  117489659.687 7  91550412.20144
       -79.287         -61.782
  20749193.386    20749192.7054   20749196.9694  109037752.061 8  84964499.58446
      -914.330        -712.466
  21884992.363    21884991.9174   21884995.4574  115006436.353 7  89615431.15445
      1287.872        1003.539
  21968481.713    21968480.8244   21968483.1814  115445164.443 7  89957287.41045
      2103.741        1639.278
  22148833.849    22148833.4644   22148836.5114  116392899.907 7  90695782.77844
     -2592.840       -2020.393
  23476944.744    23476944.8824   23476947.0864  123372197.846 6  96134196.56343
      3204.653        2497.138
  21945154.187    21945154.0684   21945157.9874  115322599.786 7  89861786.57044
       220.834         172.080
  23447078.049    23447077.3324   23447081.8794  123215224.669 6  96011882.46343
     -1911.777       -1489.697
  25337597.863                                   133149972.149 4
      3404.692
  22327407.110    22327406.7354   22327410.8174  117331333.117 7  91427035.17344
      -541.249        -421.753
 06  4 30  6 29  0.0000000  0 12G 3G 7G 8G15G18G19G21G22G26G27G28G29
  21022198.168    21022197.7804   21022201.9094  110472399.908 8  86082410.02746
      -760.841        -592.864
  23156823.945    23156823.1854   23156828.8304  121689913.621 6  94823323.64143
     -3287.321       -2561.548
  22358051.234    22358050.8624   22358055.5534  117492379.179 7  91552531.25844
      -101.865         -79.367
  20754472.464    20754471.7764   20754476.3124  109065494.175 8  84986116.80746
      -934.991        -728.563
  21877694.015    21877693.8734   21877697.0224  114968083.344 7  89585545.71345
      1269.122         988.924
  21956516.193    21956515.2934   21956517.5744  115382284.763 7  89908290.25245
      2088.366        1627.301
  22163678.260    22163677.8514   22163680.8184  116470907.747 7  90756568.08944
     -2607.510       -2031.827
  23458677.878    23458677.6274   23458679.7164  123276201.219 6  96059394.01643
      3195.326        2489.861
  21943963.856    21943963.9424   21943967.8134  115316344.471 7  89856912.29744
       196.334         152.984
  23458036.459    23458036.2964   23458040.2974  123272813.131 6  96056756.62343
     -1927.296       -1501.780
  25318174.427                                   133047910.652 4
      3399.548
  22330556.375    22330555.9574   22330560.1824  117347883.202 7  91439931.32544
      -561.950        -437.889
 06  4 30  6 29 30.0000000  0 12G 3G 7G 8G15G18G19G21G22G26G27G28G29
  21026599.403    21026599.0214   21026603.1414  110495528.850 8  86100432.57546
      -781.224        -608.745
  23175616.437    23175615.6294   23175621.3234  121788668.008 6  94900275.05243
     -3296.411       -2568.632
  22358696.959    22358696.6144   22358701.2544  117495772.696 7  91555175.44944
      -124.509         -97.016
  20759868.732    20759867.8954   20759872.3774  109093850.968 8  85008212.99946
      -955.605        -744.625
  21870502.047    21870501.7024   21870504.7014  114930288.469 8  89556095.16645
      1250.344         974.298
  21944638.008    21944637.1144   21944639.4294  115319864.358 7  89859650.97246
      2072.882        1615.232
  22178605.658    22178605.1944   22178608.1634  116549350.847 7  90817692.55844
     -2622.143       -2043.236
  23440462.971    23440462.8894   23440464.9994  123180482.462 7  95984807.99343
      3185.824        2482.454
  21942912.828    21942912.6294   21942916.6754  115310820.378 7  89852607.80344
       171.756         133.835
  23469082.569    23469082.2154   23469086.4644  123330860.470 6  96101988.24643
     -1942.684       -1513.783
  25298783.860    25298784.0584   25298788.4944  132945996.880 5 103594297.86441
      3394.526        2645.101
  22333823.067    22333822.7814   22333826.8654  117365049.557 6  91453307.68944
      -582.642        -454.006
 06  4 30  6 30  0.0000000  0 12G 3G 7G 8G15G18G19G21G22G26G27G28G29
  21031117.321    21031116.9814   21031120.9734  110519270.764 8  86118932.76646
      -801.465        -624.518
  23194460.418    23194459.7984   23194465.5224  121887694.567 6  94977438.57443
     -3305.246       -2575.528
  22359472.404    22359471.9814   22359476.4594  117499846.114 7  91558349.55444
      -146.969        -114.530
  20765382.591    20765381.9954   20765386.4964  109122827.112 8  85030791.80846
      -976.015        -760.531
  21863417.244    21863416.9164   21863420.1014  114893058.535 8  89527084.84545
      1231.758         959.809
  21932848.745    21932847.7474   21932849.8484  115257910.324 7  89811375.13046
      2057.524        1603.260
  22193616.342    22193616.0404   22193618.8244  116628232.606 7  90879158.84044
     -2636.531       -2054.448
  23422302.947    23422302.4914   23422304.2324  123085049.814 7  95910444.93043
      3176.448        2475.135
  21942001.459    21942001.5244   21942005.6544  115306033.331 7  89848877.63644
       147.462         114.900
  23480216.462    23480216.2364   23480220.8014  123389371.046 6  96147580.88743
     -1957.885       -1525.619
  25279421.538    25279421.1254   25279423.3884  132844239.088 5 103515006.05541
      3389.484        2641.182
  22337208.453    22337207.8614   22337212.1974  117382837.576 7  91467168.45644
      -603.145        -469.979
 06  4 30  6 30 30.0000000  0 12G 3G 7G 8G15G18G19G21G22G26G27G28G29
  21035751.334    21035751.0034   21035755.0194  110543622.632 8  86137908.24746
      -821.936        -640.468
  23213355.701    23213354.8494   23213361.0244  121986988.707 6  95054810.57143
     -3314.306       -2582.564
  22360376.364    22360375.7814   22360380.9444  117504596.785 7  91562051.44544
      -169.680        -132.225
  20771013.758    20771013.1314   20771017.6844  109152419.596 8  85053850.87946
      -996.731        -776.672
  21856440.138    21856439.7744   21856443.0384  114856393.032 8  89498514.34545
      1212.705         944.968
  21921147.747    21921146.8724   21921149.1044  115196422.353 7  89763462.44045
      2041.765        1590.984
  22208709.659    22208709.2474   22208712.3554  116707548.781 7  90940963.62844
     -2651.152       -2065.828
  23404196.800    23404196.8304   23404198.4294  122989903.433 6  95836304.88943
      3166.740        2467.597
  21941230.487    21941230.6304   21941234.4314  115301981.463 7  89845720.32744
       122.766          95.665
  23491438.226    23491437.6584   23491442.7024  123448340.628 6  96193531.11443
     -1973.326       -1537.658
  25260088.088    25260087.0564   25260090.0654  132742637.025 5 103435835.72441
      3384.040        2636.938
  22340710.983    22340710.7844   22340714.2884  117401244.090 6  91481511.17544
      -623.877        -486.136
 06  4 30  6 31  0.0000000  0 12G 3G 7G 8G15G18G19G21G22G26G27G28G29
  21040502.251    21040501.8624   21040505.9514  110568588.352 8  86157362.05546
      -842.365        -656.393
  23232301.956    23232301.4144   23232306.9544  122086553.005 6  95132393.07743
     -3323.210       -2589.514
  22361409.873    22361409.3894   22361414.3114  117510029.609 7  91566284.87144
      -192.357        -149.893
  20776763.163    20776762.5134   20776766.8984  109182632.391 8  85077393.31646
     -1017.337        -792.732
  21849571.624    21849571.2334   21849574.2164  114820297.747 7  89470388.16945
      1193.713         930.168
  21909537.100    21909536.1014   21909538.2574  115135407.404 7  89715918.33545
      2026.003        1578.705
  22223885.992    22223885.7894   22223888.7644  116787301.800 7  91003108.82344
     -2665.613       -2077.103
  23386146.918    23386146.7304   23386148.9324  122895050.422 6  95762393.49043
      3156.954        2459.960
  21940600.405    21940600.2564   21940604.4054  115298669.848 7  89843139.86944
        98.148          76.481
  23502747.600    23502747.5894   23502751.9024  123507771.876 6  96239841.19543
     -1988.592       -1549.558
  25240785.452    25240783.5624   25240788.7114  132641198.148 5 103356792.46141
      3378.622        2632.708
  22344331.929    22344331.6294   22344335.7364  117420273.400 7  91496339.21544
      -644.622        -502.311
 06  4 30  6 31 30.0000000  0 12G 3G 7G 8G15G18G19G21G22G26G27G28G29
  21045369.469    21045368.9944   21045373.1434  110594165.319 8  86177292.15446
      -862.791        -672.301
  23251299.587    23251298.8454   23251304.2514  122186383.679 6  95210183.15243
     -3332.123       -2596.458
  22362573.361    22362572.7104   22362577.3914  117516142.151 7  91571047.85844
      -215.126        -167.630
  20782630.066    20782629.3794   20782633.9054  109213462.550 8  85101416.81046
     -1037.984        -808.818
  21842810.944    21842810.6794   21842813.8474  114784771.911 8  89442705.71645
      1174.631         915.303
  21898016.260    21898015.3084   21898017.4624  115074865.067 7  89668742.50146
      2010.119        1566.328
  22239145.216    22239144.8814   22239147.7904  116867488.220 7  91065591.71344
     -2680.113       -2088.394
  23368153.129    23368152.5764   23368155.1654  122800491.546 6  95688711.27943
      3147.005        2452.222
  21940110.537    21940110.7034   21940114.8974  115296096.591 7  89841134.74844
        73.419          57.214
  23514144.306    23514143.7604   23514148.2574  123567661.267 6  96286508.29643
     -2003.894       -1561.475
  25221509.442    25221507.8994   25221515.1274  132539922.961 5 103277876.79441
      3373.059        2628.353
  22348071.414    22348070.9164   22348074.7764  117439922.730 7  91511650.38744
      -665.342        -518.445
 06  4 30  6 32  0.0000000  0 12G 3G 7G 8G15G18G19G21G22G26G27G28G29
  21050352.814    21050352.3574   21050356.5394  110620353.267 8  86197698.33446
      -883.075        -688.110
  23270346.472    23270346.0674   23270352.4954  122286478.844 5  95288179.31743
     -3340.834       -2603.235
  22363866.304    22363865.6124   22363869.9994  117522935.496 7  91576341.37744
      -237.732        -185.236
  20788614.223    20788613.4854   20788617.8274  109244909.505 8  85125920.92246
     -1058.484        -824.791
  21836159.188    21836158.9464   21836162.2314  114749817.176 8  89415468.27545
      1155.652         900.510
  21886585.838    21886584.9244   21886587.1374  115014797.963 7  89621936.98646
      1994.323        1554.014
  22254486.281    22254485.8134   22254488.8904  116948105.897 7  91128410.65044
     -2694.396       -2099.532
  23350215.349    23350215.0374   23350217.7104  122706229.602 6  95615260.42743
      3137.081        2444.484
  21939761.387    21939761.3274   21939765.6624  115294262.208 7  89839705.36344
        48.818          38.035
  23525628.072    23525627.3784   23525631.9014  123628007.357 6  96333531.18043
     -2019.134       -1573.347
  25202267.672    25202267.1794   25202273.7664  132438814.057 4 103199090.69941
      3367.660        2624.183
  22351927.929    22351927.8034   22351932.2564  117460192.112 6  91527444.70944
      -685.970        -534.519
 06  4 30  6 32 30.0000000  0 12G 3G 7G 8G15G18G19G21G22G26G27G28G29
  21055451.788    21055451.4334   21055455.5924  110647148.892 8  86218578.03146
      -903.486        -704.013
  23289443.593    23289443.0854   23289448.7584  122386833.978 6  95366378.04243
     -3349.629       -2610.094
  22365287.617    22365287.2334   22365291.7634  117530406.440 7  91582162.89344
      -260.495        -202.987
  20794715.146    20794714.3564   20794718.7284  109276969.906 8  85150903.04646
     -1079.055        -840.821
  21829616.120    21829615.9114   21829618.9594  114715432.482 8  89388675.01845
      1136.445         885.541
  21875245.725    21875244.8084   21875246.9124  114955205.268 7  89575501.14646
      1978.302        1541.536
  22269908.383    22269907.8284   22269911.1974  117029150.329 7  91191562.12544
     -2708.771       -2110.728
  23332334.563    23332334.2384   23332336.7224  122612264.482 6  95542040.89043
      3127.042        2436.653
  21939552.642    21939552.6914   21939556.7894  115293164.604 7  89838850.08244
        24.140          18.815
  23537197.719    23537197.1664   23537201.1924  123688805.845 6  96380906.60343
     -2034.309       -1585.157
  25183060.200    25183059.3804   25183064.2974  132337871.455 4 103120434.12341
      3361.841        2619.646
  22355902.423    22355902.2704   22355906.6404  117481078.176 6  91543719.55744
      -706.639        -550.629
 06  4 30  6 33  0.0000000  0 12G 3G 7G 8G15G18G19G21G22G26G27G28G29
  21060666.878    21060666.4084   21060670.6254  110674554.210 8  86239932.81146
      -923.509        -719.617
  23308590.175    23308589.9214   23308595.4374  122487449.796 6  95444779.92543
     -3358.048       -2616.651
  22366838.973    22366838.2224   22366843.2164  117538558.213 6  91588514.90444
      -282.911        -220.449
  20800933.165    20800932.3414   20800936.8454  109309645.636 8  85176364.64646
     -1099.282        -856.585
  21823182.270    21823181.9294   21823184.8744  114681621.768 8  89362329.01445
      1117.571         870.832
  21863996.519    21863995.7384   21863998.0174  114896091.855 7  89529438.76245
      1962.581        1529.279
  22285412.147    22285411.7434   22285414.8724  117110622.501 7  91255046.89744
     -2722.703       -2121.584
  23314510.681    23314510.8574   23314513.1454  122518601.615 6  95469056.84043
      3117.269        2429.037
  21939484.552    21939484.4044   21939488.6814  115292806.685 7  89838571.19544
        -0.244          -0.192
  23548852.418    23548852.8954   23548857.3964  123750058.012 6  96428635.53943
     -2049.113       -1596.702
  25163885.283    25163884.4754   25163888.3034  132237100.370 5 103041911.29341
      3356.300        2615.275
  22359994.970    22359994.7814   22359998.8674  117502583.395 7  91560476.87644
      -726.945        -566.450
 06  4 30  6 33 30.0000000  0 12G 3G 7G 8G15G18G19G21G22G26G27G28G29
  21065997.500    21065997.1434   21066001.1744  110702566.996 8  86261760.94446
      -943.854        -735.474
  23327785.835    23327785.5634   23327790.9544  122588322.793 6  95523382.19343
     -3366.686       -2623.410
  22368519.701    22368519.2134   22368523.6084  117547389.132 7  91595396.13944
      -305.678        -238.191
  20807267.683    20807266.9814   20807271.3064  109342934.066 8  85202303.66246
     -1119.804        -872.576
  21816857.341    21816856.9604   21816860.2564  114648385.031 8  89336430.25945
      1098.330         855.840
  21852839.183    21852838.0364   21852840.2674  114837457.966 7  89483750.01346
      1946.486        1516.737
  22300996.561    22300995.9844   22300999.1594  117192518.881 7  91318862.21944
     -2736.905       -2132.657
  23296744.990    23296744.9664   23296747.2364  122425242.246 6  95396309.31243
      3106.942        2420.981
  21939557.058    21939557.0824   21939561.0604  115293187.047 7  89838867.57445
       -24.975         -19.466
  23560594.800    23560594.3604   23560599.0034  123811760.425 6  96476715.33143
     -2064.211       -1608.483
  25144745.648    25144743.4864   25144746.6474  132136501.737 5 102963522.82141
      3350.416        2610.706
  22364204.848    22364204.6124   22364208.6834  117524705.249 7  91577714.66844
      -747.625        -582.567
 06  4 30  6 34  0.0000000  0 12G 3G 7G 8G15G18G19G21G22G26G27G28G29
  21071443.904    21071443.4934   21071447.7504  110731188.210 8  86284063.18046
      -964.070        -751.223
  23347030.535    23347029.7934   23347035.2224  122689452.417 6  95602184.46243
     -3375.161       -2629.989
  22370329.310    22370328.7684   22370333.4374  117556900.720 7  91602807.78744
      -328.293        -255.811
  20813718.993    20813718.2734   20813722.6244  109376836.112 8  85228720.82746
     -1140.193        -888.462
  21810642.341    21810642.0874   21810645.4344  114615725.147 8  89310981.00745
      1079.165         840.905
  21841773.297    21841772.4264   21841774.5344  114779307.103 7  89438437.66346
      1930.405        1504.213
  22316661.724    22316661.1604   22316664.1454  117274838.839 7  91383007.60044
     -2750.965       -2143.603
  23279038.184    23279037.9954   23279040.2914  122332190.058 7  95323801.10744
      3096.684        2413.011
  21939770.204    21939770.2594   21939774.2224  115294307.259 7  89839740.46444
       -49.600         -38.648
  23572421.942    23572421.4544   23572426.2814  123873912.859 6  96525145.82643
     -2079.164       -1620.130
  25125635.402    25125635.4554   25125634.9924  132036079.323 5 102885271.70341
      3344.552        2606.132
  22368531.967    22368531.6424   22368535.6584  117547444.860 7  91595433.81844
      -768.194        -598.596
 06  4 30  6 34 30.0000000  0 12G 3G 7G 8G15G18G19G21G22G26G27G28G29
  21077006.226    21077005.7584   21077009.9894  110760418.010 8  86306839.63946
      -984.712        -767.306
  23366323.362    23366322.6684   23366328.4704  122790837.720 6  95681185.93443
     -3383.985       -2636.867
  22372269.305    22372268.6474   22372273.1114  117567093.696 7  91610750.36044
      -351.363        -273.776
  20820287.077    20820286.4254   20820290.7794  109411351.985 8  85255616.30146
     -1160.993        -904.664
  21804537.728    21804537.3754   21804540.4314  114583644.225 8  89285982.89945
      1059.454         825.545
  21830800.208    21830799.1324   21830801.2344  114721642.273 7  89393504.09046
      1913.787        1491.260
  22332406.843    22332406.4964   22332409.3674  117357581.315 7  91447482.22444
     -2765.348       -2154.820
  23261390.033    23261389.4864   23261391.9684  122239449.115 6  95251535.46944
      3085.908        2404.599
  21940124.513    21940124.4314   21940128.3584  115296168.764 7  89841190.99344
       -74.608         -58.138
  23584334.734    23584333.9594   23584338.7154  123936514.621 6  96573926.47443
     -2094.459       -1632.053
  25106557.756    25106556.2344   25106560.8354  131935837.163 5 102807161.01141
      3338.150        2601.145
  22372976.422    22372976.2644   22372980.6984  117570802.538 6  91613634.59144
      -789.119        -614.891
 06  4 30  6 35  0.0000000  0 12G 3G 7G 8G15G18G19G21G22G26G27G28G29
  21082684.906    21082684.5434   21082688.6624  110790260.275 8  86330093.34246
     -1004.735        -782.906
  23385665.530    23385665.1144   23385670.5524  122892481.266 6  95760388.62743
     -3392.193       -2643.266
  22374339.224    22374338.8554   22374343.3884  117577972.409 7  91619227.28644
      -373.863        -291.327
  20826972.760    20826972.0814   20826976.6454  109446485.334 8  85282992.92146
     -1181.185        -920.401
  21798544.181    21798543.7674   21798546.9174  114552148.319 7  89261440.63545
      1040.288         810.617
  21819920.609    21819919.6034   21819921.5214  114664469.899 7  89348954.23446
      1897.741        1478.763
  22348233.110    22348232.7164   22348235.4774  117440748.913 7  91512288.10044
     -2779.116       -2165.539
  23243802.328    23243802.5494   23243804.7834  122147026.267 6  95179517.69544
      3075.620        2396.585
  21940620.547    21940620.5464   21940624.7464  115298776.209 7  89843222.76944
       -99.128         -77.237
  23596333.743    23596333.0844   23596337.3494  123999568.603 6  96623059.44743
     -2109.186       -1643.532
  25087512.237    25087514.2634   25087521.2314  131835782.079 4 102729196.02541
      3332.129        2596.475
  22377539.575    22377539.3004   22377543.6704  117594782.231 6  91632320.06544
      -809.476        -630.764
 06  4 30  6 35 30.0000000  0 12G 3G 7G 8G15G18G19G21G22G26G27G28G29
  21088478.437    21088478.0824   21088481.9404  110820704.689 8  86353816.26046
     -1024.815        -798.557
  23405054.663    23405054.0844   23405060.1504  122994371.614 6  95839783.63443
     -3400.421       -2649.679
  22376538.138    22376537.2904   22376542.3094  117589527.210 7  91628231.02044
      -396.420        -308.891
  20833773.879    20833773.2024   20833777.6434  109482225.665 8  85310842.52046
     -1201.436        -936.185
  21792660.309    21792660.0684   21792663.2664  114521228.601 8  89237347.36045
      1021.034         795.610
  21809133.055    21809132.2694   21809134.3304  114607782.346 8  89304782.13646
      1881.489        1466.095
  22364138.093    22364137.5514   22364140.8724  117524330.164 7  91577416.31044
     -2792.896       -2176.275
  23226273.925    23226273.6774   23226276.5054  122054914.575 6  95107742.37544
      3065.183        2388.446
  21941256.791    21941256.7294   21941260.9254  115302119.953 6  89845828.29844
      -123.737         -96.418
  23608416.481    23608415.5324   23608420.5614  124063063.208 5  96672535.71043
     -2123.829       -1654.915
  25068508.527    25068509.1904   25068514.4854  131735907.169 4 102651371.43441
      3326.092        2591.756
  22382219.582    22382219.1024   22382223.1914  117619373.611 6  91651482.18344
      -829.894        -646.674
 06  4 30  6 36  0.0000000  0 12G 3G 7G 8G15G18G19G21G22G26G27G28G29
  21094388.418    21094388.0764   21094392.0474  110851761.948 8  86378016.71946
     -1045.379        -814.581
  23424492.151    23424491.8784   23424497.6304  123096517.941 6  95919378.09443
     -3409.079       -2656.426
  22378867.664    22378867.2214   22378871.6524  117601769.531 7  91637770.46544
      -419.434        -326.825
  20840692.709    20840692.0554   20840696.4284  109518583.492 8  85339173.28346
     -1222.138        -952.313
  21786888.683    21786888.3704   21786891.5714  114490898.123 8  89213713.22845
      1001.253         780.200
  21798440.497    21798439.8804   21798441.9014  114551593.105 7  89260998.27846
      1864.760        1453.065
  22380123.832    22380123.1404   22380126.3344  117608334.595 7  91642874.27144
     -2807.093       -2187.341
  23208807.889    23208807.5654   23208810.0984  121963128.131 6  95036220.50744
      3054.140        2379.855
  21942035.654    21942035.6714   21942039.8564  115306211.531 7  89849016.53944
      -148.781        -115.931
  23620584.952    23620583.9804   23620588.7544  124127008.307 6  96722363.04743
     -2138.996       -1666.750
  25049543.533    25049541.6324   25049544.1264  131636226.304 5 102573698.07741
      3319.540        2586.666
  22387017.913    22387017.2634   22387021.1274  117644587.351 6  91671129.22944
      -850.747        -662.921
 06  4 30  6 36 30.0000000  0 12G 3G 7G 8G15G18G19G21G22G26G27G28G29
  21100413.733    21100413.4474   21100417.5324  110883425.645 8  86402689.72546
     -1065.321        -830.119
  23443977.961    23443977.3474   23443982.8414  123198912.861 6  95999166.25943
     -3417.024       -2662.618
  22381327.326    22381326.5414   22381331.1234  117614693.780 7  91647841.36644
      -441.940        -344.369
  20847727.707    20847726.9314   20847731.3264  109555552.237 8  85367980.07746
     -1242.239        -967.973
  21781228.212    21781227.9244   21781231.0314  114461152.842 8  89190535.09345
       981.959         765.158
  21787842.308    21787841.4904   21787843.5244  114495898.292 7  89217599.71546
      1848.483        1440.370
  22396188.457    22396187.8494   22396191.0974  117692754.410 7  91708655.90244
     -2820.679       -2197.929
  23191402.387    23191402.5634   23191404.7594  121871663.749 7  94964949.58144
      3043.640        2371.677
  21942955.707    21942955.2224   21942959.3054  115311045.270 7  89852783.08444
      -173.282        -135.021
  23632837.455    23632836.7284   23632841.3934  124191396.152 6  96772535.32943
     -2153.427       -1677.998
  25030612.937    25030610.5204   25030612.2394  131536736.414 5 102496173.53441
      3313.383        2581.849
  22391932.785    22391932.6234   22391936.6564  117670417.234 6  91691256.37844
      -871.019        -678.715
 06  4 30  6 37  0.0000000  0 12G 3G 7G 8G15G18G19G21G22G26G27G28G29
  21106553.900    21106553.5064   21106557.5634  110915691.860 8  86427832.21446
     -1085.689        -845.995
  23463509.437    23463508.7874   23463514.7374  123301551.385 6  96079144.26543
     -3425.372       -2669.115
  22383915.767    22383915.1164   22383919.8224  117628296.381 6  91658440.78444
      -464.834        -362.211
  20854878.036    20854877.2944   20854881.7644  109593127.986 8  85397259.87346
     -1262.738        -983.948
  21775678.853    21775678.5694   21775681.5664  114431990.724 8  89167811.37545
       962.258         749.811
  21777338.118    21777337.1024   21777339.1324  114440697.189 7  89174585.87146
      1831.665        1427.272
  22412331.250    22412330.5524   22412333.4304  117777584.764 7  91774757.43344
     -2834.646       -2208.811
  23174058.560    23174058.6134   23174060.8134  121780521.309 6  94893929.52244
      3032.581        2363.060
  21944015.773    21944015.9184   21944019.9654  115316618.423 7  89857125.80045
      -198.171        -154.425
  23645172.994    23645172.7144   23645177.5114  124256222.517 6  96823049.31443
     -2168.254       -1689.554
  25011717.368    25011715.6094   25011717.1004  131437437.214 5 102418797.60541
      3306.672        2576.648
  22396964.719    22396964.4834   22396968.4874  117696859.455 7  91711860.69044
      -891.702        -694.838
 06  4 30  6 37 30.0000000  0 12G 3G 7G 8G15G18G19G21G22G26G27G28G29
  21112808.791    21112808.3584   21112812.5584  110948561.232 8  86453444.70346
     -1105.625        -861.527
  23483086.964    23483086.2094   23483092.3174  123404432.782 6  96159311.51643
     -3433.343       -2675.323
  22386633.668    22386633.0644   22386637.5644  117642578.386 7  91669569.57944
      -487.339        -379.740
  20862143.959    20862143.3014   20862147.7474  109631310.918 8  85427012.79346
     -1282.802        -999.591
  21770241.034    21770240.7074   21770243.7704  114403413.995 8  89145543.79245
       942.863         734.698
  21766928.116    21766927.0824   21766929.2974  114385992.824 7  89131959.07746
      1815.256        1414.487
  22428551.611    22428551.2644   22428554.4834  117862824.968 7  91841178.33544
     -2848.094       -2219.292
  23156776.845    23156776.9264   23156778.8044  121689704.463 7  94823163.17844
      3021.829        2354.672
  21945216.965    21945217.1804   21945221.2084  115322932.139 7  89862045.59145
      -222.710        -173.541
  23657592.684    23657592.5484   23657596.7784  124321486.864 6  96873904.67643
     -2182.688       -1700.797
  24992855.829    24992854.5174   24992858.9754  131338332.135 5 102341572.91541
      3300.281        2571.636
  22402112.579    22402112.7604   22402117.1014  117723914.715 6  91732942.69944
      -911.997        -710.645
 06  4 30  6 38  0.0000000  0 12G 3G 7G 8G15G18G19G21G22G26G27G28G29
  21119177.746    21119177.2954   21119181.5094  110982029.994 8  86479524.23846
     -1125.667        -877.141
  23502709.571    23502708.9344   23502715.6204  123507552.335 6  96239664.34443
     -3441.317       -2681.548
  22389480.130    22389479.3824   22389483.5754  117657536.946 7  91681225.54944
      -509.983        -397.382
  20869524.701    20869524.0374   20869528.6394  109670097.341 8  85457235.96146
     -1302.981       -1015.311
  21764914.119    21764913.8844   21764917.0194  114375421.307 8  89123731.30645
       923.265         719.427
  21756612.533    21756611.6204   21756613.7824  114331784.529 8  89089718.83746
      1798.588        1401.500
  22444849.500    22444848.9894   22444852.3974  117948470.365 7  91907914.95944
     -2861.646       -2229.851
  23139556.495    23139556.6424   23139559.1914  121599213.100 6  94752650.45544
      3010.865        2346.127
  21946558.941    21946559.2244   21946562.9614  115329983.669 7  89867540.29945
      -247.397        -192.775
  23670094.223    23670093.7334   23670098.7304  124387184.432 6  96925097.58643
     -2197.202       -1712.101
  24974031.015    24974031.4254   24974037.0144  131239421.549 5 102264499.73941
      3293.699        2566.510
  22407377.069    22407377.0184   22407381.5854  117751579.356 7  91754499.57844
      -932.370        -726.524
 06  4 30  6 38 30.0000000  0 12G 3G 7G 8G15G18G19G21G22G26G27G28G29
  21125660.763    21125660.3794   21125664.5624  111016099.217 8  86506071.67246
     -1145.610        -892.682
  23522378.134    23522377.3864   23522383.7724  123610909.861 6  96320202.60843
     -3449.145       -2687.639
  22392455.557    22392455.0084   22392459.4124  117673173.820 6  91693410.13944
      -532.481        -414.919
  20877020.595    20877019.9774   20877024.4254  109709488.282 8  85487930.18246
     -1323.052       -1030.953
  21759699.007    21759698.7674   21759701.7354  114348016.018 7  89102376.53445
       903.758         704.229
  21746392.233    21746391.2244   21746393.3174  114278075.729 7  89047867.82546
      1781.988        1388.559
  22461224.122    22461223.9094   22461227.0814  118034520.491 7  91974966.98344
     -2875.022       -2240.280
  23122399.824    23122399.6424   23122402.0344  121509051.812 6  94682394.94944
      2999.894        2337.591
  21948041.909    21948041.7734   21948045.8484  115337774.684 7  89873611.23745
      -271.985        -211.938
  23682678.315    23682678.3444   23682683.0644  124453315.239 6  96976627.98943
     -2211.578       -1723.295
  24955247.457    24955247.0734   24955253.5404  131140709.491 5 102187581.20641
      3287.030        2561.318
  22412757.817    22412757.6094   22412762.3204  117779854.565 7  91776532.21944
      -952.621        -742.308
 06  4 30  6 39  0.0000000  0 12G 3G 7G 8G15G18G19G21G22G26G27G28G29
  21132257.834    21132257.4934   21132261.7204  111050766.851 8  86533085.39046
     -1165.661        -908.307
  23542091.214    23542090.6334   23542096.9554  123714502.151 6  96400923.83843
     -3457.065       -2693.823
  22395559.693    22395559.4564   22395563.9684  117689486.781 7  91706121.50144
      -555.107        -432.542
  20884631.064    20884630.3444   20884634.8274  109749481.296 8  85519093.54446
     -1343.204       -1046.649
  21754595.693    21754595.2934   21754598.5724  114321197.676 8  89081479.12445
       884.079         688.893
  21736266.816    21736266.0344   21736268.0664  114224867.134 8  89006406.59046
      1765.175        1375.462
  22477675.621    22477675.1704   22477678.1494  118120972.249 6  92042331.95244
     -2888.466       -2250.747
  23105305.014    23105305.1914   23105307.8284  121419221.696 6  94612397.50944
      2988.685        2328.849
  21949664.753    21949664.6514   21949668.6084  115346303.779 7  89880257.28344
      -296.638        -231.149
  23695344.648    23695344.8254   23695349.0464  124519875.882 6  97028493.36043
     -2225.872       -1734.436
  24936503.460    24936502.0594   24936506.6804  131042197.478 5 102110818.61541
      3280.279        2556.032
  22418254.274    22418254.0434   22418258.1244  117808738.011 7  91799038.80644
      -973.006        -758.188
 06  4 30  6 39 30.0000000  0 12G 3G 7G 8G15G18G19G21G22G26G27G28G29
  21138968.216    21138967.8524   21138971.9294  111086030.239 8  86560563.34046
     -1185.403        -923.689
  23561847.866    23561847.3304   23561853.5964  123818325.322 6  96481824.94343
     -3464.662       -2699.726
  22398792.357    22398791.9674   22398796.6754  117706474.451 7  91719358.57644
      -577.527        -450.026
  20892355.472    20892354.7524   20892359.4664  109790073.425 8  85550723.75446
     -1363.083       -1062.143
  21749603.657    21749603.4054   21749606.6594  114294965.262 8  89061038.27645
       864.593         673.709
  21726236.888    21726235.9294   21726238.0574  114172158.774 7  88965335.14146
      1748.558        1362.518
  22494202.439    22494202.1904   22494205.0964  118207821.726 6  92110006.82944
     -2901.647       -2261.022
  23088274.936    23088274.8224   23088276.5114  121329723.591 6  94542658.77544
      2977.640        2320.239
  21951427.641    21951427.7224   21951431.9284  115355569.001 7  89887476.92844
      -321.145        -250.240
  23708092.484    23708091.6424   23708096.6054  124586863.256 6  97080691.30343
     -2240.010       -1745.454
  24917796.838    24917795.2944   24917797.1864  130943886.306 5 102034212.49641
      3273.602        2550.858
  22423865.925    22423865.5914   22423869.7314  117838227.188 7  91822017.37144
      -993.121        -773.853
 06  4 30  6 40  0.0000000  0 12G 3G 7G 8G15G18G19G21G22G26G27G28G29
  21145792.264    21145791.8754   21145795.9264  111121890.279 8  86588506.21946
     -1205.337        -939.225
  23581649.257    23581648.4204   23581654.6484  123922379.487 6  96562906.05843
     -3472.358       -2705.734
  22402153.553    22402153.3034   22402157.7834  117724138.292 7  91733122.62944
      -600.129        -467.639
  20900194.286    20900193.5654   20900198.0324  109831265.730 8  85582821.63646
     -1383.160       -1077.785
  21744724.114    21744723.7994   21744726.9304  114269322.162 8  89041056.64645
       844.863         658.331
  21716302.665    21716301.7164   21716303.8344  114119954.472 8  88924656.46546
      1731.640        1349.327
  22510805.189    22510804.6684   22510807.8784  118295068.760 6  92177991.50444
     -2914.912       -2271.355
  23071307.650    23071307.4424   23071309.7934  121240562.217 7  94473182.40944
      2966.318        2311.414
  21953331.686    21953331.3584   21953335.2574  115365572.250 7  89895271.65644
      -345.793        -269.449
  23720920.783    23720920.1854   23720925.0304  124654277.530 6  97133221.91143
     -2254.224       -1756.537
  24899125.917    24899126.5214   24899127.5914  130845780.237 5 101957766.27941
      3266.648        2545.433
  22429593.075    22429592.7754   22429596.5834  117868323.211 6  91845468.80444
     -1013.364        -789.634
 06  4 30  6 40 30.0000000  0 12G 3G 7G 8G15G18G19G21G22G26G27G28G29
  21152729.842    21152729.4194   21152733.4074  111158346.970 8  86616914.02246
     -1225.240        -954.733
  23601494.229    23601493.3204   23601498.6924  124026663.500 6  96644166.27343
     -3480.040       -2711.733
  22405643.933    22405643.5384   22405648.1474  117742478.960 7  91747414.08144
      -622.701        -485.232
  20908147.076    20908146.3344   20908150.9184  109873058.197 8  85615387.18546
     -1403.177       -1093.385
  21739957.205    21739956.7254   21739959.6904  114244270.454 8  89021535.83845
       825.093         642.927
  21706464.942    21706464.0564   21706466.1624  114068257.075 7  88884372.79046
      1714.720        1336.146
  22527482.802    22527482.6724   22527485.7084  118382712.605 6  92246285.37644
     -2928.141       -2281.667
  23054405.805    23054405.6934   23054407.8314  121151740.773 7  94403970.94044
      2954.895        2302.508
  21955375.136    21955375.5314   21955379.6854  115376314.184 7  89903641.99844
      -370.483        -288.687
  23733830.026    23733829.4854   23733834.5714  124722117.764 6  97186084.38643
     -2268.547       -1767.689
  24880494.796    24880494.3074   24880499.0664  130747882.920 5 101881482.69041
      3259.718        2540.047
  22435435.451    22435435.3734   22435439.2474  117899026.097 6  91869393.13244
     -1033.603        -805.412
 06  4 30  6 41  0.0000000  0 12G 3G 7G 8G15G18G19G21G22G26G27G28G29
  21159780.083    21159779.7644   21159783.8874  111195397.257 8  86645784.37546
     -1244.800        -969.974
  23621381.437    23621381.0624   23621386.8034  124131173.240 6  96725602.37043
     -3487.327       -2717.395
  22409261.929    22409261.7524   22409266.3664  117761493.619 6  91762230.67144
      -644.955        -502.564
  20916213.565    20916212.7774   20916217.2224  109915447.504 8  85648417.80746
     -1422.825       -1108.693
  21735302.105    21735301.7644   21735305.0924  114219809.144 8  89002475.08545
       805.613         627.756
  21696723.638    21696722.7484   21696724.7674  114017066.310 7  88844483.89846
      1697.981        1323.099
  22544235.643    22544235.2524   22544238.7954  118470748.778 7  92314884.95744
     -2940.997       -2291.680
  23037568.282    23037568.3224   23037570.3604  121063259.873 7  94335024.80444
      2943.777        2293.858
  21957560.029    21957559.9664   21957563.7324  115387792.529 7  89912586.17445
      -394.764        -307.600
  23746820.441    23746819.8124   23746824.3504  124790379.472 6  97239275.23943
     -2282.274       -1778.386
  24861904.106    24861904.7054   24861911.1624  130650195.094 5 101805362.25541
      3252.800        2534.654
  22441392.745    22441392.8304   22441397.0484  117930332.847 6  91893788.01444
     -1053.526        -820.939
 06  4 30  6 41 30.0000000  0 12G 3G 7G 8G15G18G19G21G22G26G27G28G29
  21166943.689    21166943.3644   21166947.4994  111233042.080 8  86675117.98946
     -1264.813        -985.565
  23641311.884    23641311.2944   23641317.0644  124235908.607 6  96807214.26143
     -3494.962       -2723.341
  22413009.267    22413008.8144   22413013.2104  117781183.813 7  91777573.69144
      -667.672        -520.261
  20924393.676    20924392.9654   20924397.4124  109958434.220 8  85681913.93546
     -1442.926       -1124.359
  21730760.075    21730759.6724   21730762.9254  114195941.219 7  88983876.71245
       785.635         612.181
  21687079.641    21687078.6684   21687080.6234  113966385.913 7  88804992.67746
      1680.717        1309.646
  22561063.358    22561062.6964   22561066.3984  118559176.994 7  92383790.02244
     -2954.189       -2301.957
  23020796.200    23020796.3574   23020798.5874  120975123.814 7  94266347.40144
      2932.013        2284.682
  21959884.599    21959884.4394   21959888.7254  115400008.711 7  89922105.27245
      -419.565        -326.940
  23759890.111    23759890.1624   23759894.4434  124859062.879 6  97292794.71743
     -2296.527       -1789.492
  24843357.695    24843357.2734   24843361.1204  130552720.815 5 101729408.26041
      3245.524        2528.977
  22447465.931    22447465.5294   22447469.5074  117962244.460 6  91918654.21144
     -1073.854        -836.772
